[[{"header":{"parameterUnit":"m.s-1","parameterCategory":1,"la1":30.6,"la2":29.2853,"lo1":-89.7004,"lo2":-87.6739,"dy":0.0162,"dx":0.0183,"nx":112,"ny":82,"refTime":"2024-06-07T12:00:00:Z","depth":0,"parameterNumber":2,"parameterNumberName":"U-component_of_WINDS"},"data":[0.0,0.0,0.0,0.0,0.0,0.0,0.0,0.0,0.0,0.0,0.0,0.0,0.0,0.0,0.0,0.0,0.0,0.0,0.0,0.0,0.0,0.0,0.0,0.0,0.0,0.0,0.0,0.0,0.0,0.0,0.0,0.0,0.0,0.0,0.0,0.0,0.0,0.0,0.0,0.0,0.0,0.0,0.0,0.0,0.0,0.0,0.0,0.0,0.0,0.0,0.0,0.0,0.0,0.0,0.0,0.0,0.0,0.0,0.0,0.0,0.0,0.0,0.0,0.0,0.0,0.0,0.0,0.0,0.0,0.0,0.0,0.0,0.0,0.0,0.0,0.0,0.0,0.0,0.0,0.0,0.0,0.0,0.0,0.0,0.0,0.0,0.0,0.0,0.0,0.0,-2.9707,-3.1135,-3.3815,-3.5608,-3.5752,-3.529,-3.3493,-3.0021,0.0,0.0,0.0,0.0,0.0,0.0,0.0,0.0,0.0,0.0,0.0,0.0,0.0,0.0,0.0,0.0,0.0,0.0,0.0,0.0,0.0,0.0,0.0,0.0,0.0,0.0,0.0,0.0,0.0,0.0,0.0,0.0,0.0,0.0,0.0,0.0,0.0,0.0,0.0,0.0,0.0,0.0,0.0,0.0,0.0,0.0,0.0,0.0,0.0,0.0,0.0,0.0,0.0,0.0,0.0,0.0,0.0,0.0,0.0,0.0,0.0,0.0,0.0,0.0,0.0,0.0,0.0,0.0,0.0,0.0,0.0,0.0,0.0,0.0,0.0,0.0,0.0,0.0,0.0,0.0,0.0,0.0,0.0,0.0,0.0,0.0,0.0,0.0,0.0,0.0,0.0,0.0,0.0,0.0,0.0,0.0,0.0,0.0,0.0,0.0,0.0,0.0,0.0,0.0,-3.051,-3.4711,-3.4907,-3.5073,-3.591,-3.3966,-3.1818,-2.961,0.0,0.0,0.0,0.0,0.0,0.0,0.0,0.0,0.0,0.0,0.0,0.0,0.0,0.0,0.0,0.0,0.0,0.0,0.0,0.0,0.0,0.0,0.0,0.0,0.0,0.0,0.0,0.0,0.0,0.0,0.0,0.0,0.0,0.0,0.0,0.0,0.0,0.0,0.0,0.0,0.0,0.0,0.0,0.0,0.0,0.0,0.0,0.0,0.0,0.0,0.0,0.0,0.0,0.0,0.0,0.0,0.0,0.0,0.0,0.0,0.0,0.0,0.0,0.0,0.0,0.0,0.0,0.0,0.0,0.0,0.0,0.0,0.0,0.0,0.0,0.0,0.0,0.0,0.0,0.0,0.0,0.0,0.0,0.0,0.0,0.0,0.0,0.0,0.0,0.0,0.0,0.0,0.0,0.0,0.0,0.0,0.0,0.0,0.0,0.0,0.0,0.0,0.0,-2.9163,-3.1507,-3.5689,-3.5688,-3.535,-3.5429,-3.4118,-3.2062,-2.8968,-2.9725,0.0,0.0,0.0,0.0,0.0,0.0,0.0,0.0,0.0,0.0,0.0,0.0,0.0,0.0,0.0,0.0,0.0,0.0,0.0,0.0,0.0,0.0,0.0,0.0,0.0,0.0,0.0,0.0,0.0,0.0,0.0,0.0,0.0,0.0,0.0,0.0,0.0,0.0,0.0,0.0,0.0,0.0,0.0,0.0,0.0,0.0,0.0,0.0,0.0,0.0,0.0,0.0,0.0,0.0,0.0,0.0,0.0,0.0,0.0,0.0,0.0,0.0,0.0,0.0,0.0,0.0,0.0,0.0,0.0,0.0,0.0,0.0,0.0,0.0,0.0,0.0,0.0,0.0,0.0,0.0,0.0,0.0,0.0,0.0,0.0,0.0,0.0,0.0,0.0,0.0,0.0,0.0,0.0,0.0,0.0,0.0,0.0,0.0,0.0,0.0,0.0,0.0,-3.0919,-3.2632,-3.5528,-3.5479,-3.5154,-3.4743,-3.3844,-3.1801,-2.8339,-2.904,0.0,0.0,0.0,0.0,0.0,0.0,0.0,0.0,0.0,0.0,0.0,0.0,0.0,0.0,0.0,0.0,0.0,0.0,0.0,0.0,0.0,0.0,0.0,0.0,0.0,0.0,0.0,0.0,0.0,0.0,0.0,0.0,0.0,0.0,0.0,0.0,0.0,0.0,0.0,0.0,0.0,0.0,0.0,0.0,0.0,0.0,0.0,0.0,0.0,0.0,0.0,0.0,0.0,0.0,0.0,0.0,0.0,0.0,0.0,0.0,0.0,0.0,0.0,0.0,0.0,0.0,0.0,0.0,0.0,0.0,0.0,0.0,0.0,0.0,0.0,0.0,0.0,0.0,0.0,0.0,0.0,0.0,0.0,0.0,0.0,0.0,0.0,0.0,0.0,0.0,0.0,0.0,0.0,0.0,0.0,0.0,0.0,0.0,0.0,0.0,0.0,0.0,-3.1375,-3.3661,-3.4633,-3.3768,-3.3422,-3.407,-3.1812,-2.9671,-2.8048,-2.7806,0.0,0.0,0.0,0.0,0.0,0.0,0.0,0.0,0.0,0.0,0.0,0.0,0.0,0.0,0.0,0.0,0.0,0.0,0.0,0.0,0.0,0.0,0.0,0.0,0.0,0.0,0.0,0.0,0.0,0.0,0.0,0.0,0.0,0.0,0.0,0.0,0.0,0.0,0.0,0.0,0.0,0.0,0.0,0.0,0.0,0.0,0.0,0.0,0.0,0.0,0.0,0.0,0.0,0.0,0.0,0.0,0.0,0.0,0.0,0.0,0.0,0.0,0.0,0.0,0.0,0.0,0.0,0.0,0.0,0.0,0.0,0.0,0.0,0.0,0.0,0.0,0.0,0.0,0.0,0.0,0.0,0.0,0.0,0.0,0.0,0.0,0.0,0.0,0.0,0.0,0.0,0.0,0.0,0.0,0.0,0.0,0.0,0.0,0.0,0.0,0.0,0.0,-3.0823,-3.289,-3.4611,-3.4124,-3.3575,-3.3367,-3.2099,-3.0131,-2.7409,0.0,0.0,0.0,0.0,0.0,0.0,0.0,0.0,0.0,0.0,0.0,0.0,0.0,0.0,0.0,0.0,0.0,0.0,0.0,0.0,0.0,0.0,0.0,0.0,0.0,0.0,0.0,0.0,0.0,0.0,0.0,0.0,0.0,0.0,0.0,0.0,0.0,0.0,0.0,0.0,0.0,0.0,0.0,0.0,0.0,0.0,0.0,0.0,0.0,0.0,0.0,0.0,0.0,0.0,0.0,0.0,0.0,0.0,0.0,0.0,0.0,0.0,0.0,0.0,0.0,0.0,0.0,0.0,0.0,0.0,0.0,0.0,0.0,0.0,0.0,0.0,0.0,0.0,0.0,0.0,0.0,0.0,0.0,0.0,0.0,0.0,0.0,0.0,0.0,0.0,0.0,0.0,0.0,0.0,0.0,0.0,0.0,0.0,0.0,0.0,0.0,0.0,-2.8492,-3.0675,-3.2673,-3.4225,-3.3865,-3.3241,-3.2662,-3.1748,-3.005,-2.7305,0.0,0.0,0.0,0.0,0.0,0.0,0.0,0.0,0.0,0.0,0.0,0.0,0.0,0.0,0.0,0.0,0.0,0.0,0.0,0.0,0.0,0.0,0.0,0.0,0.0,0.0,0.0,0.0,0.0,0.0,0.0,0.0,0.0,0.0,0.0,0.0,0.0,0.0,0.0,0.0,0.0,0.0,0.0,0.0,0.0,0.0,0.0,0.0,0.0,0.0,0.0,0.0,0.0,0.0,0.0,0.0,0.0,0.0,0.0,0.0,0.0,0.0,0.0,0.0,0.0,0.0,0.0,0.0,0.0,0.0,0.0,0.0,0.0,0.0,0.0,0.0,0.0,0.0,0.0,0.0,0.0,0.0,0.0,0.0,0.0,0.0,0.0,0.0,0.0,0.0,0.0,0.0,0.0,0.0,0.0,0.0,0.0,0.0,0.0,0.0,0.0,0.0,-2.8182,-3.1138,-3.3326,-3.3326,-3.2574,-3.2128,-3.2128,-3.036,-2.8942,0.0,0.0,0.0,0.0,0.0,0.0,0.0,0.0,0.0,0.0,0.0,0.0,0.0,0.0,0.0,0.0,0.0,0.0,0.0,0.0,0.0,0.0,0.0,0.0,0.0,0.0,0.0,0.0,0.0,0.0,0.0,0.0,0.0,0.0,0.0,0.0,0.0,0.0,0.0,0.0,0.0,0.0,0.0,0.0,0.0,0.0,0.0,0.0,0.0,0.0,0.0,0.0,0.0,0.0,0.0,0.0,0.0,0.0,0.0,0.0,0.0,0.0,0.0,0.0,0.0,0.0,0.0,0.0,0.0,0.0,0.0,0.0,0.0,0.0,0.0,0.0,0.0,0.0,0.0,0.0,0.0,0.0,0.0,0.0,0.0,0.0,0.0,0.0,0.0,0.0,0.0,0.0,0.0,0.0,0.0,0.0,0.0,0.0,0.0,0.0,0.0,0.0,0.0,-2.8852,-3.142,-3.3326,-3.3326,-3.286,-3.2489,-3.2489,-3.1151,-2.9697,-2.8421,0.0,0.0,0.0,0.0,0.0,0.0,0.0,0.0,0.0,0.0,0.0,0.0,0.0,0.0,0.0,0.0,0.0,0.0,0.0,0.0,0.0,0.0,0.0,0.0,0.0,0.0,0.0,0.0,0.0,0.0,0.0,0.0,0.0,0.0,0.0,0.0,0.0,0.0,0.0,0.0,0.0,0.0,0.0,0.0,0.0,0.0,0.0,0.0,0.0,0.0,0.0,0.0,0.0,0.0,0.0,0.0,0.0,0.0,0.0,0.0,0.0,0.0,0.0,0.0,0.0,0.0,0.0,0.0,0.0,0.0,0.0,0.0,0.0,0.0,0.0,0.0,0.0,0.0,0.0,0.0,0.0,0.0,0.0,0.0,0.0,0.0,0.0,0.0,0.0,0.0,0.0,0.0,0.0,0.0,0.0,0.0,0.0,0.0,0.0,0.0,0.0,0.0,-2.9152,-3.1533,-3.3326,-3.3326,-3.2931,-3.2704,-3.2704,-3.1585,-3.0432,-2.9268,0.0,0.0,0.0,0.0,0.0,0.0,0.0,0.0,0.0,0.0,0.0,0.0,0.0,0.0,0.0,0.0,0.0,0.0,0.0,0.0,0.0,0.0,0.0,0.0,0.0,0.0,0.0,0.0,0.0,0.0,0.0,0.0,0.0,0.0,0.0,0.0,0.0,0.0,0.0,0.0,0.0,0.0,0.0,0.0,0.0,0.0,0.0,0.0,0.0,0.0,0.0,0.0,0.0,0.0,0.0,0.0,0.0,0.0,0.0,0.0,0.0,0.0,0.0,0.0,0.0,0.0,0.0,0.0,0.0,0.0,0.0,0.0,0.0,0.0,0.0,0.0,0.0,0.0,0.0,0.0,0.0,0.0,0.0,0.0,0.0,0.0,0.0,0.0,0.0,0.0,0.0,0.0,0.0,0.0,0.0,0.0,0.0,0.0,0.0,0.0,0.0,0.0,-2.9194,-3.1533,-3.3326,-3.3326,-3.3002,-3.2775,-3.2775,-3.1869,-3.1021,-3.0276,0.0,0.0,0.0,0.0,0.0,0.0,0.0,0.0,0.0,0.0,0.0,0.0,0.0,0.0,0.0,0.0,0.0,0.0,0.0,0.0,0.0,0.0,0.0,0.0,0.0,0.0,0.0,0.0,0.0,0.0,0.0,0.0,0.0,0.0,0.0,0.0,0.0,0.0,0.0,0.0,0.0,0.0,0.0,0.0,0.0,0.0,0.0,0.0,0.0,0.0,0.0,0.0,0.0,0.0,0.0,0.0,0.0,0.0,0.0,0.0,-2.2639,-2.1071,0.0,0.0,0.0,0.0,0.0,0.0,0.0,0.0,0.0,0.0,0.0,0.0,0.0,0.0,0.0,0.0,0.0,0.0,0.0,0.0,0.0,0.0,0.0,0.0,0.0,0.0,0.0,0.0,0.0,0.0,0.0,0.0,0.0,0.0,0.0,0.0,0.0,0.0,0.0,0.0,-2.9194,-3.1533,-3.3326,-3.3326,-3.3241,-3.3171,-3.3171,-3.2319,-3.1445,-3.0664,-2.9038,0.0,0.0,0.0,0.0,0.0,0.0,0.0,0.0,0.0,0.0,0.0,0.0,0.0,0.0,0.0,0.0,0.0,0.0,0.0,0.0,0.0,0.0,0.0,0.0,0.0,0.0,0.0,0.0,0.0,0.0,0.0,0.0,0.0,0.0,0.0,0.0,0.0,0.0,0.0,0.0,0.0,0.0,0.0,0.0,0.0,0.0,0.0,0.0,0.0,0.0,0.0,0.0,0.0,0.0,0.0,0.0,0.0,0.0,0.0,-2.4279,-2.3455,0.0,0.0,0.0,0.0,0.0,0.0,0.0,0.0,0.0,0.0,0.0,0.0,0.0,0.0,0.0,0.0,0.0,0.0,0.0,0.0,0.0,0.0,0.0,0.0,0.0,0.0,0.0,0.0,0.0,0.0,0.0,0.0,0.0,0.0,0.0,0.0,0.0,0.0,0.0,0.0,-2.9194,-3.1533,-3.3326,-3.3326,-3.3326,-3.3326,-3.3326,-3.2891,-3.2303,-3.1551,-2.9905,0.0,0.0,0.0,0.0,0.0,0.0,0.0,0.0,0.0,0.0,0.0,0.0,0.0,0.0,0.0,0.0,0.0,0.0,0.0,0.0,0.0,0.0,0.0,0.0,0.0,0.0,0.0,0.0,0.0,0.0,0.0,0.0,0.0,0.0,0.0,0.0,0.0,0.0,0.0,0.0,0.0,0.0,0.0,0.0,0.0,0.0,0.0,0.0,0.0,0.0,0.0,0.0,0.0,-2.2294,-2.2895,-2.4017,-2.4158,-2.4977,-2.6205,-2.6284,-2.6443,-2.6553,-2.4646,0.0,0.0,0.0,0.0,0.0,0.0,0.0,0.0,0.0,0.0,0.0,0.0,0.0,0.0,0.0,0.0,0.0,0.0,0.0,0.0,0.0,0.0,-2.9508,-2.8881,-3.0135,-3.1212,-3.0049,0.0,0.0,0.0,0.0,0.0,0.0,0.0,0.0,0.0,0.0,0.0,-2.9562,-3.1829,-3.348,-3.348,-3.348,-3.3438,-3.3326,-3.3326,-3.3059,-3.244,-3.0951,-2.9538,0.0,0.0,0.0,0.0,0.0,0.0,0.0,0.0,0.0,0.0,0.0,0.0,0.0,0.0,0.0,0.0,0.0,0.0,0.0,0.0,0.0,0.0,0.0,0.0,0.0,0.0,0.0,0.0,0.0,0.0,0.0,0.0,-1.2982,-1.3901,0.0,0.0,0.0,0.0,0.0,0.0,0.0,0.0,0.0,0.0,0.0,0.0,0.0,-2.1318,-2.136,-2.2989,-2.3853,-2.3924,-2.4867,-2.5802,-2.6715,-2.755,-2.8463,-2.9439,-3.0233,0.0,-2.6918,-2.7421,0.0,0.0,0.0,0.0,0.0,0.0,0.0,0.0,0.0,0.0,0.0,0.0,0.0,0.0,0.0,0.0,0.0,0.0,0.0,0.0,0.0,0.0,-3.2177,-3.2111,-3.2528,-3.2933,-3.2764,-3.0821,-2.9035,-2.8795,-2.8382,-2.7711,0.0,0.0,0.0,0.0,0.0,0.0,-3.1075,-3.2931,-3.4112,-3.4112,-3.4112,-3.3902,-3.3368,-3.3326,-3.3059,-3.244,-3.2174,-3.1298,-2.9619,-2.8274,0.0,0.0,0.0,0.0,0.0,0.0,0.0,0.0,0.0,0.0,0.0,0.0,0.0,0.0,0.0,0.0,0.0,0.0,0.0,0.0,0.0,0.0,0.0,0.0,0.0,0.0,0.0,0.0,0.0,-1.2459,-1.3611,-1.3822,-1.454,-1.5059,0.0,0.0,0.0,0.0,0.0,0.0,0.0,0.0,0.0,-2.2036,-2.2755,-2.3361,-2.3886,-2.5026,-2.5691,-2.5962,-2.6464,-2.6972,-2.7566,-2.7856,-2.8233,-2.8932,-3.0643,-3.056,-2.9089,-2.8863,-2.8006,-2.6876,0.0,0.0,0.0,0.0,-2.6307,-2.6472,-2.7971,-2.85,-2.8425,-2.8166,0.0,0.0,0.0,0.0,0.0,0.0,0.0,-2.8329,-2.9836,-3.1135,-3.2291,-3.3294,-3.394,-3.445,-3.4787,-3.386,-3.2518,-3.0793,-3.029,-2.9416,-2.7157,-2.7698,0.0,0.0,0.0,-3.0722,-3.1462,-3.3142,-3.4365,-3.4716,-3.4436,-3.4281,-3.4379,-3.3733,-3.3354,-3.3438,-3.2792,-3.2033,-3.1284,-2.9755,-2.8307,0.0,0.0,0.0,0.0,0.0,0.0,0.0,0.0,0.0,0.0,0.0,0.0,0.0,0.0,0.0,0.0,0.0,0.0,0.0,0.0,0.0,0.0,0.0,0.0,0.0,0.0,0.0,0.0,-1.3479,-1.4186,-1.4024,-1.4707,-1.5138,0.0,0.0,0.0,0.0,0.0,0.0,-2.1639,-2.2402,-2.3171,-2.391,-2.4605,-2.5222,-2.5808,-2.6434,-2.692,-2.7262,-2.7262,-2.7438,-2.7738,-2.7683,-2.7968,-2.8582,-3.0648,-3.139,-3.1192,-3.0535,-2.9935,-2.9288,-2.8498,-2.7747,-2.7386,-2.8825,-2.8852,-2.8491,-3.0441,-3.0834,-3.05,-3.0275,-3.0214,-3.0036,-2.9093,0.0,0.0,0.0,0.0,-2.9442,-3.1236,-3.1836,-3.2384,-3.407,-3.4829,-3.5395,-3.5939,-3.5953,-3.5152,-3.2876,-3.2354,-3.1406,-2.8658,-2.9412,0.0,-2.8182,-3.0177,-3.2065,-3.2464,-3.3677,-3.4646,-3.5184,-3.4604,-3.4436,-3.4913,-3.3958,-3.3508,-3.3972,-3.3143,-3.2567,-3.2412,-3.1129,-2.9783,-2.8418,0.0,0.0,0.0,0.0,0.0,0.0,0.0,0.0,0.0,0.0,0.0,0.0,0.0,0.0,0.0,0.0,0.0,0.0,0.0,0.0,0.0,0.0,0.0,0.0,0.0,0.0,0.0,0.0,0.0,-1.4953,-1.6133,0.0,0.0,0.0,0.0,-1.9899,-2.1243,-2.2491,-2.367,-2.454,-2.5275,-2.5723,-2.6227,-2.6465,-2.6537,-2.6993,-2.7241,-2.7262,-2.7262,-2.7272,-2.7388,-2.8186,-2.9162,-3.018,-3.124,-3.1896,-3.2406,-3.3217,-3.2585,-3.106,-3.0937,-3.0362,-2.9578,-3.0299,-3.0791,-3.1185,-3.1043,-3.1344,-3.1473,-3.0215,-2.9533,-2.9495,-3.048,-3.0516,0.0,0.0,-3.2146,-3.2568,-3.4467,-3.4084,-3.355,-3.4801,-3.5212,-3.5395,-3.5939,-3.5691,-3.5226,-3.5071,-3.4492,-3.348,-3.1674,0.0,-3.1622,-3.2221,-3.2312,-3.2988,-3.4818,-3.5127,-3.5198,-3.5226,-3.4604,-3.4181,-3.4281,-3.3691,-3.3326,-3.3368,-3.3312,-3.3016,-3.2426,-3.2314,-3.1467,-2.9747,-2.868,0.0,0.0,0.0,0.0,0.0,0.0,0.0,0.0,0.0,0.0,0.0,0.0,0.0,0.0,0.0,0.0,0.0,0.0,0.0,0.0,0.0,0.0,0.0,0.0,0.0,0.0,0.0,0.0,-1.5623,-1.6708,0.0,-1.6975,-1.8731,-2.0089,-2.0504,-2.2495,-2.391,-2.4345,-2.5757,-2.6475,-2.633,-2.7044,-2.7303,-2.7013,-2.7458,-2.7686,-2.7686,-2.8376,-2.8463,-2.8264,-2.8931,-2.9387,-2.973,-3.0939,-3.1505,-3.1517,-3.2864,-3.2732,-3.1675,-3.1552,-3.1508,-3.1472,-3.1549,-3.1876,-3.2292,-3.2581,-3.2771,-3.2881,-3.2384,-3.2233,-3.2304,-3.2727,-3.3162,-3.3593,-3.4042,-3.4185,-3.4356,-3.502,-3.4893,-3.4723,-3.5579,-3.5747,-3.5971,-3.6564,-3.6487,-3.6332,-3.6332,-3.5517,-3.4365,-3.2973,-3.3649,-3.3972,-3.2678,-3.348,-3.4548,-3.5602,-3.5742,-3.5897,-3.629,-3.5433,-3.5152,-3.5939,-3.4351,-3.3663,-3.445,-3.3761,-3.3213,-3.3002,-3.2623,-3.1907,-3.0904,-2.9851,-2.8196,0.0,0.0,0.0,0.0,0.0,0.0,0.0,0.0,0.0,0.0,0.0,0.0,0.0,0.0,0.0,0.0,0.0,0.0,0.0,0.0,0.0,0.0,0.0,0.0,0.0,-1.5815,-1.6831,-1.6704,-1.7858,-1.858,-1.8286,-1.9998,-2.1454,-2.2126,-2.4059,-2.5369,-2.5549,-2.7135,-2.7631,-2.688,-2.7636,-2.8115,-2.8007,-2.83,-2.8544,-2.8739,-2.9362,-2.9536,-2.9236,-2.9622,-2.9814,-2.9984,-3.091,-3.1018,-3.0799,-3.1976,-3.2091,-3.1503,-3.1768,-3.2068,-3.2377,-3.2306,-3.2611,-3.3012,-3.3639,-3.3695,-3.3567,-3.3752,-3.4072,-3.4421,-3.4421,-3.4872,-3.5423,-3.5728,-3.5423,-3.518,-3.5634,-3.5529,-3.5359,-3.6219,-3.6219,-3.6244,-3.6859,-3.6978,-3.6915,-3.6628,-3.5947,-3.5189,-3.4615,-3.5334,-3.537,-3.3635,-3.4731,-3.5681,-3.5363,-3.5634,-3.5958,-3.6042,-3.5424,-3.5315,-3.6184,-3.4262,-3.3536,-3.4773,-3.3494,-3.289,-3.3297,-3.2328,-3.1551,-3.0932,-2.9941,-2.874,-2.7449,0.0,0.0,0.0,0.0,0.0,0.0,0.0,0.0,0.0,0.0,0.0,0.0,0.0,0.0,0.0,0.0,0.0,0.0,0.0,0.0,0.0,0.0,0.0,-1.5668,-1.6806,-1.7962,-1.8311,-1.9742,-2.0604,-2.0346,-2.1379,-2.2858,-2.4805,-2.579,-2.6554,-2.7166,-2.8543,-2.8697,-2.7399,-2.8248,-2.8969,-2.9455,-2.9444,-2.973,-3.0318,-3.0318,-3.0307,-3.0296,-3.0307,-3.0599,-3.106,-3.106,-3.0695,-3.0258,-3.0821,-3.079,-3.0656,-3.1789,-3.2215,-3.2327,-3.2378,-3.2777,-3.343,-3.4097,-3.3883,-3.3382,-3.3914,-3.4643,-3.5347,-3.5333,-3.5471,-3.5797,-3.671,-3.5889,-3.5086,-3.6626,-3.6093,-3.5578,-3.6697,-3.6533,-3.6287,-3.6873,-3.6993,-3.6707,-3.5832,-3.5589,-3.591,-3.673,-3.6243,-3.5528,-3.5227,-3.622,0.0,-3.4059,-3.4753,-3.5196,-3.4332,-3.4473,-3.4589,-3.4719,-3.3259,-3.2932,-3.4183,-3.2553,-3.2089,-3.3297,-3.1716,-3.051,-2.9902,-2.894,-2.8944,-2.9842,0.0,0.0,0.0,0.0,0.0,0.0,0.0,0.0,0.0,0.0,0.0,0.0,0.0,0.0,0.0,0.0,0.0,0.0,0.0,0.0,0.0,-1.4722,-1.5852,-1.6802,-1.852,-1.9854,-2.0207,-2.099,-2.1462,-2.1345,-2.2257,-2.3047,-2.3551,-2.463,-2.5335,-2.5533,-2.7676,-2.8521,-2.7865,-2.9746,-3.0671,-3.0536,-3.0575,-3.069,-3.0789,-3.1196,-3.1214,-3.0782,-3.1529,-3.1797,-3.1563,-3.1563,-3.1483,-3.1335,-3.0687,-3.0461,-3.0373,-3.0717,-3.1436,-3.2153,-3.1271,-3.144,-3.2048,-3.2213,-3.2739,-3.3273,-3.2937,-3.3524,-3.4318,-3.4012,-3.4162,-3.4727,-3.5777,-3.5795,-3.5687,-3.6774,-3.6726,-3.6571,-3.6908,-3.6873,-3.662,-3.6152,-3.6062,-3.5777,-3.4825,-3.4178,-3.3985,-3.4897,-3.4802,-3.4872,-3.5473,-3.5278,-3.5196,-3.567,-3.5459,-3.4993,-3.4553,-3.4176,-3.4227,-3.5002,-3.3409,-3.3115,-3.4801,-3.3593,-3.3171,-3.3958,-3.3059,-3.2393,-3.2023,-3.0911,-3.0369,0.0,0.0,0.0,0.0,0.0,0.0,0.0,0.0,0.0,0.0,0.0,0.0,0.0,0.0,0.0,0.0,0.0,0.0,0.0,0.0,0.0,0.0,-1.5411,-1.6773,-1.8097,-1.9359,-2.0514,-2.1682,-2.2026,-2.2265,-2.2456,-2.2868,-2.335,-2.4079,-2.4729,-2.5315,-2.5658,-2.7403,-2.8172,-2.7663,-2.9332,-3.0468,-3.0852,-3.0884,-3.1159,-3.16,-3.2107,-3.1951,-3.1295,-3.207,-3.2033,-3.1375,-3.1375,-3.1166,-3.076,-3.0385,-3.0101,-2.9946,0.0,0.0,0.0,0.0,-3.1077,-3.1552,-3.2092,-3.2566,-3.2924,-3.2798,-3.3085,-3.3522,-3.3259,-3.3221,-3.3479,-3.453,-3.4874,-3.5219,-3.6036,-3.664,-3.6936,-3.6521,-3.6438,-3.6237,-3.5297,-3.5134,-3.4861,-3.3918,-3.3351,0.0,-3.3152,-3.3479,-3.39,-3.434,-3.4334,-3.4437,-3.49,-3.493,-3.4712,-3.4375,-3.4716,-3.5062,-3.5138,-3.415,0.0,0.0,0.0,-3.3241,-3.3142,-3.2551,0.0,0.0,0.0,0.0,0.0,-3.2256,0.0,0.0,-3.1427,-3.1679,0.0,0.0,0.0,0.0,0.0,0.0,0.0,0.0,0.0,0.0,0.0,0.0,0.0,0.0,0.0,0.0,-1.6485,-1.7857,-1.9264,-1.9418,-2.0287,-2.2633,-2.2851,-2.2912,-2.3537,-2.3383,-2.3826,-2.5246,-2.5487,-2.5846,-2.6556,-2.7456,0.0,0.0,0.0,-2.9434,-3.0782,-3.0852,-3.1283,-3.2176,-3.2477,-3.2192,-3.1376,-3.1924,-3.1671,-3.0874,-3.0974,-3.0446,-2.9661,-2.9991,-2.9884,-2.944,-2.9464,-2.9452,-2.9635,-3.0718,-3.1182,-3.1561,-3.2624,0.0,0.0,-3.286,-3.2947,-3.2822,-3.2723,-3.2472,-3.2305,-3.3231,-3.3617,-3.3993,-3.4903,-3.5875,-3.6493,-3.5834,-3.5592,-3.5339,-3.4439,-3.4232,-3.3913,-3.3058,-3.2885,-3.2575,-3.1837,-3.2326,-3.2824,-3.2546,-3.3407,-3.3784,-3.3008,-3.3806,-3.4304,-3.4002,-3.5474,0.0,-3.5208,-3.5039,-3.533,-3.6023,-3.4407,-3.289,-3.1843,-3.1335,-3.1168,-3.1304,-3.1495,-3.2457,-3.4128,-3.4419,-3.4598,-3.4742,-3.2151,-3.1842,0.0,0.0,0.0,0.0,0.0,0.0,0.0,0.0,0.0,0.0,0.0,0.0,0.0,0.0,0.0,-1.4518,-1.5318,-1.6755,-1.9317,-1.8716,-1.9211,-2.2632,-2.3357,-2.3391,-2.3237,-2.3699,-2.4076,-2.4438,-2.5017,-2.5432,-2.57,-2.707,-2.79,-2.775,-2.9439,-3.0537,-3.0768,-3.0857,-3.0974,-3.1217,-3.0591,0.0,-3.0003,-3.0485,-3.0586,-3.0501,-3.1159,-3.1331,-3.111,-3.0407,-3.0044,-2.9978,-2.9561,-2.9466,-2.9568,-2.9727,-3.0076,-3.0458,-3.0746,-3.1086,-3.1424,-3.0968,-3.1151,-3.1596,-3.1181,-3.0984,0.0,-3.2228,-3.2619,-3.2884,-3.394,-3.4448,-3.4662,-3.51,-3.4844,-3.4439,-3.3985,-3.3558,-3.3021,-3.2159,-3.1962,-3.1913,-3.1749,-3.1825,-3.2178,-3.2789,-3.2524,-3.2646,-3.4058,-3.385,-3.3588,-3.3572,-3.3881,-3.4484,-3.5328,-3.4573,-3.4623,-3.6023,-3.4801,-3.3733,-3.2988,-3.3326,-3.3507,-3.3354,-3.3339,-3.3729,-3.4346,-3.4922,-3.5252,-3.5238,-3.4934,-3.5111,0.0,0.0,0.0,0.0,0.0,0.0,0.0,0.0,0.0,0.0,0.0,-1.2855,-1.3085,0.0,-1.4667,-1.5004,-1.5541,-1.6568,-1.84,-1.8345,-1.9134,-2.2079,-2.2534,-2.2608,-2.2773,-2.3854,-2.4598,-2.4787,-2.5335,-2.5737,-2.5917,-2.6737,-2.7261,-2.7472,-2.8482,-2.9166,-2.963,-2.9647,-2.9776,-3.0023,-2.9921,-2.9496,-2.905,-2.9369,-2.9393,-2.919,-2.9394,-2.9723,-3.0141,-3.0416,-3.0301,-3.0127,-3.0141,-3.0218,-3.0297,-3.0273,-3.0227,-3.0239,-3.0638,-3.0769,-3.0761,-3.0772,-3.0772,-3.0668,-3.0453,-3.0408,-3.0557,-3.1133,-3.1686,-3.2268,-3.2842,-3.3663,-3.4332,-3.4293,-3.4338,-3.417,-3.3341,-3.2943,-3.2519,-3.1809,-3.1661,-3.1661,-3.1661,-3.1661,-3.1825,-3.2239,-3.2244,-3.2551,-3.3796,-3.3768,-3.3739,-3.4088,-3.4619,-3.5019,-3.5431,-3.4555,-3.4499,-3.5696,-3.4444,-3.3623,-3.3718,-3.3775,-3.3776,-3.3758,-3.3827,-3.4177,-3.4741,-3.5212,-3.5532,-3.5836,-3.6453,-3.688,0.0,0.0,0.0,0.0,0.0,0.0,0.0,-1.1628,-1.1798,-1.2181,-1.253,-1.3088,-1.3854,-1.4366,-1.4844,-1.5783,-1.6109,-1.664,-1.7589,-1.7899,-1.8906,-2.0929,-2.1248,-2.154,-2.2032,-2.3558,-2.4732,-2.5096,-2.5716,-2.6174,-2.6473,-2.6559,-2.6747,-2.7064,-2.7073,-2.7427,-2.825,-2.825,-2.8437,-2.8802,-2.9163,-2.8946,-2.8162,-2.8404,-2.8186,-2.7678,-2.7465,-2.7824,-2.8581,-2.9702,-3.013,-3.0066,-3.0615,-3.0971,-3.11,-3.1032,-3.0744,-3.0514,-3.1108,-3.0949,-3.0572,-3.0994,-3.0731,-3.0354,-3.025,-3.0216,-3.0216,-3.0216,-3.0938,-3.1781,-3.1793,-3.2925,-3.3983,-3.3469,-3.3663,-3.36,-3.2726,-3.2378,-3.2119,-3.1608,-3.1584,-3.1584,-3.1584,-3.1572,-3.1697,-3.1805,-3.2118,-3.2575,-3.3212,-3.3645,-3.409,-3.4619,-3.5414,-3.5824,-3.5462,-3.4928,-3.4805,-3.5196,-3.388,-3.3227,-3.3702,-3.3342,-3.3308,-3.3621,-3.3691,-3.4284,-3.5321,-3.5476,-3.5938,-3.6693,-3.7638,-3.7959,-0.8255,-0.9771,-1.074,-1.0719,-1.0947,-1.1525,0.0,-1.2696,-1.2692,-1.3198,-1.411,-1.4704,-1.4573,-1.517,-1.5783,-1.5873,-1.6109,-1.6702,-1.7754,-1.7378,-1.7447,-1.891,-2.0032,-2.0818,-2.1171,-2.2666,-2.3709,-2.4061,-2.5494,-2.6439,-2.6491,-2.6816,-2.703,-2.7073,-2.7073,-2.7194,-2.7315,-2.7315,-2.7289,-2.7357,-2.7002,-2.6811,-2.6759,-2.7177,-2.7151,-2.69,-2.7247,-2.7492,-2.7599,-2.7707,-2.8519,-2.9652,-3.0151,-3.0865,-3.1596,-3.1139,-3.1247,-3.1467,-3.1124,-3.1298,-3.1517,-3.0618,-3.056,-3.0836,-3.0354,-3.0216,-3.0216,-3.0216,-3.0605,-3.1149,-3.1418,-3.1588,-3.2071,-3.3109,-3.2301,-3.1648,-3.2388,-3.1774,-3.1116,-3.1062,-3.1062,-3.1062,-3.1062,-3.1229,-3.1562,-3.2334,-3.2034,-3.213,-3.3152,-3.3344,-3.3573,-3.4078,-3.4643,-3.5076,-3.5369,-3.5571,-3.5344,-3.4424,-3.3692,-3.2842,-3.2027,-3.2358,-3.2898,-3.3623,-3.3536,-3.4365,-3.6199,-3.6199,-3.6823,-3.7999,-3.9044,-3.8885,-0.7512,-0.8643,-0.9354,-0.9655,-1.0375,-1.1096,-1.1721,-1.2655,-1.3517,-1.4052,-1.4905,-1.5551,-1.5563,-1.608,-1.6315,-1.6386,-1.6579,-1.6924,-1.7208,-1.7092,-1.7138,-1.7535,-1.8403,-1.9322,-2.0137,-2.1884,-2.2953,-2.3097,-2.403,-2.4475,-2.4475,-2.4739,-2.5071,-2.5945,-2.5945,-2.6327,-2.7073,-2.7073,-2.7073,-2.7073,-2.691,-2.6833,-2.6816,-2.6776,-2.6495,-2.6012,-2.6482,-2.6626,-2.6735,-2.7482,-2.8164,-2.8805,-2.9912,-3.0589,-3.0979,-3.1611,-3.1769,-3.1708,-3.154,-3.1619,-3.1704,-3.1283,-3.1272,-3.1352,-3.0836,-3.0882,-3.1054,-3.0767,-3.1064,-3.1472,-3.1601,-3.1725,-3.202,-3.2889,-3.2424,-3.1991,-3.244,-3.19,-3.1293,-3.1085,-3.0984,-3.0984,-3.0984,-3.1062,-3.1317,-3.1928,-3.2105,-3.231,-3.2767,-3.3104,-3.3489,-3.3982,-3.4234,-3.4498,-3.5049,-3.4638,-3.4397,-3.4362,-3.3585,-3.2899,-3.2644,-3.2852,-3.3265,-3.3888,-3.3936,-3.5018,-3.7212,-3.7345,-3.8072,-3.9305,-3.9176,-3.9081,-0.6691,-0.7733,-0.8452,-0.8877,-0.972,-1.061,-1.1002,-1.243,-1.3751,-1.45,-1.5382,-1.5977,-1.6257,-1.6564,-1.6797,-1.6839,-1.7086,-1.7243,-1.705,-1.7189,-1.7267,-1.7153,-1.7642,-1.8372,-1.9279,-2.0984,-2.2003,-2.2089,-2.2689,-2.3076,-2.3076,-2.3076,-2.3574,-2.4571,-2.4571,-2.5071,-2.5953,-2.5945,-2.6197,-2.6571,-2.6571,-2.67,-2.7064,-2.667,-2.614,-2.5506,-2.5775,-2.5869,-2.5771,-2.6844,-2.7365,-2.7688,-2.8946,-2.9472,-2.9849,-3.1406,-3.1897,-3.1951,-3.1826,-3.1956,-3.2121,-3.1857,-3.1857,-3.1869,-3.1364,-3.1467,-3.1697,-3.1329,-3.1582,-3.1961,-3.1961,-3.208,-3.2332,-3.2665,-3.2388,-3.211,-3.2047,-3.1813,-3.1384,-3.0851,-3.0909,-3.0968,-3.0816,-3.0883,-3.1,-3.1363,-3.1798,-3.2141,-3.2285,-3.2723,-3.3155,-3.3777,-3.3837,-3.4042,-3.4571,-3.3921,-3.3756,-3.4379,-3.3637,-3.3146,-3.3115,-3.3229,-3.3527,-3.4059,-3.4492,-3.5792,-3.8018,-3.8079,-3.8885,-4.0379,-3.9194,-3.9276,-0.5912,-0.7377,-0.8697,-0.8544,-0.9152,-1.0163,-1.1281,-1.2064,-1.3058,-1.4385,-1.5412,-1.608,-1.6292,-1.6684,-1.7086,-1.708,-1.7509,-1.7847,-1.7835,-1.7847,-1.795,-1.8215,-1.8269,-1.8378,-1.8757,-1.9897,-2.0886,-2.1168,-2.232,-2.3076,-2.3076,-2.3076,-2.3076,-2.3201,-2.3201,-2.3201,-2.3201,-2.3201,-2.3822,-2.5194,-2.5194,-2.5823,-2.7064,-2.667,-2.6277,-2.59,-2.5515,-2.5146,-2.4812,-2.4932,-2.5348,-2.6191,-2.6825,-2.7571,-2.8426,-2.988,-3.1224,-3.2308,-3.1849,-3.2415,-3.3074,-3.2087,-3.2087,-3.2363,-3.1857,-3.1743,-3.1766,-3.1754,-3.2087,-3.2466,-3.2466,-3.2494,-3.2529,-3.256,-3.1792,-3.1087,-3.1065,-3.1052,-3.0869,-3.0342,-3.0629,-3.0824,-3.0308,-3.0487,-3.0578,-3.0589,-3.0894,-3.1172,-3.1654,-3.2011,-3.2408,-3.3248,-3.3308,-3.3513,-3.4018,-3.403,-3.4018,-3.4018,-3.3982,-3.3513,-3.2581,-3.3027,-3.3551,-3.4071,-3.5149,-3.6534,-3.8255,-3.797,-3.8913,-4.1062,-3.941,-3.9494,-0.3863,-0.4435,-0.5034,-0.6001,-0.6877,-0.7932,-0.9271,-1.0494,-1.1548,-1.2351,-1.3014,-1.364,-1.4478,-1.5278,-1.613,-1.672,-1.6848,-1.6775,-1.6775,-1.591,-1.5386,-1.5319,-1.6447,-1.7116,-1.7038,-1.859,-1.9732,-1.982,-2.0202,-2.0456,-2.0456,-2.0456,-2.0829,-2.1699,-2.1825,-2.2201,-2.3076,-2.3076,-2.3325,-2.3822,-2.4695,-2.5823,-2.7064,-2.667,-2.6285,-2.5917,-2.554,-2.5163,-2.4821,-2.4821,-2.4923,-2.5348,-2.6082,-2.6509,-2.6943,-2.8009,-2.885,-2.988,-3.1603,-3.2387,-3.2689,-3.278,-3.2879,-3.2914,-3.2386,-3.2489,-3.2695,-3.234,-3.2615,-3.3017,-3.3017,-3.2803,-3.256,-3.2921,-3.203,-3.1101,-3.1471,-3.1285,-3.0915,-3.079,-3.1157,-3.1456,-3.126,-3.1331,-3.1321,-3.0894,-3.0924,-3.1121,-3.1364,-3.1478,-3.1872,-3.2707,-3.2767,-3.2984,-3.3501,-3.3549,-3.3681,-3.4018,-3.4042,-3.3885,-3.3537,-3.3693,-3.4324,-3.5422,-3.5396,-3.6538,-3.8796,-3.8336,-3.853,-3.927,-3.8068,-3.7939,-0.2191,-0.2661,-0.3143,-0.4121,-0.5137,-0.6204,-0.7548,-0.9046,-1.029,-1.1056,-1.1603,-1.2243,-1.3028,-1.386,-1.4692,-1.5205,-1.529,-1.5192,-1.5268,-1.4464,-1.3834,-1.3674,-1.4794,-1.5418,-1.5538,-1.6551,-1.7797,-1.9066,-1.8988,-1.8976,-1.9066,-1.9078,-1.945,-2.0202,-2.0329,-2.0696,-2.1308,-2.1447,-2.1699,-2.2062,-2.3442,-2.4695,-2.5439,-2.5819,-2.5686,-2.5211,-2.5439,-2.5283,-2.4821,-2.4821,-2.4821,-2.4821,-2.5459,-2.567,-2.5771,-2.6626,-2.7159,-2.7892,-3.0628,-3.1575,-3.1586,-3.2857,-3.3069,-3.2678,-3.2769,-3.3005,-3.3212,-3.2868,-3.3017,-3.3281,-3.3281,-3.2989,-3.2821,-3.2978,-3.2265,-3.1593,-3.1757,-3.17,-3.149,-3.1318,-3.1685,-3.1961,-3.1777,-3.1754,-3.1651,-3.1329,-3.1368,-3.1384,-3.1187,-3.1217,-3.1526,-3.2166,-3.2202,-3.2418,-3.2959,-3.3008,-3.3224,-3.3741,-3.3765,-3.3849,-3.403,-3.4042,-3.4499,-3.5593,-3.5916,-3.6704,-3.7967,-3.8025,-3.8003,-3.8088,-3.6809,-3.6582,-0.0936,-0.1956,-0.2821,-0.3026,-0.3984,-0.5039,-0.6147,-0.7531,-0.9112,-1.0482,-1.1241,-1.167,-1.1976,-1.2441,-1.273,-1.2777,-1.3117,-1.3393,-1.3586,-1.3336,-1.3188,-1.3493,-1.343,-1.3563,-1.3961,-1.408,-1.544,-1.853,-1.8704,-1.8668,-1.8932,-1.8944,-1.895,-1.8571,-1.8822,-1.8688,-1.8033,-1.8437,-1.906,-2.0036,-2.1685,-2.2445,-2.257,-2.4178,-2.4545,-2.3897,-2.5202,-2.5383,-2.4821,-2.4821,-2.4821,-2.4821,-2.4821,-2.4821,-2.4923,-2.5771,-2.5972,-2.6409,-2.9157,-2.9786,-2.9797,-3.2331,-3.242,-3.179,-3.2857,-3.3281,-3.3281,-3.3281,-3.3281,-3.3281,-3.3281,-3.3281,-3.3135,-3.2664,-3.2476,-3.2402,-3.1962,-3.222,-3.2351,-3.1892,-3.2202,-3.2374,-3.1926,-3.1846,-3.1834,-3.1907,-3.2074,-3.1891,-3.1184,-3.1199,-3.1431,-3.1709,-3.1685,-3.1877,-3.2406,-3.2454,-3.2683,-3.3224,-3.3248,-3.3477,-3.3982,-3.4006,-3.4234,-3.4824,-3.6495,-3.7019,-3.6225,-3.7017,-3.7419,-3.7463,-3.5631,-3.5409,0.1275,0.07,0.0,-0.1641,-0.2271,-0.2997,-0.4928,-0.5656,-0.6275,-0.7449,-0.8014,-0.8418,-0.8944,-0.9994,-1.0899,-1.175,-1.1773,-1.1815,-1.2119,-1.1199,-1.0654,-1.0767,-1.1556,-1.22,-1.233,-1.3117,-1.401,-1.512,-1.6238,-1.6859,-1.6711,-1.777,-1.8296,-1.8168,-1.8296,-1.8168,-1.8033,-1.8039,-1.8792,-2.0036,-2.0417,-2.1168,-2.2159,-2.2675,-2.3195,-2.3504,-2.3977,-2.4325,-2.4821,-2.4821,-2.4821,-2.4821,-2.4821,-2.4821,-2.4821,-2.5034,-2.5136,-2.5348,-2.714,-2.8106,-2.8754,-3.0016,-3.0845,-3.1359,-3.1891,-3.2645,-3.3281,-3.3281,-3.3281,-3.3281,-3.3281,-3.3281,-3.3269,-3.3124,-3.2822,-3.2431,-3.2397,-3.2443,-3.2443,-3.2328,-3.273,-3.304,-3.2914,-3.2891,-3.2863,-3.2653,-3.2788,-3.2758,-3.2183,-3.1943,-3.1991,-3.2286,-3.1913,-3.1721,-3.1865,-3.1877,-3.2118,-3.2671,-3.2695,-3.2935,-3.3464,-3.3477,-3.3991,-3.5011,-3.5558,-3.6165,-3.689,-3.7174,-3.678,-3.5844,-3.5989,-3.5331,0.329,0.233,0.1328,0.0102,-0.0927,-0.1956,-0.321,-0.4175,-0.4934,-0.5259,-0.6059,-0.6725,-0.6927,-0.7962,-0.894,-0.9605,-0.9799,-0.9965,-1.0178,-0.961,-0.9243,-0.9171,-0.9874,-1.0406,-1.0474,-1.1041,-1.1568,-1.1724,-1.3784,-1.4923,-1.5005,-1.6328,-1.6985,-1.6856,-1.7641,-1.791,-1.7781,-1.7653,-1.7893,-1.8646,-1.878,-1.9285,-2.0024,-2.0742,-2.1296,-2.1575,-2.2214,-2.2712,-2.3095,-2.3784,-2.4016,-2.4016,-2.459,-2.4821,-2.4821,-2.4821,-2.4821,-2.4923,-2.5661,-2.6309,-2.6943,-2.8724,-2.9462,-2.9786,-3.0421,-3.1176,-3.1913,-3.2432,-3.2533,-3.2533,-3.2533,-3.2958,-3.317,-3.2645,-3.273,-3.2833,-3.2833,-3.2833,-3.2833,-3.2833,-3.3074,-3.3281,-3.3281,-3.3453,-3.36,-3.3586,-3.3948,-3.4111,-3.3764,-3.3042,-3.2644,-3.2851,-3.2563,-3.2286,-3.2058,-3.2034,-3.2058,-3.213,-3.213,-3.2382,-3.2923,-3.2947,-3.3399,-3.4429,-3.4768,-3.5331,-3.6122,-3.6434,-3.5985,-3.4855,-3.5331,-3.4738,0.4818,0.3471,0.1955,0.183,0.0308,-0.1231,-0.1359,-0.2956,-0.4272,-0.3728,-0.4978,-0.5971,-0.5478,-0.6342,-0.7113,-0.7296,-0.7835,-0.8122,-0.806,-0.8122,-0.8304,-0.8183,-0.827,-0.8413,-0.8841,-0.883,-0.8873,-0.8975,-1.1348,-1.3009,-1.343,-1.4754,-1.5414,-1.5284,-1.6856,-1.7518,-1.74,-1.7136,-1.7001,-1.7001,-1.7271,-1.74,-1.7518,-1.8734,-1.9198,-1.9063,-2.0392,-2.08,-2.0802,-2.2176,-2.2749,-2.2862,-2.3896,-2.4359,-2.459,-2.459,-2.4701,-2.4821,-2.4821,-2.4821,-2.5247,-2.7659,-2.8087,-2.7892,-2.8946,-2.9493,-3.0026,-3.1062,-3.137,-3.1381,-3.1446,-3.2205,-3.2757,-3.1965,-3.2407,-3.3039,-3.3295,-3.3327,-3.3281,-3.3281,-3.3281,-3.3304,-3.3373,-3.3717,-3.4129,-3.4493,-3.5184,-3.5518,-3.5372,-3.4318,-3.3464,-3.3392,-3.3332,-3.3104,-3.2647,-3.2539,-3.2298,-3.1805,-3.1709,-3.1889,-3.237,-3.2394,-3.278,-3.3411,-3.4048,-3.4564,-3.4933,-3.5356,-3.5278,-3.4716,-3.4634,-3.4089,0.5203,0.4633,0.4053,0.3307,0.2097,0.0839,-0.01,-0.1419,-0.2717,-0.3395,-0.4127,-0.4667,-0.4916,-0.5574,-0.624,-0.6991,-0.7485,-0.7497,-0.6582,-0.6653,-0.674,-0.6783,-0.6749,-0.7238,-0.856,-0.869,-0.8698,-0.8717,-0.9094,-1.0012,-1.1222,-1.2533,-1.3849,-1.4907,-1.5298,-1.5954,-1.7136,-1.7001,-1.7001,-1.7001,-1.7007,-1.7136,-1.712,-1.7183,-1.7802,-1.8691,-1.9011,-1.9802,-2.0795,-2.1252,-2.1472,-2.1472,-2.1699,-2.2394,-2.332,-2.332,-2.3896,-2.4821,-2.4821,-2.4821,-2.4923,-2.5652,-2.6391,-2.714,-2.7892,-2.8744,-2.9702,-3.013,-3.0235,-3.0318,-3.0579,-3.0789,-3.1307,-3.2444,-3.2105,-3.1891,-3.3538,-3.3568,-3.3281,-3.3281,-3.3281,-3.3407,-3.3809,-3.3947,-3.4347,-3.5278,-3.5521,-3.575,-3.6177,-3.5268,-3.439,-3.3958,-3.3537,-3.3248,-3.3164,-3.2755,-3.2466,-3.237,-3.1925,-3.1709,-3.1805,-3.1995,-3.222,-3.2582,-3.3623,-3.4546,-3.5453,-3.5518,-3.5888,-3.6452,-3.5722,-3.4931,0.5957,0.5291,0.4728,0.4282,0.3322,0.2172,0.106,-0.0096,-0.1235,-0.1884,-0.2929,-0.3743,-0.3741,-0.4345,-0.5063,-0.5548,-0.585,-0.5954,-0.5377,-0.5354,-0.5384,-0.5281,-0.529,-0.5546,-0.6309,-0.6976,-0.7514,-0.7514,-0.8184,-0.8851,-0.9513,-1.0962,-1.2405,-1.3722,-1.3853,-1.4507,-1.5954,-1.5954,-1.6219,-1.7001,-1.7001,-1.7001,-1.6985,-1.6648,-1.692,-1.7368,-1.7565,-1.7917,-1.8609,-1.9768,-2.0113,-2.0228,-2.0902,-2.1472,-2.2047,-2.2047,-2.2394,-2.2966,-2.3664,-2.3896,-2.4008,-2.4795,-2.5441,-2.6073,-2.6518,-2.7168,-2.7912,-2.8754,-2.8966,-2.9016,-2.9226,-2.9703,-3.025,-3.0704,-3.1238,-3.1785,-3.2328,-3.2619,-3.28,-3.3034,-3.309,-3.3375,-3.4268,-3.4624,-3.5086,-3.5864,-3.6226,-3.6507,-3.6752,-3.6374,-3.5749,-3.4944,-3.4643,-3.4282,-3.3729,-3.3452,-3.3188,-3.2923,-3.2659,-3.2473,-3.2273,-3.2362,-3.2494,-3.2562,-3.3031,-3.3888,-3.4967,-3.4996,-3.517,-3.5614,-3.5155,-3.4693,0.6845,0.6029,0.532,0.5218,0.4393,0.3352,0.2489,0.1184,0.009,-0.0241,-0.1725,-0.2841,-0.2664,-0.3291,-0.3956,-0.4161,-0.4409,-0.4488,-0.4098,-0.4003,-0.4054,-0.3911,-0.3812,-0.3953,-0.43,-0.5367,-0.5904,-0.5904,-0.7245,-0.8318,-0.8587,-0.9646,-1.0965,-1.2274,-1.2405,-1.3062,-1.4381,-1.4511,-1.5033,-1.6078,-1.6078,-1.6188,-1.6523,-1.5993,-1.6032,-1.621,-1.6378,-1.6425,-1.6655,-1.8169,-1.8868,-1.8978,-1.9998,-2.0444,-2.0673,-2.0673,-2.0902,-2.1244,-2.2281,-2.2628,-2.2749,-2.3664,-2.4454,-2.5229,-2.5569,-2.5798,-2.6227,-2.7492,-2.7814,-2.7833,-2.792,-2.869,-2.9256,-2.8833,-3.0319,-3.1699,-3.0946,-3.1346,-3.1995,-3.2681,-3.2609,-3.2931,-3.4374,-3.4819,-3.5329,-3.6084,-3.6351,-3.6696,-3.7148,-3.6972,-3.6613,-3.5881,-3.5689,-3.528,-3.4451,-3.4174,-3.3873,-3.3477,-3.3356,-3.3184,-3.3022,-3.2889,-3.2901,-3.2897,-3.2773,-3.3335,-3.4558,-3.4297,-3.4337,-3.4841,-3.4429,-3.4288,0.7662,0.7459,0.7153,0.6539,0.5507,0.4562,0.4404,0.2578,0.0807,0.0562,-0.0549,-0.1739,-0.2504,-0.2703,-0.3112,-0.4143,-0.4389,-0.4001,-0.2671,-0.2535,-0.2496,-0.2319,-0.2331,-0.2865,-0.4166,-0.4427,-0.4428,-0.4428,-0.577,-0.7245,-0.8587,-0.872,-0.938,-1.0833,-1.0833,-1.1622,-1.2931,-1.2927,-1.3058,-1.3189,-1.3189,-1.3761,-1.4757,-1.4518,-1.4933,-1.6089,-1.6073,-1.6312,-1.6537,-1.7015,-1.7367,-1.7713,-1.7824,-1.8519,-1.9435,-1.9435,-2.0113,-2.1123,-2.1244,-2.1244,-2.1244,-2.1358,-2.2966,-2.4923,-2.5467,-2.5688,-2.5907,-2.6573,-2.68,-2.6883,-2.7244,-2.7336,-2.7642,-2.8325,-2.9685,-3.0611,-2.9757,-3.0156,-3.1031,-3.2141,-3.1731,-3.1818,-3.3476,-3.3802,-3.4196,-3.5286,-3.5147,-3.5424,-3.6984,-3.632,-3.5888,-3.6285,-3.5905,-3.5581,-3.5485,-3.4595,-3.4018,-3.397,-3.3549,-3.3353,-3.3557,-3.3277,-3.3264,-3.3456,-3.3158,-3.3764,-3.5139,-3.3836,-3.4257,-3.6279,-3.4686,-3.4388,0.8488,0.8333,0.8119,0.7461,0.6888,0.6039,0.4568,0.3348,0.2085,0.1038,0.0,-0.0794,-0.1234,-0.1599,-0.1994,-0.2458,-0.243,-0.2187,-0.1682,-0.1565,-0.14,-0.1055,-0.1083,-0.1229,-0.1615,-0.2418,-0.3357,-0.4294,-0.5637,-0.6711,-0.7245,-0.8184,-0.8851,-0.938,-0.938,-1.0174,-1.1487,-1.1487,-1.2014,-1.2795,-1.2795,-1.2967,-1.3439,-1.3113,-1.3665,-1.4816,-1.4845,-1.5467,-1.6537,-1.6903,-1.7256,-1.7485,-1.7485,-1.783,-1.8175,-1.8175,-1.8512,-1.908,-1.9768,-1.9998,-2.0113,-2.0902,-2.182,-2.2846,-2.4214,-2.5119,-2.5798,-2.6473,-2.6591,-2.6628,-2.6784,-2.7004,-2.726,-2.7581,-2.8598,-2.9322,-2.8558,-2.8969,-2.9707,-3.0513,-3.0388,-3.067,-3.2064,-3.2314,-3.2585,-3.3421,-3.341,-3.3623,-3.4687,-3.4464,-3.4615,-3.5794,-3.6264,-3.6435,-3.6122,-3.5701,-3.5328,-3.5004,-3.51,-3.4824,-3.4153,-3.4401,-3.4311,-3.3489,-3.3909,-3.4193,-3.4419,-3.4195,-3.4542,-3.537,-3.4679,-3.4855,0.9033,0.9153,0.9026,0.8092,0.7566,0.6868,0.4829,0.3735,0.2792,0.1604,0.0634,0.0,0.0,-0.0594,-0.1032,-0.107,-0.114,-0.1208,-0.1158,-0.1036,-0.086,-0.0502,-0.0519,-0.053,-0.0132,-0.0935,-0.2147,-0.3604,-0.4535,-0.5459,-0.6364,-0.7318,-0.8148,-0.8587,-0.8587,-0.9117,-1.0041,-1.0041,-1.0568,-1.1615,-1.1567,-1.1594,-1.1818,-1.1641,-1.2213,-1.3377,-1.3356,-1.4138,-1.5213,-1.5575,-1.5935,-1.6284,-1.6762,-1.6885,-1.7003,-1.7361,-1.7485,-1.7596,-1.8519,-1.8752,-1.8861,-1.9768,-2.0336,-2.0795,-2.2281,-2.3648,-2.4778,-2.567,-2.6245,-2.6591,-2.6591,-2.6793,-2.7031,-2.715,-2.7732,-2.8072,-2.7724,-2.8023,-2.8593,-2.9443,-2.9308,-2.9458,-3.0802,-3.0931,-3.1059,-3.1485,-3.1713,-3.2038,-3.2899,-3.2911,-3.3441,-3.486,-3.5802,-3.6449,-3.6573,-3.6495,-3.6242,-3.5869,-3.6307,-3.6106,-3.5283,-3.5657,-3.5474,-3.4413,-3.4728,-3.4705,-3.4336,-3.4615,-3.4781,-3.4914,-3.4948,-3.5432,0.9441,0.9854,0.9871,0.821,0.7356,0.6672,0.5588,0.3869,0.2586,0.2367,0.1462,0.0741,0.0775,0.0174,-0.035,-0.0357,-0.1056,-0.1525,-0.114,-0.1232,-0.1179,-0.0826,-0.0838,-0.0734,-0.0378,-0.0131,-0.0669,-0.1977,-0.2106,-0.3398,-0.6178,-0.6389,-0.7142,-0.8584,-0.8587,-0.8587,-0.8587,-0.8587,-0.8587,-0.8584,-0.8473,-0.9127,-1.0256,-1.0103,-1.0685,-1.1736,-1.1732,-1.1972,-1.2213,-1.2577,-1.2937,-1.3421,-1.4976,-1.5569,-1.5811,-1.7003,-1.7485,-1.7485,-1.7479,-1.7479,-1.7479,-1.7485,-1.8402,-1.9325,-1.9781,-2.0931,-2.241,-2.3958,-2.5432,-2.6591,-2.6591,-2.6591,-2.6692,-2.7086,-2.6875,-2.6701,-2.7095,-2.7178,-2.7725,-2.9342,-2.8653,-2.8331,-2.9964,-2.9917,-2.9744,-2.9947,-3.0299,-3.1079,-3.247,-3.2222,-3.2385,-3.3464,-3.4141,-3.523,-3.7008,-3.6711,-3.6411,-3.6398,-3.6614,-3.6917,-3.7206,-3.6908,-3.6634,-3.6345,-3.5767,-3.5506,-3.5493,-3.4978,-3.4984,-3.5537,-3.55,-3.6013,0.928,0.9453,0.9276,0.7719,0.7042,0.6349,0.4576,0.3663,0.2947,0.2604,0.1868,0.14,0.1379,0.0434,-0.0351,-0.0364,-0.103,-0.1549,-0.1418,-0.154,-0.1513,-0.1177,-0.0983,-0.0764,-0.0519,-0.0392,-0.0392,-0.065,-0.1557,-0.2458,-0.3346,-0.5295,-0.7038,-0.8467,-0.8546,-0.8587,-0.8587,-0.8587,-0.8587,-0.8587,-0.8473,-0.8612,-0.8863,-0.8731,-0.9335,-1.0407,-1.0407,-1.1129,-1.2213,-1.2577,-1.2937,-1.3301,-1.4023,-1.4262,-1.45,-1.5693,-1.6166,-1.629,-1.7244,-1.7485,-1.7485,-1.7485,-1.7713,-1.8058,-1.8175,-2.0012,-2.2297,-2.3191,-2.4326,-2.5348,-2.5348,-2.6017,-2.6619,-2.6747,-2.6683,-2.6692,-2.7086,-2.7178,-2.74,-2.8239,-2.7874,-2.7602,-2.8436,-2.8174,-2.8108,-2.8718,-2.9103,-2.9551,-3.0097,-3.0328,-3.0964,-3.2353,-3.2633,-3.3458,-3.5196,-3.517,-3.5256,-3.5969,-3.6391,-3.6808,-3.7255,-3.7717,-3.7519,-3.6678,-3.6666,-3.6468,-3.613,-3.5975,-3.5987,-3.6379,-3.695,-3.7539,0.8937,0.9013,0.869,0.7416,0.6575,0.565,0.4031,0.3335,0.2901,0.2707,0.2305,0.2087,0.2182,0.1231,0.0355,0.0091,-0.0653,-0.1253,-0.1623,-0.1743,-0.172,-0.1515,-0.1221,-0.0884,-0.0637,-0.0386,-0.0258,0.0,-0.0767,-0.153,-0.2029,-0.369,-0.5379,-0.6724,-0.7911,-0.8524,-0.8524,-0.8565,-0.8587,-0.8587,-0.8426,-0.831,-0.8228,-0.8062,-0.8433,-0.9079,-0.9079,-0.9684,0.0,-1.1137,-1.1378,-1.1623,-1.2586,-1.2951,-1.3066,-1.4381,-1.4857,-1.4976,-1.5811,-1.6048,-1.6048,-1.6048,-1.6408,-1.6885,-1.7596,-1.955,-2.1494,-2.2184,-2.3207,-2.4103,-2.4103,-2.4667,-2.5229,-2.5229,-2.5229,-2.541,-2.61,-2.6381,-2.6821,-2.7682,-2.7563,-2.7526,-2.793,-2.7664,-2.7593,-2.8078,-2.8577,-2.9013,-2.9372,-2.9734,-3.0497,-3.1428,-3.1562,-3.1943,-3.2713,-3.3609,-3.4394,-3.4751,-3.5837,-3.6708,-3.6916,-3.8234,-3.85,-3.7599,-3.7776,-3.7513,-3.6747,-3.6483,-3.666,-3.7051,-3.7488,-3.7964,0.0,0.8426,0.7994,0.7192,0.5926,0.4725,0.3793,0.3041,0.0,0.2668,0.2692,0.2729,0.2852,0.2334,0.1526,0.0809,0.0,-0.0795,-0.1446,-0.1633,-0.17,-0.1847,-0.1306,-0.0966,-0.0965,-0.0377,0.0,0.0,0.0,-0.0501,-0.1851,-0.1998,-0.2641,-0.3896,-0.6588,-0.8133,-0.8272,-0.8527,-0.8584,-0.8573,-0.8342,-0.8236,-0.8225,-0.7981,-0.7872,-0.7872,-0.7872,-0.7872,-0.7991,-0.8607,-0.8854,-0.9098,-1.091,-1.1511,-1.1752,-1.3066,-1.3545,-1.3545,-1.3665,-1.3665,-1.3665,-1.3665,-1.45,-1.5811,-1.759,-1.9094,-2.0228,-2.0823,-2.1964,-2.2869,-2.2869,-2.2982,-2.2974,-2.2974,-2.2974,-2.3328,-2.4504,-2.4991,-2.5787,-2.7368,-2.7642,-2.7733,-2.8278,-2.8022,-2.7879,-2.8115,-2.8812,-2.9431,-2.9767,-3.0383,-3.0889,-3.0889,-3.0889,-3.0693,-3.0195,-3.2263,-3.3399,-3.3134,-3.5118,-3.625,-3.6355,-3.8435,-3.9406,-3.896,-3.8894,-3.8328,-3.7167,-3.6684,-3.6849,-3.761,-3.7335,-3.7642,0.7663,0.0,0.6512,0.5699,0.4776,0.3861,0.0,0.262,0.2545,0.2668,0.2692,0.2729,0.2852,0.2334,0.1533,0.0824,0.0094,-0.0489,-0.0515,-0.0666,-0.106,-0.1817,-0.1835,-0.1467,-0.0966,-0.0862,-0.0499,0.0,0.0,-0.0124,-0.0494,-0.1485,-0.2107,-0.2478,-0.4159,-0.5625,-0.6721,-0.7951,-0.8543,-0.8456,-0.8307,-0.8236,-0.8225,-0.7981,-0.7872,-0.7872,-0.7872,-0.7872,-0.7991,-0.8607,-0.8854,-0.8976,-0.994,-1.0304,-1.0425,-1.1748,-1.223,-1.235,-1.3306,-1.3665,-1.3665,-1.3665,-1.3904,-1.4381,-1.5203,-1.7097,-1.8991,-1.9584,-2.0723,-2.1623,-2.1623,-2.2305,-2.2974,-2.2974,-2.2974,-2.3238,-2.3989,-2.408,-2.4589,-2.6408,-2.631,-2.639,-2.7724,-2.8057,-2.8115,-2.8219,-2.9297,-3.0006,-2.9815,-3.0383,-3.0889,-3.0889,-3.0889,-3.0576,-2.9785,-3.0555,-3.1431,-3.2362,-3.3721,-3.5051,-3.6326,-3.7703,-3.8605,-3.8935,-3.8429,-3.7909,-3.7224,-3.6824,-3.6798,-3.7245,-3.7822,-3.8311,0.6454,0.6061,0.5565,0.5167,0.4141,0.3114,0.2633,0.253,0.2537,0.2631,0.2673,0.2721,0.2815,0.2627,0.2124,0.1387,0.097,0.0512,-0.0216,-0.068,-0.1297,-0.1827,-0.1822,-0.1576,-0.0975,-0.086,-0.0617,0.0,0.0,0.0,0.0,-0.0741,-0.1111,-0.1111,-0.2391,-0.4197,-0.6235,-0.7156,-0.7867,-0.8331,-0.8209,-0.8152,-0.8147,-0.7956,-0.7872,-0.7872,-0.7872,-0.7872,-0.7991,-0.8607,-0.8854,-0.8976,-0.9579,-0.9822,-0.994,-1.0547,-1.0785,-1.0906,-1.1627,-1.1864,-1.1985,-1.2586,-1.2831,-1.3066,-1.4247,-1.5913,-1.7701,-1.8292,-1.9455,-2.0385,-2.0385,-2.0838,-2.1402,-2.1402,-2.1402,-2.165,-2.2726,-2.2805,-2.341,-2.5712,-2.5857,-2.6109,-2.7605,-2.815,-2.8499,-2.8728,-2.9621,-3.0422,-3.0325,-3.0626,-3.081,-3.0596,-3.0576,-3.0225,-2.9346,-2.9603,-3.0098,-3.0591,-3.2008,-3.3485,-3.5055,-3.6533,-3.7616,-3.8427,-3.7902,-3.7472,-3.7186,-3.6906,-3.6955,-3.7518,-3.7852,-3.8288,0.5182,0.4986,0.4925,0.4874,0.3741,0.2613,0.2604,0.0,0.0,0.0,0.0,0.2717,0.2796,0.2933,0.2836,0.2058,0.2122,0.1634,0.0,-0.0811,-0.1407,-0.1679,-0.1551,-0.1317,-0.0979,-0.0739,-0.037,0.0,0.0,0.0,0.0,0.0,0.0,0.0,-0.1137,-0.2922,-0.5388,-0.5876,-0.6571,-0.7589,-0.7476,-0.7549,-0.7546,-0.7554,-0.7625,-0.7625,-0.7869,-0.7872,-0.7994,-0.861,-0.8976,-0.8976,-0.9579,-0.9822,-0.9822,-0.9822,-0.9822,-0.9822,-0.9822,-0.9822,-0.994,-1.1027,-1.139,-1.1748,-1.3531,-1.496,-1.6149,-1.6744,-1.8169,-1.9366,-1.9366,-1.9366,-1.9366,-1.9366,-1.9366,-1.9788,-2.1007,-2.1379,-2.2124,-2.4671,-2.54,-2.5941,-2.7223,-2.8186,-2.8819,-2.9098,-2.9853,-3.05,-3.0693,-3.0693,-3.0537,-3.0137,-3.0098,-2.9775,-2.8984,-2.9164,-2.9203,-2.8757,-3.0506,-3.2257,-3.3696,-3.5539,-3.6959,-3.7877,-3.7425,-3.7186,-3.7283,-3.6906,-3.7164,-3.7946,-3.7645,-3.795,0.5127,0.4639,0.4179,0.4028,0.3376,0.2665,0.2613,0.2594,0.259,0.0,0.265,0.2741,0.2902,0.2954,0.2814,0.2128,0.2284,0.1995,0.1048,0.072,0.0242,-0.0593,-0.1329,-0.1703,-0.0952,-0.0973,-0.0617,0.0,0.0,0.0,0.0,0.0,0.0,0.0,-0.0248,-0.1117,-0.2597,-0.3982,-0.4686,-0.4759,-0.469,-0.4655,-0.4779,-0.5698,-0.6151,-0.6274,-0.738,-0.8119,-0.8366,-0.8732,-0.8976,-0.9217,-0.97,-0.9822,-0.9822,-0.9822,-0.9822,-0.9822,-0.9822,-0.9822,-0.9819,-1.0061,-1.0304,-1.0668,-1.1265,-1.2462,-1.3775,-1.4138,-1.675,-1.9366,-1.9366,-1.9366,-1.9366,-1.9366,-1.9366,-1.9562,-1.9969,-1.9951,-2.0199,-2.1891,-2.2874,-2.3924,-2.536,-2.7334,-2.8643,-2.8636,-2.9579,-3.0166,-2.9824,-2.9775,-2.9746,-2.9678,-2.9668,-2.9463,-2.8965,-2.9164,-2.9311,-2.9056,-3.0422,-3.2285,-3.4492,-3.621,-3.7105,-3.7312,-3.7224,-3.7283,-3.7584,-3.7202,-3.7253,-3.7542,-3.7755,-3.7939,0.3636,0.3455,0.3236,0.3169,0.3018,0.2926,0.2898,0.2867,0.2826,0.2762,0.2796,0.2861,0.2943,0.3065,0.3136,0.3051,0.2653,0.2248,0.1989,0.0939,0.0117,-0.0353,-0.1194,-0.1447,-0.0967,-0.0857,-0.0494,0.0,0.0,0.0,0.0,0.0,0.0,0.0,0.0,-0.0253,-0.0885,-0.1675,-0.2701,-0.4021,-0.3992,-0.4352,-0.5096,-0.4937,-0.5657,-0.7011,-0.7008,-0.7625,-0.8491,-0.8976,-0.9217,-0.9335,-0.97,-0.9822,-0.9822,-0.9822,-0.9822,-0.9822,-0.9822,-0.9822,-0.9822,-0.9822,-0.9943,-1.0183,-1.0668,-1.1744,-1.3062,-1.3545,-1.5919,-1.8409,-1.8409,-1.8887,-1.9366,-1.9366,-1.9366,-1.9446,-1.974,-1.9573,-1.9795,-2.1358,-2.1955,-2.2628,-2.3966,-2.5553,-2.6668,-2.661,-2.74,-2.8044,-2.855,-2.8643,-2.8792,-2.9128,-2.9219,-2.9162,-2.8839,-2.9025,-2.9256,-2.9353,-3.1176,-3.2789,-3.3895,-3.5805,-3.6734,-3.6734,-3.6734,-3.6925,-3.7115,-3.7143,-3.7214,-3.7505,-3.7808,-3.8241,0.226,0.2335,0.2596,0.2569,0.2769,0.3057,0.3142,0.3091,0.3015,0.2967,0.3003,0.3044,0.3044,0.3218,0.3462,0.3768,0.3247,0.2756,0.2857,0.1285,0.0,-0.0119,-0.0834,-0.1323,-0.0986,-0.0741,-0.037,0.0,0.0,0.0,0.0,0.0,0.0,0.0,0.0,0.0,0.0,0.0,-0.102,-0.2986,-0.2976,-0.3581,-0.4553,-0.3816,-0.4797,-0.6886,-0.6514,-0.7253,-0.8613,-0.9095,-0.9335,-0.9457,-0.97,-0.9822,-0.9822,-0.9822,-0.9822,-0.9822,-0.9822,-0.9822,-0.9822,-0.9822,-0.9822,-1.0061,-1.0668,-1.1507,-1.2462,-1.3071,-1.4852,-1.6744,-1.7331,-1.8169,-1.901,-1.9366,-1.9366,-1.9446,-1.974,-1.9573,-1.9795,-2.0897,-2.1386,-2.1957,-2.2974,-2.4177,-2.4994,-2.5108,-2.5643,-2.6416,-2.7477,-2.7664,-2.7986,-2.8719,-2.8867,-2.8977,-2.8874,-2.9142,-2.9343,-2.9659,-3.1891,-3.3201,-3.3201,-3.5271,-3.6358,-3.6358,-3.6452,-3.6546,-3.6815,-3.7015,-3.7371,-3.7792,-3.799,-3.8582,0.1952,0.2227,0.2524,0.2588,0.2624,0.2812,0.3147,0.309,0.3011,0.3172,0.3253,0.3296,0.3296,0.3398,0.3529,0.3669,0.3728,0.3697,0.3866,0.2227,0.0858,0.086,-0.0492,-0.1355,-0.0988,-0.0741,-0.037,0.0,0.0,0.0,0.0,0.0,0.0,0.0,0.0,0.0,0.0,0.0,-0.0129,-0.0257,-0.0254,-0.0375,-0.0494,-0.1603,-0.2833,-0.4304,-0.5778,-0.7375,-0.8854,-0.9217,-0.9457,-0.9822,-0.9822,-0.9822,-0.9822,-0.9822,-0.9822,-0.9822,-0.9822,-0.9822,-0.9822,-0.9822,-1.0065,-1.0304,-1.0668,-1.1031,-1.1514,-1.1893,-1.296,-1.4495,-1.6862,-1.7572,-1.7929,-1.9127,-1.9366,-1.9446,-1.974,-1.9573,-1.9452,-1.9858,-2.0815,-2.1737,-2.207,-2.3723,-2.5108,-2.5326,-2.5634,-2.6197,-2.7112,-2.7499,-2.7763,-2.831,-2.8928,-2.9419,-2.9489,-2.9554,-2.9659,-2.9994,-3.2004,-3.3201,-3.3201,-3.5271,-3.6358,-3.6358,-3.6534,-3.6815,-3.7108,-3.7307,-3.7857,-3.8645,-3.8645,-3.8972,0.1832,0.2291,0.2701,0.2548,0.2723,0.0,0.0,0.329,0.326,0.333,0.342,0.3476,0.3437,0.359,0.3725,0.3733,0.3818,0.3905,0.3973,0.2228,0.1109,0.1233,-0.0123,-0.1111,-0.0741,-0.037,-0.0123,0.0,0.0,0.0,0.0,0.0,0.0,0.0,0.0,0.0,0.0,0.0,0.0,0.0,0.0,-0.0377,-0.125,-0.1115,-0.2218,-0.4306,-0.5287,-0.6147,-0.6884,-0.8842,-0.9207,-0.8714,-0.9451,-0.9822,-0.9822,-0.9822,-0.9822,-0.9822,-0.9822,-0.9822,-0.9822,-0.9822,-1.0061,-1.0447,-1.0793,-1.1191,-1.1436,-1.1808,-1.2293,-1.2986,-1.465,-1.6267,-1.7572,-1.8052,-1.8765,-1.9399,-1.9506,-1.9446,-1.9515,-1.9733,-2.0347,-2.0831,-2.1174,-2.1964,-2.2627,-2.2741,-2.3029,-2.3657,-2.4767,-2.5872,-2.682,-2.7409,-2.8476,-2.9323,-2.9574,-2.9774,-2.9879,-2.9994,-3.1993,-3.3201,-3.3201,-3.5271,-3.6358,-3.6358,-3.6628,-3.6993,-3.7659,-3.758,-3.8078,-3.9259,-3.888,-3.9396,0.1832,0.2275,0.2682,0.256,0.0,0.0,0.3326,0.3383,0.3392,0.3526,0.3602,0.3632,0.359,0.3719,0.3824,0.3801,0.3884,0.3833,0.3478,0.2102,0.0986,0.0986,-0.0123,-0.0866,-0.0497,-0.0248,0.0,0.0,0.0,0.0,0.0,0.0,0.0,0.0,0.0,0.0,0.0,0.0,0.0,0.0,0.0,-0.0509,-0.1512,-0.0874,-0.1734,-0.3939,-0.4553,-0.5044,-0.5533,-0.7736,-0.8102,-0.7368,-0.8714,-0.9207,-0.9207,-0.9697,-0.9822,-0.9822,-0.9822,-0.9822,-0.9829,-0.9876,-1.0138,-1.0533,-1.1072,-1.137,-1.1619,-1.1993,-1.2117,-1.2209,-1.3057,-1.4771,-1.6623,-1.7457,-1.8301,-1.9044,-1.9502,-1.9499,-1.9508,-1.9945,-2.0109,-2.0385,-2.0601,-2.1054,-2.1364,-2.1364,-2.2067,-2.2958,-2.3868,-2.5724,-2.724,-2.823,-2.9144,-2.9708,-2.9894,-3.0106,-3.0212,-3.0212,-3.2093,-3.3201,-3.3201,-3.5429,-3.6621,-3.6621,-3.7153,-3.7636,-3.8236,-3.8243,-3.873,-3.9847,-3.9442,-3.9961,0.1887,0.2115,0.2394,0.2553,0.2694,0.2898,0.3316,0.3319,0.3352,0.3773,0.3811,0.3768,0.3768,0.377,0.3789,0.3849,0.3912,0.36,0.2771,0.1743,0.074,0.0123,-0.0617,-0.087,-0.0505,-0.0249,0.0,0.0,0.0,0.0,0.0,0.0,0.0,0.0,0.0,0.0,0.0,0.0,0.0,0.0,0.0,-0.013,-0.0505,-0.0505,-0.1376,-0.2956,-0.3326,-0.4185,-0.5412,-0.5776,-0.5896,-0.6018,-0.7365,-0.7856,-0.8102,-0.9329,-0.9822,-0.9822,-0.9822,-0.9822,-0.9846,-1.0002,-1.0298,-1.0703,-1.1121,-1.1549,-1.1929,-1.2182,-1.2308,-1.2308,-1.2308,-1.3034,-1.4592,-1.7247,-1.7733,-1.8172,-1.9797,-1.978,-1.9569,-2.0205,-2.0254,-2.0392,-2.0608,-2.1235,-2.1701,-2.1701,-2.3407,-2.476,-2.5176,-2.7347,-2.947,-3.0927,-3.0934,-3.0826,-3.0729,-3.0698,-3.0688,-3.0688,-3.2281,-3.3212,-3.3212,-3.5795,-3.7186,-3.7199,-3.8311,-3.8787,-3.8787,-3.931,-3.9886,-4.0422,-4.0409,-4.0736,0.2074,0.248,0.2782,0.2755,0.2906,0.3194,0.332,0.3353,0.3441,0.3736,0.3713,0.3642,0.3642,0.3747,0.3811,0.3744,0.3888,0.389,0.3655,0.2155,0.1018,0.1018,-0.0127,-0.0889,-0.0506,-0.0252,0.0,0.0,0.0,0.0,0.0,0.0,0.0,0.0,0.0,0.0,0.0,0.0,0.0,0.0,0.0,0.0,-0.0128,-0.0635,-0.1127,-0.1727,-0.3079,-0.3449,-0.3083,-0.4062,-0.504,-0.5896,-0.6388,-0.7121,-0.798,-0.8349,-0.9083,-0.9822,-0.9822,-0.989,-0.9988,-1.0284,-1.0749,-1.1251,-1.1667,-1.2102,-1.2359,-1.2487,-1.2487,-1.2458,-1.2341,-1.2606,-1.3627,-1.6194,-1.7393,-1.8349,-1.9707,-2.003,-2.0103,-2.0322,-2.0625,-2.1059,-2.1307,-2.1818,-2.2037,-2.2037,-2.2728,-2.4065,-2.6482,-2.7975,-2.9498,-3.1236,-3.1166,-3.096,-3.1184,-3.1174,-3.1343,-3.1825,-3.3003,-3.3889,-3.4222,-3.6173,-3.7472,-3.8057,-3.8515,-3.9077,-3.9685,-3.9602,-4.0109,-4.1036,-4.0618,-4.0736,0.24,0.2717,0.3022,0.3047,0.3124,0.3311,0.3406,0.3474,0.3559,0.3703,0.3694,0.3664,0.3679,0.3759,0.3816,0.379,0.3907,0.3645,0.2935,0.1799,0.0772,0.0384,-0.0514,-0.0898,-0.0506,-0.0254,0.0,0.0,0.0,0.0,0.0,0.0,0.0,0.0,0.0,0.0,0.0,0.0,0.0,0.0,0.0,0.0,0.0,-0.0641,-0.1134,-0.1235,-0.2589,-0.2714,-0.2099,-0.2836,-0.3571,-0.443,-0.4918,-0.5651,-0.6388,-0.749,-0.8349,-0.9083,-0.9576,-0.988,-0.9978,-1.0475,-1.0962,-1.1464,-1.1949,-1.2409,-1.2674,-1.2674,-1.2674,-1.2645,-1.2544,-1.2976,-1.4028,-1.5956,-1.7027,-1.7996,-1.9817,-2.0199,-2.033,-2.0494,-2.0833,-2.132,-2.1693,-2.2067,-2.2359,-2.2359,-2.3338,-2.5245,-2.8628,-2.9389,-3.0244,-3.1706,-3.1707,-3.1593,-3.1661,-3.206,-3.2468,-3.2896,-3.4153,-3.5187,-3.5992,-3.6983,-3.7874,-3.8751,-3.9265,-3.9831,-4.0378,-4.035,-4.0644,-4.1311,-4.0945,-4.0971,0.2868,0.3016,0.3112,0.3355,0.3341,0.3424,0.3538,0.363,0.367,0.367,0.3714,0.3763,0.3797,0.3775,0.3671,0.3899,0.3812,0.3003,0.13,0.0909,0.0257,-0.1271,-0.1156,-0.0901,-0.0634,-0.0257,0.0,0.0,0.0,0.0,0.0,0.0,0.0,0.0,0.0,0.0,0.0,0.0,0.0,0.0,0.0,0.0,0.0,-0.0649,-0.1143,-0.1606,-0.1853,-0.1977,-0.1977,-0.1977,-0.1977,-0.2099,-0.3326,-0.3815,-0.4182,-0.6754,-0.7734,-0.8102,-0.9329,-0.9839,-0.991,-1.0692,-1.106,-1.152,-1.2084,-1.2572,-1.2836,-1.2836,-1.2836,-1.2836,-1.2836,-1.3875,-1.5245,-1.644,-1.6756,-1.7371,-2.0133,-2.0436,-2.0385,-2.0607,-2.0982,-2.137,-2.1774,-2.2271,-2.2667,-2.2789,-2.5052,-2.7785,-3.0791,-3.1197,-3.1448,-3.2207,-3.2602,-3.2561,-3.2249,-3.3286,-3.3901,-3.4075,-3.5538,-3.697,-3.7947,-3.8101,-3.8466,-3.936,-4.0146,-4.0593,-4.0984,-4.1298,-4.1398,-4.1398,-4.1498,-4.1597,0.2706,0.292,0.309,0.3244,0.3404,0.3525,0.3575,0.3598,0.3606,0.3606,0.3617,0.3628,0.3636,0.3063,0.2838,0.3661,0.2628,0.1751,0.208,0.0786,-0.0263,-0.0663,-0.0932,-0.1057,-0.103,-0.0389,0.0,0.0,0.0,0.0,0.0,0.0,0.0,0.0,0.0,0.0,0.0,0.0,0.0,0.0,0.0,0.0,0.0,-0.0649,-0.127,-0.1853,-0.1977,-0.1977,-0.1977,-0.1977,-0.1977,-0.1977,-0.2346,-0.3081,-0.4059,-0.5774,-0.6999,-0.8102,-0.9329,-0.9981,-1.0318,-1.1017,-1.1467,-1.1822,-1.2549,-1.2704,-1.2836,-1.2836,-1.2836,-1.2836,-1.2836,-1.3875,-1.5284,-1.6652,-1.7523,-1.8589,-2.0001,-2.052,-2.0607,-2.0739,-2.1417,-2.2027,-2.2381,-2.2747,-2.3368,-2.4347,-2.6979,-2.9164,-3.0109,-3.1225,-3.2146,-3.2602,-3.2612,-3.3016,-3.3892,-3.4216,-3.491,-3.6332,-3.6725,-3.7509,-3.8612,-3.8705,-3.9146,-4.0223,-4.0453,-4.0707,-4.1211,-4.2052,-4.2514,-4.2514,-4.3273,-4.3735,0.2792,0.2948,0.3184,0.3365,0.3448,0.3587,0.3587,0.3587,0.3587,0.3587,0.3587,0.3475,0.3025,0.2576,0.2491,0.3039,0.1916,0.1232,0.1667,0.0519,-0.0654,-0.1186,-0.1195,-0.1057,-0.1034,-0.0394,0.0,0.0,0.0,0.0,0.0,0.0,0.0,0.0,0.0,0.0,0.0,0.0,0.0,0.0,0.0,-0.0133,-0.0521,-0.09,-0.1266,-0.1746,-0.1982,-0.1977,-0.1977,-0.1977,-0.1977,-0.1977,-0.1977,-0.2345,-0.3203,-0.5163,-0.6388,-0.7243,-0.9083,-1.0098,-1.0559,-1.1143,-1.1588,-1.2069,-1.2676,-1.2836,-1.2836,-1.2836,-1.2836,-1.2836,-1.2836,-1.4394,-1.6073,-1.685,-1.7943,-1.9262,-2.0524,-2.1029,-2.1229,-2.1385,-2.191,-2.244,-2.2593,-2.338,-2.4456,-2.5798,-2.7949,-2.9747,-3.0713,-3.1662,-3.2373,-3.2727,-3.3172,-3.3818,-3.448,-3.5454,-3.6537,-3.7448,-3.8075,-3.8708,-3.9449,-3.9449,-3.9791,-4.0504,-4.1071,-4.1558,-4.2052,-4.2985,-4.3545,-4.3545,-4.4031,-4.4392,0.2904,0.3097,0.3235,0.3537,0.3587,0.3587,0.3587,0.3587,0.3587,0.3587,0.3587,0.3362,0.2576,0.2353,0.2281,0.2649,0.169,0.0973,0.1132,0.0383,-0.0514,-0.1289,-0.1045,-0.0655,-0.0646,-0.0265,0.0,0.0,0.0,0.0,0.0,0.0,0.0,0.0,0.0,0.0,0.0,0.0,0.0,0.0,0.0,-0.0266,-0.0779,-0.0897,-0.1268,-0.1639,-0.1874,-0.1989,-0.1984,-0.1984,-0.1981,-0.1977,-0.1977,-0.1977,-0.2346,-0.4674,-0.5651,-0.6267,-0.8619,-0.9958,-1.0614,-1.1154,-1.1698,-1.2118,-1.266,-1.2836,-1.2836,-1.2836,-1.2836,-1.2836,-1.3095,-1.5038,-1.7103,-1.7232,-1.8445,-1.9955,-2.122,-2.1586,-2.1761,-2.2076,-2.2422,-2.271,-2.271,-2.4024,-2.5562,-2.6771,-2.8435,-3.01,-3.1546,-3.2133,-3.2487,-3.2727,-3.3829,-3.4591,-3.4803,-3.675,-3.795,-3.8173,-3.9141,-3.989,-4.007,-4.0173,-4.0377,-4.0795,-4.1842,-4.2598,-4.3081,-4.4111,-4.4577,-4.4577,-4.4776,-4.4946,0.2752,0.2967,0.3214,0.3467,0.3587,0.3587,0.3587,0.3587,0.3587,0.3587,0.3587,0.3587,0.3474,0.2803,0.2476,0.3409,0.2139,0.123,0.2103,0.1379,0.0889,0.1286,0.0653,0.0393,0.1031,0.0397,0.0,0.0,0.0,0.0,0.0,0.0,0.0,0.0,0.0,0.0,0.0,0.0,0.0,0.0,0.0,0.0,-0.0134,-0.0792,-0.1293,-0.1893,-0.2042,-0.2037,-0.2013,-0.2013,-0.1999,-0.1977,-0.1977,-0.1977,-0.2223,-0.357,-0.4916,-0.6154,-0.773,-0.9233,-1.0527,-1.132,-1.1743,-1.2014,-1.2565,-1.2836,-1.2836,-1.2836,-1.2836,-1.3095,-1.4263,-1.5814,-1.7232,-1.8518,-1.9971,-2.1279,-2.1211,-2.1439,-2.1768,-2.2083,-2.261,-2.3047,-2.3047,-2.4186,-2.5562,-2.6771,-2.8564,-3.0353,-3.1672,-3.2258,-3.2612,-3.2727,-3.3829,-3.4902,-3.587,-3.718,-3.8384,-3.9362,-3.9878,-4.0083,-4.007,-4.058,-4.1259,-4.2124,-4.2319,-4.2985,-4.4125,-4.513,-4.5598,-4.5598,-4.6462,-4.7178,0.2775,0.3008,0.3205,0.3442,0.3587,0.3587,0.3587,0.3587,0.3587,0.3587,0.3587,0.3474,0.2913,0.2465,0.2353,0.2915,0.2128,0.1845,0.2831,0.2106,0.1751,0.241,0.1918,0.1805,0.2601,0.1714,0.1188,0.1168,0.0385,0.0,0.0,0.0,0.0,0.0,0.0,0.0,0.0,0.0,0.0,0.0,0.0,-0.0134,-0.0266,-0.08,-0.1187,-0.1422,-0.1936,-0.2056,-0.2043,-0.2025,-0.2011,-0.1999,-0.1983,-0.1977,-0.2099,-0.3447,-0.4795,-0.6156,-0.7622,-0.9258,-1.094,-1.1478,-1.1904,-1.2441,-1.2704,-1.2836,-1.2836,-1.2836,-1.2836,-1.3095,-1.452,-1.5944,-1.7361,-1.8902,-2.0598,-2.1908,-2.1908,-2.2155,-2.227,-2.2588,-2.2893,-2.3106,-2.3106,-2.4216,-2.5439,-2.6294,-2.8444,-3.0236,-3.1063,-3.2133,-3.2727,-3.2727,-3.4357,-3.5663,-3.6185,-3.7832,-3.9141,-3.9697,-3.9981,-4.0185,-4.0287,-4.0681,-4.1743,-4.345,-4.345,-4.4017,-4.513,-4.6166,-4.6638,-4.6638,-4.7106,-4.7583,0.2805,0.2984,0.3185,0.3397,0.3475,0.3587,0.3587,0.3587,0.3587,0.3587,0.3587,0.3362,0.2688,0.2576,0.2576,0.2688,0.2598,0.2703,0.3685,0.3197,0.3089,0.3871,0.3391,0.3433,0.4168,0.3148,0.2632,0.2631,0.1705,0.1032,0.0996,0.0991,0.0874,0.051,0.0525,0.04,0.0,0.0,0.0,0.0,0.0,-0.0134,-0.053,-0.0938,-0.1071,-0.1192,-0.1834,-0.2082,-0.2073,-0.2043,-0.203,-0.2026,-0.199,-0.1981,-0.211,-0.3086,-0.4439,-0.6068,-0.7291,-0.9178,-1.125,-1.1542,-1.2069,-1.2704,-1.2704,-1.2836,-1.2836,-1.2836,-1.2836,-1.3095,-1.452,-1.5944,-1.7361,-1.9024,-2.0823,-2.2237,-2.2613,-2.2668,-2.282,-2.3062,-2.3106,-2.3106,-2.3106,-2.4332,-2.5423,-2.6286,-2.8444,-3.0344,-3.1063,-3.2018,-3.2841,-3.3161,-3.5002,-3.6306,-3.663,-3.8489,-3.9697,-3.9697,-3.9993,-4.0287,-4.0504,-4.0795,-4.2039,-4.4219,-4.4312,-4.5032,-4.64,-4.7005,-4.7459,-4.783,-4.7635,-4.7925,0.2582,0.2728,0.2905,0.3234,0.3362,0.3362,0.3587,0.3699,0.3587,0.3587,0.3587,0.3587,0.3587,0.3475,0.3587,0.3699,0.3673,0.3942,0.4658,0.4787,0.5287,0.6526,0.5615,0.5066,0.5911,0.4824,0.4076,0.4204,0.4071,0.403,0.3935,0.3869,0.3217,0.1981,0.1913,0.1294,0.0,0.0,0.0,0.0,0.0,-0.0135,-0.0538,-0.0942,-0.1211,-0.1614,-0.2016,-0.2133,-0.2104,-0.2074,-0.2061,-0.2056,-0.1999,-0.1993,-0.2013,-0.211,-0.3854,-0.6166,-0.6385,-0.8414,-1.1153,-1.1582,-1.2037,-1.2441,-1.2704,-1.2836,-1.2836,-1.2836,-1.2836,-1.3095,-1.452,-1.5944,-1.7361,-1.8652,-2.0569,-2.2237,-2.2988,-2.3091,-2.3091,-2.3106,-2.3106,-2.3106,-2.3106,-2.4432,-2.5887,-2.7237,-2.902,-3.0801,-3.2008,-3.2487,-3.3172,-3.4256,-3.5443,-3.663,-3.7725,-3.8933,-3.9697,-3.9697,-4.0198,-4.0504,-4.0504,-4.101,-4.2248,-4.4219,-4.4312,-4.5536,-4.8148,-4.7608,-4.795,-4.9178,-4.8543,-4.8819,0.2484,0.2633,0.2836,0.2973,0.3222,0.3306,0.3395,0.3475,0.3699,0.415,0.415,0.4263,0.4713,0.415,0.3813,0.4263,0.4744,0.5308,0.6027,0.6145,0.6512,0.7378,0.6799,0.6487,0.7343,0.6119,0.5262,0.5436,0.4535,0.3991,0.3929,0.3857,0.3693,0.3199,0.3111,0.2897,0.2548,0.1702,0.1327,0.1327,0.0134,-0.0404,-0.0538,-0.1077,-0.1481,-0.1616,-0.202,-0.2148,-0.2136,-0.2106,-0.2081,-0.206,-0.2019,-0.1999,-0.199,-0.198,-0.3111,-0.4916,-0.5884,-0.7904,-1.0107,-1.1457,-1.2177,-1.2704,-1.2704,-1.2836,-1.2836,-1.2836,-1.2836,-1.3095,-1.452,-1.5944,-1.7619,-2.0316,-2.1846,-2.2863,-2.3106,-2.3106,-2.3106,-2.3106,-2.3106,-2.3106,-2.3106,-2.3969,-2.5056,-2.6633,-2.8307,-2.9982,-3.1411,-3.2248,-3.3172,-3.4368,-3.5553,-3.663,-3.7832,-3.9037,-3.9697,-3.9697,-4.0198,-4.0504,-4.0504,-4.101,-4.2248,-4.4219,-4.4692,-4.6059,-4.8282,-4.8057,-4.846,-4.9254,-4.9074,-4.9357,0.2399,0.2527,0.2675,0.2837,0.2994,0.3161,0.3346,0.3475,0.3699,0.4375,0.4482,0.4702,0.5266,0.4814,0.4479,0.4938,0.545,0.6039,0.6771,0.6884,0.7123,0.7869,0.7503,0.7424,0.804,0.7173,0.671,0.6805,0.5915,0.5234,0.5142,0.5163,0.4985,0.4499,0.4042,0.3845,0.3915,0.2596,0.1974,0.1975,0.0401,-0.0404,-0.0673,-0.1212,-0.1616,-0.175,-0.202,-0.2155,-0.2152,-0.2122,-0.2097,-0.2075,-0.2034,-0.2007,-0.199,-0.198,-0.2873,-0.4318,-0.5894,-0.7796,-0.9773,-1.1472,-1.2309,-1.2836,-1.2836,-1.2836,-1.2836,-1.2836,-1.2836,-1.2968,-1.4002,-1.5684,-1.7999,-2.1461,-2.2613,-2.2981,-2.3113,-2.3106,-2.3106,-2.3106,-2.3106,-2.3106,-2.3106,-2.4324,-2.5782,-2.6866,-2.8783,-3.0577,-3.1642,-3.2363,-3.3275,-3.4902,-3.5761,-3.6846,-3.8384,-3.9258,-3.9697,-3.9697,-4.0096,-4.0479,-4.0773,-4.1194,-4.2538,-4.4822,-4.5324,-4.6692,-4.894,-4.8716,-4.906,-4.9912,-4.9689,-5.0035,0.0,0.0,0.0,0.2829,0.289,0.3037,0.3508,0.3469,0.3595,0.4489,0.4582,0.4788,0.5349,0.5575,0.5699,0.5628,0.5793,0.6132,0.6874,0.6877,0.7126,0.7869,0.7872,0.7918,0.8038,0.8049,0.8098,0.8214,0.8223,0.8117,0.7875,0.7831,0.7269,0.5841,0.4616,0.3956,0.4021,0.2718,0.2103,0.2106,0.0802,-0.0269,-0.0942,-0.1077,-0.1481,-0.2155,-0.2155,-0.2155,-0.2152,-0.2123,-0.211,-0.2102,-0.2043,-0.2019,-0.2014,-0.1987,-0.2892,-0.4376,-0.6168,-0.7977,-0.9896,-1.1637,-1.2441,-1.2836,-1.2836,-1.2836,-1.2836,-1.2836,-1.2836,-1.2836,-1.2968,-1.5159,-1.8372,-2.1832,-2.2613,-2.2731,-2.2988,-2.3106,-2.3106,-2.3106,-2.3106,-2.3106,-2.3106,-2.5757,-2.7922,-2.7913,-3.0558,-3.2612,-3.2727,-3.2727,-3.3593,-3.5968,-3.6185,-3.718,-3.9478,-3.9697,-3.9697,-3.9697,-3.9981,-4.053,-4.1298,-4.166,-4.3198,-4.5999,-4.6153,-4.754,-5.0242,-4.9598,-4.9957,-5.1199,-5.0547,-5.0939,0.2203,0.0,0.0,0.0,0.0,0.0,0.2985,0.3519,0.4158,0.4876,0.5369,0.6024,0.6589,0.6816,0.6927,0.7025,0.6684,0.6752,0.7497,0.7622,0.7744,0.7869,0.7872,0.7883,0.7918,0.7921,0.7934,0.797,0.7973,0.7867,0.7627,0.7489,0.7303,0.6839,0.6648,0.6626,0.6656,0.5444,0.4826,0.497,0.3329,0.2284,0.1612,0.0538,-0.0269,-0.1077,-0.1885,-0.2155,-0.2154,-0.2146,-0.2116,-0.2075,-0.2058,-0.2025,-0.1988,-0.1979,-0.2264,-0.2964,-0.5016,-0.6803,-0.8424,-1.0432,-1.1901,-1.2836,-1.2836,-1.2836,-1.2836,-1.2836,-1.2836,-1.3354,-1.5544,-1.7087,-1.8622,-2.1832,-2.2738,-2.2988,-2.3113,-2.3106,-2.3106,-2.3106,-2.3106,-2.3106,-2.3106,-2.517,-2.7099,-2.7803,-3.0081,-3.1883,-3.2612,-3.3491,-3.458,-3.6077,-3.6954,-3.8056,-3.9581,-3.9697,-3.9697,-3.9697,-4.0096,-4.0466,-4.0722,-4.2317,-4.398,-4.5478,-4.7152,-4.8778,-5.0242,-5.0047,-5.0391,-5.1214,-5.1251,-5.1865,0.2187,0.2266,0.2383,0.2372,0.0,0.0,0.3185,0.37,0.4351,0.5326,0.5924,0.6475,0.7041,0.7379,0.7542,0.7543,0.7373,0.7373,0.7869,0.7872,0.7872,0.7872,0.7872,0.7872,0.7872,0.7872,0.7872,0.7872,0.7872,0.7769,0.7532,0.7355,0.7282,0.7334,0.7448,0.7548,0.7748,0.6445,0.5842,0.5982,0.4486,0.3355,0.2551,0.1746,0.0941,0.0135,-0.0942,-0.1481,-0.1481,-0.202,-0.2127,-0.2082,-0.2082,-0.2046,-0.1994,-0.1994,-0.2016,-0.243,-0.475,-0.6387,-0.7835,-1.0145,-1.1769,-1.2836,-1.2836,-1.2836,-1.2836,-1.2836,-1.2836,-1.3613,-1.6829,-1.7854,-1.875,-2.2083,-2.2988,-2.3106,-2.3106,-2.3106,-2.3106,-2.3106,-2.3106,-2.323,-2.3479,-2.5538,-2.734,-2.8179,-3.0324,-3.2123,-3.2612,-3.3275,-3.4357,-3.5968,-3.7033,-3.8167,-3.9919,-4.0249,-4.0287,-4.0049,-4.0667,-4.1105,-4.1209,-4.3229,-4.5043,-4.6364,-4.8186,-4.9662,-5.0646,-5.0646,-5.084,-5.1229,-5.1551,-5.2292,0.2296,0.2278,0.2376,0.2426,0.2476,0.0,0.354,0.3771,0.4157,0.5525,0.5957,0.6323,0.6758,0.719,0.7409,0.7355,0.7585,0.7744,0.7869,0.7872,0.7877,0.7888,0.7891,0.7891,0.7891,0.7891,0.7886,0.7872,0.7858,0.7761,0.7548,0.7307,0.7225,0.7334,0.7323,0.7402,0.7696,0.6438,0.6023,0.6137,0.5049,0.3992,0.2944,0.2944,0.2277,0.1207,0.0134,-0.0403,-0.0538,-0.1616,-0.2003,-0.2109,-0.2109,-0.2074,-0.2023,-0.202,-0.202,-0.2406,-0.4728,-0.6337,-0.7732,-1.0074,-1.1713,-1.2775,-1.2775,-1.2791,-1.2812,-1.2832,-1.2836,-1.3608,-1.7082,-1.7976,-1.8872,-2.2341,-2.3106,-2.3106,-2.3106,-2.3106,-2.3106,-2.3106,-2.3113,-2.3362,-2.3984,-2.6252,-2.817,-2.8801,-3.1063,-3.2727,-3.2727,-3.2944,-3.392,-3.5979,-3.6807,-3.819,-4.0202,-4.0877,-4.0978,-4.0538,-4.1296,-4.1919,-4.2182,-4.4226,-4.6093,-4.7867,-4.9176,-5.022,-5.1214,-5.1214,-5.1214,-5.1214,-5.1786,-5.2541,0.2627,0.2495,0.2552,0.2563,0.2538,0.0,0.2802,0.3353,0.3985,0.4161,0.5124,0.5845,0.5913,0.6477,0.6844,0.6588,0.7136,0.7622,0.7869,0.7872,0.7907,0.8005,0.8019,0.8019,0.8019,0.8019,0.7978,0.7877,0.7785,0.7714,0.7668,0.7432,0.7309,0.7334,0.7354,0.7323,0.7362,0.7181,0.7253,0.7497,0.7215,0.6615,0.551,0.4593,0.3553,0.2247,0.119,0.0266,-0.0538,-0.0673,-0.1335,-0.2109,-0.2109,-0.2087,-0.2052,-0.2027,-0.2034,-0.2181,-0.3304,-0.5231,-0.7473,-0.8525,-1.0469,-1.241,-1.241,-1.2507,-1.2649,-1.2795,-1.2836,-1.3608,-1.7082,-1.7976,-1.8872,-2.2341,-2.3106,-2.3106,-2.3106,-2.3106,-2.3106,-2.3106,-2.3487,-2.3984,-2.4108,-2.6633,-2.8792,-2.892,-3.1063,-3.2727,-3.2727,-3.4357,-3.5651,-3.6185,-3.8022,-3.9407,-3.9848,-3.9961,-4.0162,-4.0488,-4.1139,-4.1708,-4.2157,-4.5126,-4.6909,-4.7235,-4.9639,-5.1011,-5.1214,-5.1214,-5.1214,-5.1214,-5.2109,-5.3113,0.2158,0.1995,0.2113,0.252,0.2778,0.0,0.0,0.396,0.4529,0.4911,0.5529,0.6052,0.5976,0.641,0.664,0.6505,0.6913,0.7288,0.7368,0.7646,0.7915,0.804,0.8054,0.8079,0.8138,0.8089,0.8002,0.788,0.7766,0.7701,0.7701,0.7527,0.7426,0.7426,0.7369,0.7392,0.7382,0.7508,0.7513,0.7752,0.7758,0.7205,0.5952,0.5507,0.4668,0.3282,0.2237,0.1593,0.1076,0.0,-0.0804,-0.1332,-0.1865,-0.2114,-0.2085,-0.2069,-0.2064,-0.2193,-0.3354,-0.4891,-0.6682,-0.828,-1.0062,-1.1664,-1.2178,-1.2426,-1.2601,-1.2783,-1.2836,-1.3608,-1.7082,-1.7976,-1.8872,-2.2341,-2.3106,-2.3106,-2.3106,-2.3106,-2.3106,-2.3106,-2.386,-2.4726,-2.5194,-2.7357,-2.9157,-2.9982,-3.1536,-3.2727,-3.2727,-3.4246,-3.5542,-3.6185,-3.8059,-3.9433,-4.0099,-4.0362,-4.0626,-4.0915,-4.1711,-4.2602,-4.3389,-4.6072,-4.8013,-4.9117,-5.055,-5.1214,-5.1214,-5.165,-5.1911,-5.1911,-5.2531,-5.3608,0.1485,0.1307,0.1491,0.2072,0.2541,0.302,0.0,0.0,0.0,0.5596,0.595,0.6126,0.6011,0.6276,0.6437,0.6373,0.6643,0.6754,0.6686,0.7255,0.7693,0.7831,0.7948,0.804,0.8092,0.7986,0.7902,0.7875,0.7722,0.766,0.7731,0.7619,0.7554,0.7554,0.7532,0.7541,0.7455,0.7519,0.7493,0.7499,0.7548,0.703,0.574,0.5878,0.5243,0.4179,0.328,0.2785,0.2555,0.0673,-0.0269,-0.0673,-0.175,-0.214,-0.2117,-0.2111,-0.2093,-0.2335,-0.3663,-0.4803,-0.6024,-0.8422,-1.0039,-1.1199,-1.2028,-1.2402,-1.256,-1.2775,-1.2836,-1.3744,-1.6829,-1.7982,-1.9012,-2.209,-2.2988,-2.3106,-2.3106,-2.3106,-2.3106,-2.3106,-2.4232,-2.5341,-2.6042,-2.7838,-2.9512,-3.081,-3.2008,-3.2727,-3.3058,-3.4032,-3.5223,-3.6414,-3.7977,-3.9349,-4.0245,-4.0865,-4.1229,-4.1342,-4.2385,-4.3566,-4.4901,-4.7105,-4.919,-5.112,-5.1214,-5.1214,-5.1214,-5.217,-5.2606,-5.2606,-5.3212,-5.4216,0.099,0.0797,0.0798,0.0887,0.0979,0.1249,0.2408,0.0,0.3093,0.4194,0.0,0.5104,0.501,0.0,0.0,0.543,0.5813,0.6125,0.5996,0.6564,0.6995,0.7084,0.757,0.7815,0.7619,0.7489,0.7543,0.7847,0.7565,0.7516,0.7834,0.7741,0.7682,0.7682,0.7576,0.7505,0.7478,0.7376,0.7379,0.7493,0.7435,0.6812,0.5759,0.5772,0.5163,0.4135,0.4043,0.3439,0.2555,0.1344,0.0404,-0.0673,-0.175,-0.2153,-0.2146,-0.2119,-0.2107,-0.2232,-0.2987,-0.4222,-0.5802,-0.7572,-0.9738,-1.1772,-1.2211,-1.232,-1.2406,-1.2743,-1.3227,-1.4263,-1.6193,-1.7736,-1.9419,-2.1342,-2.2487,-2.3106,-2.3106,-2.3106,-2.3106,-2.3106,-2.4232,-2.5103,-2.5226,-2.7735,-2.9884,-3.0001,-3.1546,-3.3058,-3.4155,-3.5333,-3.6414,-3.7619,-3.8865,-3.9669,-3.9785,-4.0287,-4.0933,-4.1745,-4.2493,-4.3854,-4.5686,-4.8139,-5.0013,-5.1214,-5.1214,-5.1214,-5.1214,-5.217,-5.2606,-5.259,-5.4285,-5.5198,0.0273,0.0181,0.0364,0.063,0.0998,0.1462,0.171,0.2148,0.2676,0.3123,0.0,0.0,0.0,0.0,0.0,0.0,0.5655,0.5814,0.5673,0.6098,0.6544,0.6918,0.7263,0.7472,0.7513,0.7597,0.7709,0.7858,0.7671,0.7644,0.7858,0.7826,0.7801,0.7801,0.775,0.7693,0.7625,0.7106,0.6845,0.6831,0.6818,0.609,0.506,0.5443,0.4977,0.4027,0.4078,0.3897,0.3456,0.2391,0.1334,0.0269,-0.0807,-0.1616,-0.2153,-0.214,-0.2402,-0.2799,-0.3576,-0.4425,-0.5595,-0.7733,-1.0046,-1.1971,-1.2227,-1.2377,-1.2511,-1.2763,-1.3358,-1.4263,-1.6063,-1.7742,-1.9419,-2.1222,-2.2355,-2.3106,-2.3106,-2.3106,-2.323,-2.3611,-2.4833,-2.605,-2.6415,-2.8444,-3.0236,-3.1305,-3.2258,-3.3172,-3.4368,-3.5553,-3.6735,-3.8251,-3.9507,-4.03,-4.0626,-4.0865,-4.1336,-4.2227,-4.4415,-4.6075,-4.7033,-4.9288,-5.0728,-5.1214,-5.1214,-5.1214,-5.1214,-5.217,-5.2858,-5.3459,-5.472,-5.5636,-0.0367,-0.0457,-0.0277,0.0091,0.0549,0.0918,0.1081,0.161,0.2142,0.2412,0.2681,0.0,0.0,0.0,0.4346,0.4936,0.0,0.5494,0.5335,0.565,0.6084,0.6518,0.6782,0.7018,0.7296,0.7448,0.7581,0.7714,0.7616,0.7646,0.7858,0.7872,0.7872,0.7872,0.7872,0.7831,0.7747,0.7153,0.6899,0.6744,0.6644,0.5949,0.487,0.537,0.5026,0.3954,0.4016,0.4109,0.4085,0.3028,0.1991,0.0941,-0.0135,-0.1212,-0.2155,-0.2155,-0.2558,-0.3362,-0.4033,-0.5144,-0.6528,-0.8186,-1.0281,-1.2065,-1.2251,-1.2426,-1.2601,-1.2783,-1.349,-1.453,-1.5689,-1.749,-1.9297,-2.0843,-2.1978,-2.2731,-2.2981,-2.3106,-2.323,-2.3736,-2.5071,-2.6407,-2.7116,-2.8911,-3.0704,-3.2133,-3.2498,-3.3214,-3.4542,-3.5634,-3.7025,-3.8755,-4.0063,-4.0902,-4.1304,-4.148,-4.2119,-4.3316,-4.6089,-4.7965,-4.8382,-5.0206,-5.1214,-5.1214,-5.1214,-5.1214,-5.1214,-5.2426,-5.3284,-5.3976,-5.4886,-5.5812,-0.0945,-0.111,-0.1112,-0.1307,-0.1283,-0.0987,0.0179,0.0628,0.1077,0.2248,0.2699,0.288,0.297,0.3585,0.4082,0.3972,0.4698,0.0,0.0,0.5298,0.5438,0.5502,0.601,0.6437,0.679,0.6725,0.6853,0.7317,0.7241,0.7377,0.7845,0.7872,0.7872,0.7872,0.7872,0.7869,0.7867,0.7752,0.7693,0.7679,0.7342,0.6727,0.5518,0.5544,0.4924,0.3955,0.4034,0.4124,0.4085,0.3028,0.1991,0.0941,-0.0135,-0.1212,-0.2155,-0.2155,-0.2558,-0.3362,-0.4033,-0.6323,-0.8946,-0.8802,-1.0281,-1.2065,-1.2251,-1.2426,-1.2601,-1.2783,-1.3752,-1.4931,-1.4931,-1.6737,-1.8792,-1.9947,-2.0969,-2.1859,-2.2856,-2.3106,-2.3113,-2.3113,-2.4232,-2.5464,-2.6399,-2.9139,-3.1285,-3.1285,-3.2123,-3.3329,-3.4875,-3.614,-3.7548,-3.9184,-4.0511,-4.1317,-4.1342,-4.1831,-4.3099,-4.5222,-4.7033,-4.8482,-4.9513,-5.0618,-5.1214,-5.1214,-5.1214,-5.1214,-5.1214,-5.3035,-5.3976,-5.3976,-5.4886,-5.5812,-0.0771,-0.0768,-0.0766,-0.1122,-0.1025,-0.0928,-0.0812,-0.0628,-0.0269,0.009,0.045,0.0899,0.1619,0.1975,0.2663,0.3869,0.4155,0.4494,0.0,0.5243,0.5295,0.5309,0.5806,0.6195,0.6317,0.6624,0.7034,0.731,0.7328,0.7535,0.7853,0.7872,0.7872,0.7872,0.7872,0.8238,0.8848,0.8354,0.8051,0.8048,0.7445,0.6383,0.5017,0.5051,0.455,0.3869,0.3913,0.3993,0.4098,0.375,0.2619,0.1062,0.067,-0.0538,-0.2155,-0.2155,-0.2558,-0.3354,-0.4474,-0.6227,-0.8185,-0.8679,-0.9925,-1.1502,-1.2331,-1.2682,-1.2929,-1.299,-1.398,-1.4931,-1.4931,-1.6737,-1.8792,-1.982,-2.0843,-2.1859,-2.2863,-2.3106,-2.3362,-2.4232,-2.5509,-2.6692,-2.7668,-2.9993,-3.1632,-3.1325,-3.2123,-3.3547,-3.5994,-3.6721,-3.8043,-4.0967,-4.1638,-4.2032,-4.2396,-4.2941,-4.3971,-4.5395,-4.7047,-4.8482,-4.9513,-5.0618,-5.1214,-5.1214,-5.1214,-5.1214,-5.1214,-5.2426,-5.3459,-5.4216,-5.5117,-5.5971,-0.1088,-0.1375,-0.165,-0.2169,-0.187,-0.1669,-0.2439,-0.1753,-0.1124,-0.1339,-0.0898,-0.0274,0.0581,0.1028,0.1609,0.2896,0.3252,0.3694,0.0,0.4981,0.5127,0.5127,0.5542,0.5899,0.607,0.6385,0.6741,0.7238,0.738,0.7501,0.7856,0.7869,0.7872,0.7872,0.8236,0.8726,0.9335,0.9239,0.9071,0.8951,0.7934,0.6713,0.5358,0.4931,0.44,0.3807,0.3843,0.3939,0.407,0.3723,0.2607,0.1062,0.067,-0.0538,-0.2155,-0.2155,-0.2826,-0.375,-0.5074,-0.6455,-0.7863,-0.8626,-0.9946,-1.1352,-1.2397,-1.2865,-1.3092,-1.3365,-1.4161,-1.4931,-1.5192,-1.6613,-1.8279,-1.982,-2.0589,-2.1475,-2.2856,-2.3106,-2.3487,-2.4487,-2.5633,-2.6725,-2.7618,-2.9379,-3.0847,-3.1426,-3.2357,-3.3738,-3.5938,-3.7031,-3.8482,-4.0849,-4.1979,-4.2695,-4.3048,-4.3653,-4.46,-4.611,-4.7355,-4.8681,-5.0124,-5.0822,-5.1214,-5.1214,-5.1214,-5.1386,-5.1742,-5.2606,-5.3703,-5.4787,-5.578,-5.6536]},{"header":{"parameterUnit":"m.s-1","parameterCategory":1,"la1":30.6,"la2":29.2853,"lo1":-89.7004,"lo2":-87.6739,"dy":0.0162,"dx":0.0183,"nx":112,"ny":82,"refTime":"2024-06-07T12:00:00:Z","depth":0,"parameterNumber":3,"parameterNumberName":"V-component_of_WINDS"},"data":[0.0,0.0,0.0,0.0,0.0,0.0,0.0,0.0,0.0,0.0,0.0,0.0,0.0,0.0,0.0,0.0,0.0,0.0,0.0,0.0,0.0,0.0,0.0,0.0,0.0,0.0,0.0,0.0,0.0,0.0,0.0,0.0,0.0,0.0,0.0,0.0,0.0,0.0,0.0,0.0,0.0,0.0,0.0,0.0,0.0,0.0,0.0,0.0,0.0,0.0,0.0,0.0,0.0,0.0,0.0,0.0,0.0,0.0,0.0,0.0,0.0,0.0,0.0,0.0,0.0,0.0,0.0,0.0,0.0,0.0,0.0,0.0,0.0,0.0,0.0,0.0,0.0,0.0,0.0,0.0,0.0,0.0,0.0,0.0,0.0,0.0,0.0,0.0,0.0,0.0,2.5485,2.6126,2.8249,2.9484,2.9341,2.9743,2.848,2.4747,0.0,0.0,0.0,0.0,0.0,0.0,0.0,0.0,0.0,0.0,0.0,0.0,0.0,0.0,0.0,0.0,0.0,0.0,0.0,0.0,0.0,0.0,0.0,0.0,0.0,0.0,0.0,0.0,0.0,0.0,0.0,0.0,0.0,0.0,0.0,0.0,0.0,0.0,0.0,0.0,0.0,0.0,0.0,0.0,0.0,0.0,0.0,0.0,0.0,0.0,0.0,0.0,0.0,0.0,0.0,0.0,0.0,0.0,0.0,0.0,0.0,0.0,0.0,0.0,0.0,0.0,0.0,0.0,0.0,0.0,0.0,0.0,0.0,0.0,0.0,0.0,0.0,0.0,0.0,0.0,0.0,0.0,0.0,0.0,0.0,0.0,0.0,0.0,0.0,0.0,0.0,0.0,0.0,0.0,0.0,0.0,0.0,0.0,0.0,0.0,0.0,0.0,0.0,0.0,2.6289,2.836,2.9682,3.0088,2.9209,3.0316,2.9283,2.5178,0.0,0.0,0.0,0.0,0.0,0.0,0.0,0.0,0.0,0.0,0.0,0.0,0.0,0.0,0.0,0.0,0.0,0.0,0.0,0.0,0.0,0.0,0.0,0.0,0.0,0.0,0.0,0.0,0.0,0.0,0.0,0.0,0.0,0.0,0.0,0.0,0.0,0.0,0.0,0.0,0.0,0.0,0.0,0.0,0.0,0.0,0.0,0.0,0.0,0.0,0.0,0.0,0.0,0.0,0.0,0.0,0.0,0.0,0.0,0.0,0.0,0.0,0.0,0.0,0.0,0.0,0.0,0.0,0.0,0.0,0.0,0.0,0.0,0.0,0.0,0.0,0.0,0.0,0.0,0.0,0.0,0.0,0.0,0.0,0.0,0.0,0.0,0.0,0.0,0.0,0.0,0.0,0.0,0.0,0.0,0.0,0.0,0.0,0.0,0.0,0.0,0.0,0.0,2.5129,2.6321,2.8643,2.9419,2.9793,2.9729,3.0585,2.9508,2.5855,2.6414,0.0,0.0,0.0,0.0,0.0,0.0,0.0,0.0,0.0,0.0,0.0,0.0,0.0,0.0,0.0,0.0,0.0,0.0,0.0,0.0,0.0,0.0,0.0,0.0,0.0,0.0,0.0,0.0,0.0,0.0,0.0,0.0,0.0,0.0,0.0,0.0,0.0,0.0,0.0,0.0,0.0,0.0,0.0,0.0,0.0,0.0,0.0,0.0,0.0,0.0,0.0,0.0,0.0,0.0,0.0,0.0,0.0,0.0,0.0,0.0,0.0,0.0,0.0,0.0,0.0,0.0,0.0,0.0,0.0,0.0,0.0,0.0,0.0,0.0,0.0,0.0,0.0,0.0,0.0,0.0,0.0,0.0,0.0,0.0,0.0,0.0,0.0,0.0,0.0,0.0,0.0,0.0,0.0,0.0,0.0,0.0,0.0,0.0,0.0,0.0,0.0,0.0,2.6291,2.7381,2.9028,2.9639,3.0024,3.0469,3.1148,3.0046,2.6543,2.708,0.0,0.0,0.0,0.0,0.0,0.0,0.0,0.0,0.0,0.0,0.0,0.0,0.0,0.0,0.0,0.0,0.0,0.0,0.0,0.0,0.0,0.0,0.0,0.0,0.0,0.0,0.0,0.0,0.0,0.0,0.0,0.0,0.0,0.0,0.0,0.0,0.0,0.0,0.0,0.0,0.0,0.0,0.0,0.0,0.0,0.0,0.0,0.0,0.0,0.0,0.0,0.0,0.0,0.0,0.0,0.0,0.0,0.0,0.0,0.0,0.0,0.0,0.0,0.0,0.0,0.0,0.0,0.0,0.0,0.0,0.0,0.0,0.0,0.0,0.0,0.0,0.0,0.0,0.0,0.0,0.0,0.0,0.0,0.0,0.0,0.0,0.0,0.0,0.0,0.0,0.0,0.0,0.0,0.0,0.0,0.0,0.0,0.0,0.0,0.0,0.0,0.0,2.913,3.1116,3.0506,3.1489,3.1856,3.122,3.2514,3.1403,2.685,2.6735,0.0,0.0,0.0,0.0,0.0,0.0,0.0,0.0,0.0,0.0,0.0,0.0,0.0,0.0,0.0,0.0,0.0,0.0,0.0,0.0,0.0,0.0,0.0,0.0,0.0,0.0,0.0,0.0,0.0,0.0,0.0,0.0,0.0,0.0,0.0,0.0,0.0,0.0,0.0,0.0,0.0,0.0,0.0,0.0,0.0,0.0,0.0,0.0,0.0,0.0,0.0,0.0,0.0,0.0,0.0,0.0,0.0,0.0,0.0,0.0,0.0,0.0,0.0,0.0,0.0,0.0,0.0,0.0,0.0,0.0,0.0,0.0,0.0,0.0,0.0,0.0,0.0,0.0,0.0,0.0,0.0,0.0,0.0,0.0,0.0,0.0,0.0,0.0,0.0,0.0,0.0,0.0,0.0,0.0,0.0,0.0,0.0,0.0,0.0,0.0,0.0,0.0,2.7998,2.9876,3.0353,3.1132,3.1723,3.1942,3.2807,3.1613,2.7529,0.0,0.0,0.0,0.0,0.0,0.0,0.0,0.0,0.0,0.0,0.0,0.0,0.0,0.0,0.0,0.0,0.0,0.0,0.0,0.0,0.0,0.0,0.0,0.0,0.0,0.0,0.0,0.0,0.0,0.0,0.0,0.0,0.0,0.0,0.0,0.0,0.0,0.0,0.0,0.0,0.0,0.0,0.0,0.0,0.0,0.0,0.0,0.0,0.0,0.0,0.0,0.0,0.0,0.0,0.0,0.0,0.0,0.0,0.0,0.0,0.0,0.0,0.0,0.0,0.0,0.0,0.0,0.0,0.0,0.0,0.0,0.0,0.0,0.0,0.0,0.0,0.0,0.0,0.0,0.0,0.0,0.0,0.0,0.0,0.0,0.0,0.0,0.0,0.0,0.0,0.0,0.0,0.0,0.0,0.0,0.0,0.0,0.0,0.0,0.0,0.0,0.0,2.5654,2.7986,2.994,3.0817,3.1442,3.2101,3.2662,3.2876,3.1528,2.8152,0.0,0.0,0.0,0.0,0.0,0.0,0.0,0.0,0.0,0.0,0.0,0.0,0.0,0.0,0.0,0.0,0.0,0.0,0.0,0.0,0.0,0.0,0.0,0.0,0.0,0.0,0.0,0.0,0.0,0.0,0.0,0.0,0.0,0.0,0.0,0.0,0.0,0.0,0.0,0.0,0.0,0.0,0.0,0.0,0.0,0.0,0.0,0.0,0.0,0.0,0.0,0.0,0.0,0.0,0.0,0.0,0.0,0.0,0.0,0.0,0.0,0.0,0.0,0.0,0.0,0.0,0.0,0.0,0.0,0.0,0.0,0.0,0.0,0.0,0.0,0.0,0.0,0.0,0.0,0.0,0.0,0.0,0.0,0.0,0.0,0.0,0.0,0.0,0.0,0.0,0.0,0.0,0.0,0.0,0.0,0.0,0.0,0.0,0.0,0.0,0.0,0.0,2.6511,2.9808,3.2182,3.2182,3.286,3.3269,3.3269,3.2844,3.1309,0.0,0.0,0.0,0.0,0.0,0.0,0.0,0.0,0.0,0.0,0.0,0.0,0.0,0.0,0.0,0.0,0.0,0.0,0.0,0.0,0.0,0.0,0.0,0.0,0.0,0.0,0.0,0.0,0.0,0.0,0.0,0.0,0.0,0.0,0.0,0.0,0.0,0.0,0.0,0.0,0.0,0.0,0.0,0.0,0.0,0.0,0.0,0.0,0.0,0.0,0.0,0.0,0.0,0.0,0.0,0.0,0.0,0.0,0.0,0.0,0.0,0.0,0.0,0.0,0.0,0.0,0.0,0.0,0.0,0.0,0.0,0.0,0.0,0.0,0.0,0.0,0.0,0.0,0.0,0.0,0.0,0.0,0.0,0.0,0.0,0.0,0.0,0.0,0.0,0.0,0.0,0.0,0.0,0.0,0.0,0.0,0.0,0.0,0.0,0.0,0.0,0.0,0.0,2.7023,3.0078,3.2182,3.2182,3.2574,3.2917,3.2917,3.2826,3.1432,2.8174,0.0,0.0,0.0,0.0,0.0,0.0,0.0,0.0,0.0,0.0,0.0,0.0,0.0,0.0,0.0,0.0,0.0,0.0,0.0,0.0,0.0,0.0,0.0,0.0,0.0,0.0,0.0,0.0,0.0,0.0,0.0,0.0,0.0,0.0,0.0,0.0,0.0,0.0,0.0,0.0,0.0,0.0,0.0,0.0,0.0,0.0,0.0,0.0,0.0,0.0,0.0,0.0,0.0,0.0,0.0,0.0,0.0,0.0,0.0,0.0,0.0,0.0,0.0,0.0,0.0,0.0,0.0,0.0,0.0,0.0,0.0,0.0,0.0,0.0,0.0,0.0,0.0,0.0,0.0,0.0,0.0,0.0,0.0,0.0,0.0,0.0,0.0,0.0,0.0,0.0,0.0,0.0,0.0,0.0,0.0,0.0,0.0,0.0,0.0,0.0,0.0,0.0,2.7304,3.0186,3.2182,3.2182,3.2503,3.2704,3.2704,3.2707,3.1513,2.8762,0.0,0.0,0.0,0.0,0.0,0.0,0.0,0.0,0.0,0.0,0.0,0.0,0.0,0.0,0.0,0.0,0.0,0.0,0.0,0.0,0.0,0.0,0.0,0.0,0.0,0.0,0.0,0.0,0.0,0.0,0.0,0.0,0.0,0.0,0.0,0.0,0.0,0.0,0.0,0.0,0.0,0.0,0.0,0.0,0.0,0.0,0.0,0.0,0.0,0.0,0.0,0.0,0.0,0.0,0.0,0.0,0.0,0.0,0.0,0.0,0.0,0.0,0.0,0.0,0.0,0.0,0.0,0.0,0.0,0.0,0.0,0.0,0.0,0.0,0.0,0.0,0.0,0.0,0.0,0.0,0.0,0.0,0.0,0.0,0.0,0.0,0.0,0.0,0.0,0.0,0.0,0.0,0.0,0.0,0.0,0.0,0.0,0.0,0.0,0.0,0.0,0.0,2.7344,3.0186,3.2182,3.2182,3.2431,3.2632,3.2632,3.2431,3.1567,2.9882,0.0,0.0,0.0,0.0,0.0,0.0,0.0,0.0,0.0,0.0,0.0,0.0,0.0,0.0,0.0,0.0,0.0,0.0,0.0,0.0,0.0,0.0,0.0,0.0,0.0,0.0,0.0,0.0,0.0,0.0,0.0,0.0,0.0,0.0,0.0,0.0,0.0,0.0,0.0,0.0,0.0,0.0,0.0,0.0,0.0,0.0,0.0,0.0,0.0,0.0,0.0,0.0,0.0,0.0,0.0,0.0,0.0,0.0,0.0,0.0,2.9107,2.6489,0.0,0.0,0.0,0.0,0.0,0.0,0.0,0.0,0.0,0.0,0.0,0.0,0.0,0.0,0.0,0.0,0.0,0.0,0.0,0.0,0.0,0.0,0.0,0.0,0.0,0.0,0.0,0.0,0.0,0.0,0.0,0.0,0.0,0.0,0.0,0.0,0.0,0.0,0.0,0.0,2.7344,3.0186,3.2182,3.2182,3.2241,3.2314,3.2314,3.2038,3.1172,2.9483,2.8411,0.0,0.0,0.0,0.0,0.0,0.0,0.0,0.0,0.0,0.0,0.0,0.0,0.0,0.0,0.0,0.0,0.0,0.0,0.0,0.0,0.0,0.0,0.0,0.0,0.0,0.0,0.0,0.0,0.0,0.0,0.0,0.0,0.0,0.0,0.0,0.0,0.0,0.0,0.0,0.0,0.0,0.0,0.0,0.0,0.0,0.0,0.0,0.0,0.0,0.0,0.0,0.0,0.0,0.0,0.0,0.0,0.0,0.0,0.0,3.0251,2.8327,0.0,0.0,0.0,0.0,0.0,0.0,0.0,0.0,0.0,0.0,0.0,0.0,0.0,0.0,0.0,0.0,0.0,0.0,0.0,0.0,0.0,0.0,0.0,0.0,0.0,0.0,0.0,0.0,0.0,0.0,0.0,0.0,0.0,0.0,0.0,0.0,0.0,0.0,0.0,0.0,2.7344,3.0186,3.2182,3.2182,3.2182,3.2182,3.2182,3.2041,3.1469,3.0336,2.9005,0.0,0.0,0.0,0.0,0.0,0.0,0.0,0.0,0.0,0.0,0.0,0.0,0.0,0.0,0.0,0.0,0.0,0.0,0.0,0.0,0.0,0.0,0.0,0.0,0.0,0.0,0.0,0.0,0.0,0.0,0.0,0.0,0.0,0.0,0.0,0.0,0.0,0.0,0.0,0.0,0.0,0.0,0.0,0.0,0.0,0.0,0.0,0.0,0.0,0.0,0.0,0.0,0.0,3.466,3.4921,3.4945,3.4824,3.5179,3.5739,3.217,3.1098,3.1644,2.8857,0.0,0.0,0.0,0.0,0.0,0.0,0.0,0.0,0.0,0.0,0.0,0.0,0.0,0.0,0.0,0.0,0.0,0.0,0.0,0.0,0.0,0.0,2.938,2.8012,2.9356,3.0406,2.8516,0.0,0.0,0.0,0.0,0.0,0.0,0.0,0.0,0.0,0.0,0.0,2.7809,3.047,3.2331,3.2331,3.2331,3.2291,3.2182,3.2182,3.1924,3.1327,2.9889,2.84,0.0,0.0,0.0,0.0,0.0,0.0,0.0,0.0,0.0,0.0,0.0,0.0,0.0,0.0,0.0,0.0,0.0,0.0,0.0,0.0,0.0,0.0,0.0,0.0,0.0,0.0,0.0,0.0,0.0,0.0,0.0,0.0,3.6407,3.529,0.0,0.0,0.0,0.0,0.0,0.0,0.0,0.0,0.0,0.0,0.0,0.0,0.0,3.5656,3.5904,3.697,3.7442,3.7373,3.9412,4.0114,3.9606,3.8982,3.8466,3.8021,3.6839,0.0,3.3992,3.4166,0.0,0.0,0.0,0.0,0.0,0.0,0.0,0.0,0.0,0.0,0.0,0.0,0.0,0.0,0.0,0.0,0.0,0.0,0.0,0.0,0.0,0.0,3.2318,3.1971,3.1965,3.1942,3.1639,2.9376,2.7314,2.697,2.6583,2.5841,0.0,0.0,0.0,0.0,0.0,0.0,2.9619,3.1663,3.2942,3.2942,3.2942,3.2738,3.2223,3.2182,3.1924,3.1327,3.107,3.0092,2.8231,2.7066,0.0,0.0,0.0,0.0,0.0,0.0,0.0,0.0,0.0,0.0,0.0,0.0,0.0,0.0,0.0,0.0,0.0,0.0,0.0,0.0,0.0,0.0,0.0,0.0,0.0,0.0,0.0,0.0,0.0,3.4,3.4775,3.3786,3.344,3.2479,0.0,0.0,0.0,0.0,0.0,0.0,0.0,0.0,0.0,3.6135,3.6771,3.7751,3.917,4.005,4.0717,4.1147,4.2146,4.2749,4.2857,4.2085,4.1857,4.19,4.0665,3.9647,3.8779,3.5963,3.3229,3.0646,0.0,0.0,0.0,0.0,2.8211,2.7653,2.9219,2.9902,3.0349,3.1696,0.0,0.0,0.0,0.0,0.0,0.0,0.0,2.8954,2.9577,3.0596,3.1732,3.2718,3.3063,3.3268,3.3593,3.2556,3.0993,2.9349,2.8744,2.7793,2.5547,2.5942,0.0,0.0,0.0,2.9282,3.0119,3.1866,3.3186,3.3525,3.3254,3.3105,3.32,3.2576,3.2209,3.2291,3.1667,3.0934,3.0079,2.8484,2.6862,0.0,0.0,0.0,0.0,0.0,0.0,0.0,0.0,0.0,0.0,0.0,0.0,0.0,0.0,0.0,0.0,0.0,0.0,0.0,0.0,0.0,0.0,0.0,0.0,0.0,0.0,0.0,0.0,3.4218,3.4248,3.2642,3.3623,3.3217,0.0,0.0,0.0,0.0,0.0,0.0,3.3641,3.4497,3.6902,4.0998,3.9761,3.9974,4.191,4.251,4.3081,4.3628,4.3628,4.391,4.439,4.3663,4.369,4.4224,4.277,4.2228,4.1962,3.7373,3.4741,3.3544,3.2211,3.0681,2.9368,3.0911,3.0805,3.0287,3.3221,3.3946,3.3431,3.2895,3.2259,3.1514,3.0524,0.0,0.0,0.0,0.0,2.9059,3.0297,3.0744,3.1273,3.2901,3.3634,3.4032,3.4706,3.4719,3.3946,3.1748,3.1108,3.0065,2.7314,2.7911,0.0,2.6511,2.8637,3.0562,3.1077,3.238,3.3457,3.3829,3.3417,3.3254,3.3715,3.2793,3.2359,3.2806,3.2006,3.145,3.13,2.993,2.8511,2.7085,0.0,0.0,0.0,0.0,0.0,0.0,0.0,0.0,0.0,0.0,0.0,0.0,0.0,0.0,0.0,0.0,0.0,0.0,0.0,0.0,0.0,0.0,0.0,0.0,0.0,0.0,0.0,0.0,0.0,3.439,3.6666,0.0,0.0,0.0,0.0,3.4293,3.6245,3.7617,3.788,3.9272,4.0448,4.1365,4.1972,4.2353,4.2469,4.3197,4.3595,4.3628,4.3628,4.3645,4.3618,4.299,4.2831,4.3101,4.2412,4.1945,4.1478,3.9412,3.7485,3.5731,3.4511,3.3134,3.1997,3.2634,3.2305,3.1734,3.3729,3.5898,3.7178,3.2686,3.0317,2.9366,3.048,3.0251,0.0,0.0,3.0505,3.037,3.2995,3.2915,3.2399,3.3607,3.3856,3.4032,3.4706,3.4316,3.3869,3.372,3.3308,3.2331,3.0321,0.0,3.0404,3.071,3.1067,3.1857,3.3477,3.3774,3.3842,3.3869,3.3417,3.3152,3.3105,3.2535,3.2182,3.2223,3.2169,3.1884,3.1314,3.1205,3.0255,2.8352,2.6979,0.0,0.0,0.0,0.0,0.0,0.0,0.0,0.0,0.0,0.0,0.0,0.0,0.0,0.0,0.0,0.0,0.0,0.0,0.0,0.0,0.0,0.0,0.0,0.0,0.0,0.0,0.0,0.0,3.593,3.7971,0.0,3.6198,3.7365,3.8182,3.7961,3.9559,4.0591,4.0718,4.1826,4.2369,4.2137,4.328,4.3694,4.323,4.3943,4.4307,4.4307,4.4542,4.4463,4.3941,4.3504,4.3363,4.346,4.2584,4.2191,4.2207,4.0766,3.9182,3.7749,3.8105,3.6891,3.5107,3.6134,3.5715,3.4781,3.5869,3.6879,3.7329,3.5652,3.4115,3.3017,3.3449,3.3018,3.244,3.2874,3.2725,3.2603,3.3378,3.3257,3.3095,3.347,3.3775,3.4135,3.5155,3.5235,3.5086,3.5086,3.4299,3.3186,3.1703,3.2494,3.2806,3.1419,3.2191,3.3363,3.438,3.4516,3.4665,3.5045,3.4217,3.3946,3.4706,3.3173,3.2508,3.3268,3.2603,3.2074,3.187,3.1504,3.0812,2.9713,2.8327,2.6524,0.0,0.0,0.0,0.0,0.0,0.0,0.0,0.0,0.0,0.0,0.0,0.0,0.0,0.0,0.0,0.0,0.0,0.0,0.0,0.0,0.0,0.0,0.0,0.0,0.0,3.7484,3.894,3.7738,3.9875,4.077,3.8992,4.0552,4.1655,4.1612,4.296,4.372,4.3592,4.4281,4.4434,4.3864,4.466,4.4776,4.4174,4.4636,4.4805,4.468,4.4998,4.4837,4.438,4.4123,4.3994,4.3831,4.3135,4.2889,4.2782,4.186,4.0708,3.9604,4.0117,3.9249,3.7742,3.8162,3.7514,3.6664,3.736,3.7258,3.6793,3.6995,3.6219,3.518,3.518,3.4872,3.4508,3.4502,3.4508,3.4421,3.4262,3.3863,3.3702,3.4072,3.4072,3.4245,3.5439,3.571,3.5804,3.6152,3.548,3.458,3.3574,3.4571,3.4758,3.2481,3.3539,3.4607,3.4904,3.5324,3.5802,3.6517,3.5424,3.5008,3.5713,3.3377,3.2386,3.358,3.2345,3.1762,3.2155,3.1219,3.0336,2.974,2.8289,2.68,2.5263,0.0,0.0,0.0,0.0,0.0,0.0,0.0,0.0,0.0,0.0,0.0,0.0,0.0,0.0,0.0,0.0,0.0,0.0,0.0,0.0,0.0,0.0,0.0,3.8538,3.9354,4.0107,3.9949,4.2579,4.3686,4.1947,4.3834,4.5105,4.4981,4.6288,4.6935,4.6583,4.6808,4.6828,4.6514,4.6096,4.5692,4.5357,4.5341,4.5131,4.4738,4.4738,4.4721,4.4705,4.4721,4.4522,4.4154,4.4154,4.3837,4.3213,4.2814,4.2185,4.1241,4.0324,3.996,3.9743,3.8586,3.7706,3.7128,3.7868,3.7139,3.5955,3.6527,3.6189,3.5502,3.5488,3.5626,3.5797,3.5762,3.5733,3.5704,3.568,3.4855,3.4208,3.5438,3.482,3.4285,3.5453,3.5723,3.6072,3.7105,3.7176,3.6702,3.5937,3.6401,3.6311,3.4317,3.4977,0.0,3.5423,3.6462,3.7414,3.813,3.6968,3.6132,3.5953,3.3115,3.1802,3.301,3.1436,3.0988,3.2155,3.0362,2.908,2.85,2.6987,2.6291,2.6518,0.0,0.0,0.0,0.0,0.0,0.0,0.0,0.0,0.0,0.0,0.0,0.0,0.0,0.0,0.0,0.0,0.0,0.0,0.0,0.0,0.0,3.9639,4.1028,4.0564,4.2593,4.4331,4.4858,4.5531,4.5764,4.5258,4.6143,4.6735,4.6724,4.7313,4.7648,4.752,4.7936,4.7939,4.7305,4.7603,4.7455,4.6797,4.5976,4.55,4.5433,4.5178,4.4785,4.4372,4.4612,4.4373,4.3844,4.3844,4.3733,4.3527,4.3221,4.2903,4.2582,4.1512,4.06,3.9884,3.9489,3.8652,3.7689,3.7057,3.7168,3.7609,3.7723,3.7726,3.7616,3.7445,3.7281,3.7078,3.6886,3.6267,3.5687,3.5668,3.5465,3.5316,3.5642,3.5453,3.5518,3.6628,3.7181,3.7537,3.7839,3.8294,3.8413,3.7587,3.7648,3.7396,3.6255,3.6852,3.7414,3.7261,3.8025,3.8189,3.6892,3.6014,3.5288,3.4547,3.2545,3.1979,3.3607,3.244,3.2033,3.2793,3.1924,3.101,3.0124,2.8825,2.7828,0.0,0.0,0.0,0.0,0.0,0.0,0.0,0.0,0.0,0.0,0.0,0.0,0.0,0.0,0.0,0.0,0.0,0.0,0.0,0.0,0.0,0.0,4.2632,4.3981,4.396,4.506,4.6347,4.7577,4.6967,4.668,4.7347,4.741,4.761,4.8033,4.8273,4.863,4.9288,4.9436,4.9542,4.9649,4.9796,4.9477,4.8661,4.8015,4.73,4.6629,4.6282,4.5843,4.5323,4.5378,4.5117,4.4601,4.4601,4.4509,4.434,4.4005,4.3798,4.3572,0.0,0.0,0.0,0.0,3.9244,3.8105,3.7908,3.8299,3.8892,3.8743,3.8909,3.9076,3.8941,3.8896,3.8855,3.8687,3.7234,3.5683,3.5723,3.5694,3.5669,3.5732,3.6758,3.7853,3.852,3.851,3.8547,3.9018,3.9222,0.0,3.916,3.8855,3.8149,3.6825,3.7469,3.8246,3.8591,3.9481,3.9932,3.937,3.8388,3.7272,3.6228,3.3853,0.0,0.0,0.0,3.2101,3.1866,3.1297,0.0,0.0,0.0,0.0,0.0,2.8917,0.0,0.0,2.7079,2.7056,0.0,0.0,0.0,0.0,0.0,0.0,0.0,0.0,0.0,0.0,0.0,0.0,0.0,0.0,0.0,0.0,4.6231,4.808,4.7681,4.688,4.6936,4.8537,4.7375,4.6976,4.8257,4.7941,4.805,4.9017,4.9222,4.9916,5.1286,5.1098,0.0,0.0,0.0,5.1498,5.0727,5.0593,4.9821,4.8383,4.7923,4.7502,4.718,4.6668,4.6297,4.5988,4.5921,4.5781,4.5456,4.5098,4.4724,4.4269,4.2671,4.2061,4.1933,4.095,3.9733,3.8629,3.9753,0.0,0.0,3.9685,3.979,3.9994,4.0051,4.0279,4.0613,4.0492,3.8502,3.6294,3.5829,3.5719,3.5705,3.5678,3.8167,4.0474,4.0501,3.9728,3.9358,4.0281,3.9892,3.9692,4.0385,3.992,3.8773,3.6948,3.7594,3.8694,3.9688,4.0828,4.1987,4.3131,4.1903,0.0,3.9102,3.5969,3.4267,3.4787,3.3227,3.1762,3.0483,2.9997,2.9578,2.932,2.9114,2.9742,3.1272,3.1127,3.1016,3.0737,2.7825,2.7316,0.0,0.0,0.0,0.0,0.0,0.0,0.0,0.0,0.0,0.0,0.0,0.0,0.0,0.0,0.0,4.3706,4.6116,4.7979,4.8418,4.8129,4.785,4.7717,4.7889,4.7959,4.7643,4.8591,4.9363,4.9556,5.0729,5.157,5.1829,5.256,5.303,5.3307,5.3109,5.2892,5.2758,5.1866,5.1295,5.0942,4.9676,0.0,4.896,4.7852,4.7324,4.7193,4.6854,4.6669,4.6559,4.6158,4.5391,4.4236,4.2414,4.1693,4.1645,4.1484,4.1207,4.0974,4.1174,4.0696,4.004,4.0909,4.0966,4.0624,4.082,4.1117,0.0,4.0699,4.0462,3.9715,3.6556,3.5672,3.5737,3.5718,3.8193,4.0501,4.0502,4.0349,4.0236,4.043,4.0362,4.0301,4.0455,4.037,3.9914,3.8904,3.9455,4.0314,4.095,4.1802,4.2038,4.1273,4.0919,3.9845,3.7719,3.5958,3.4927,3.4787,3.3607,3.2576,3.1857,3.2182,3.1936,3.1103,3.1089,3.1043,3.1061,3.1444,3.1602,3.1589,3.0636,3.0254,0.0,0.0,0.0,0.0,0.0,0.0,0.0,0.0,0.0,0.0,0.0,4.0161,4.1501,0.0,4.448,4.6178,4.7831,4.8807,4.8565,4.9065,4.9203,4.8448,4.8325,4.8484,4.8838,4.9731,5.0434,5.082,5.1944,5.2769,5.3138,5.3626,5.4084,5.4503,5.4423,5.4281,5.4008,5.3485,5.2898,5.2264,5.1307,5.0832,5.057,4.9365,4.8919,4.9063,4.8439,4.8032,4.777,4.7061,4.6438,4.5734,4.4268,4.2956,4.1892,4.1667,4.1604,4.162,4.1594,4.1205,4.0821,4.1397,4.1397,4.1256,4.1343,4.1472,4.1484,4.1127,4.1295,4.1115,3.914,3.8385,3.813,3.8086,4.0382,4.2196,4.0807,4.0501,4.0517,4.0532,4.0524,4.0524,4.0524,4.0524,4.037,3.999,4.0537,4.129,4.1921,4.2643,4.299,4.2663,4.2183,4.1367,3.9872,3.7875,3.6514,3.6009,3.4444,3.3331,3.2704,3.2616,3.2334,3.1757,3.1683,3.1593,3.1557,3.1705,3.1993,3.2267,3.2251,3.206,0.0,0.0,0.0,0.0,0.0,0.0,0.0,3.8334,3.8588,4.0472,4.1632,4.2809,4.4617,4.5562,4.6722,4.8574,4.9577,4.9731,4.8656,4.9853,5.0566,4.991,4.9159,4.9245,5.0671,5.1101,5.1563,5.232,5.3018,5.3664,5.4279,5.4454,5.484,5.549,5.5507,5.5312,5.4852,5.4852,5.4337,5.3324,5.2882,5.2489,5.2138,5.098,5.0588,5.0712,4.9804,4.9178,4.8765,4.7998,4.7523,4.7194,4.6254,4.4645,4.2805,4.2322,4.2122,4.1999,4.1659,4.1826,4.2078,4.1695,4.172,4.1778,4.1636,4.1588,4.1588,4.1588,4.181,4.1984,4.1999,4.1393,4.086,4.1331,4.2702,4.3395,4.1326,4.0705,4.0561,4.0639,4.0608,4.0608,4.0608,4.0593,4.057,4.0709,4.1109,4.1694,4.2509,4.3063,4.3633,4.431,4.3928,4.3265,4.2449,4.0003,3.8149,3.7414,3.5702,3.4407,3.3555,3.3197,3.2732,3.2185,3.2112,3.211,3.2225,3.2083,3.2359,3.3038,3.3299,3.3289,3.3107,3.5233,3.715,3.7075,3.7558,3.9221,0.0,4.3558,4.3193,4.565,4.7255,4.8095,4.7666,4.8114,4.8574,4.8853,4.9577,4.9917,4.9448,5.0471,5.1397,5.1605,5.118,5.1203,5.2072,5.244,5.2941,5.3725,5.4055,5.4208,5.4314,5.4981,5.542,5.5507,5.5507,5.5448,5.5389,5.5389,5.5336,5.5172,5.4454,5.4069,5.3964,5.2768,5.1879,5.1129,4.9923,4.9342,4.9282,4.9222,4.8416,4.7224,4.6651,4.5759,4.4708,4.4265,4.3806,4.3311,4.2061,4.2685,4.3781,4.2141,4.2062,4.2442,4.1778,4.1588,4.1588,4.1588,4.2512,4.3468,4.3443,4.2495,4.1984,4.4138,4.306,4.1619,4.2209,4.1596,4.0919,4.1034,4.1034,4.1034,4.1034,4.0882,4.0947,4.1386,4.1001,4.1124,4.2432,4.2679,4.2971,4.3618,4.4142,4.3899,4.2526,4.0919,3.9426,3.8231,3.7418,3.6475,3.5105,3.5623,3.5125,3.3331,3.339,3.3186,3.2594,3.2594,3.3156,3.4214,3.4392,3.3951,3.7338,3.8194,3.859,4.0606,4.0851,4.141,4.4518,4.4871,4.5271,4.7822,4.9524,5.0471,5.012,5.0613,5.0968,5.0432,5.1026,5.1324,5.0694,5.1454,5.1974,5.1656,5.2699,5.345,5.3504,5.4164,5.4738,5.508,5.5595,5.5955,5.5955,5.6224,5.6311,5.5957,5.5957,5.5822,5.5507,5.5507,5.5507,5.5507,5.5174,5.5016,5.4981,5.3999,5.2852,5.1608,5.0334,4.9815,4.9756,4.9325,4.8781,4.8178,4.7407,4.6879,4.6364,4.4936,4.4129,4.3643,4.3016,4.3321,4.3838,4.3058,4.3042,4.3153,4.2442,4.2505,4.2742,4.2347,4.2952,4.3717,4.3696,4.3268,4.2879,4.3055,4.2255,4.1504,4.1897,4.1573,4.1153,4.1065,4.1117,4.1117,4.1117,4.1034,4.1184,4.1798,4.1465,4.1355,4.194,4.2371,4.2863,4.3494,4.3818,4.3958,4.367,4.2395,4.1175,4.0233,3.915,3.8014,3.6574,3.6807,3.6143,3.4335,3.4233,3.4113,3.3949,3.3773,3.428,3.5391,3.6055,3.5811,3.8941,3.9783,4.0195,4.268,4.3397,4.3771,4.4962,4.5986,4.7177,4.8952,5.0707,5.1852,5.156,5.2139,5.2475,5.1825,5.2587,5.307,5.2475,5.2902,5.3144,5.2791,5.4296,5.531,5.5207,5.5752,5.6218,5.6437,5.6871,5.7116,5.7116,5.7116,5.6912,5.651,5.651,5.6311,5.5975,5.5957,5.5861,5.5706,5.5706,5.5666,5.549,5.4682,5.3594,5.2295,5.1137,5.0498,5.0307,4.9698,4.9368,4.9188,4.8413,4.8094,4.7769,4.5911,4.4925,4.4383,4.4208,4.4186,4.4211,4.3848,4.3848,4.3864,4.3169,4.3311,4.3627,4.3121,4.3469,4.399,4.399,4.3952,4.3694,4.2956,4.2209,4.1658,4.1953,4.1837,4.1647,4.1315,4.1393,4.1471,4.1268,4.1169,4.1325,4.181,4.1627,4.1511,4.1696,4.2073,4.2628,4.3233,4.331,4.3571,4.4249,4.3417,4.2628,4.2077,4.117,4.0031,3.8602,3.8735,3.8062,3.6365,3.5874,3.5636,3.5608,3.5199,3.5476,3.6358,3.752,3.7434,3.5329,3.8399,4.1361,4.1532,4.4,4.632,4.6101,4.7939,4.9599,4.9352,5.1208,5.2597,5.1672,5.2121,5.2587,5.2568,5.3887,5.4927,5.489,5.4927,5.5243,5.606,5.6227,5.6562,5.7301,5.6977,5.6997,5.7767,5.7395,5.7116,5.7116,5.7116,5.7116,5.7065,5.7065,5.7065,5.7065,5.7065,5.6809,5.6257,5.6257,5.6014,5.549,5.4682,5.3875,5.3102,5.2312,5.1558,5.0873,5.0836,5.0564,5.0045,4.9664,4.9231,4.8742,4.7819,4.6952,4.6141,4.5485,4.5444,4.5523,4.4164,4.4164,4.4543,4.3848,4.369,4.3722,4.3706,4.4164,4.4685,4.4685,4.452,4.4567,4.5437,4.3558,4.1821,4.2758,4.2936,4.2683,4.1762,4.2157,4.2426,4.1715,4.139,4.1323,4.1339,4.1185,4.1367,4.2006,4.1907,4.2045,4.2556,4.2633,4.2894,4.3541,4.3556,4.3541,4.3541,4.3494,4.2894,4.1515,4.2083,4.1617,3.9892,3.8866,3.8164,3.7757,3.6988,3.6766,3.6972,3.856,3.8474,3.9224,4.1325,4.3341,4.5583,4.6012,4.6159,4.7144,4.7827,4.8568,4.9538,4.9873,5.0029,5.0078,5.1166,5.1948,5.1843,5.4261,5.6182,5.6182,5.6413,5.6436,5.6191,5.6889,5.7323,5.7061,5.7643,5.8129,5.8388,5.8257,5.8168,5.8168,5.8168,5.8015,5.7653,5.7606,5.7462,5.7116,5.7116,5.7015,5.6809,5.6456,5.6014,5.549,5.4682,5.3892,5.3138,5.2365,5.1593,5.0891,5.0891,5.0819,5.0564,5.0102,4.9855,4.9622,4.9006,4.8493,4.7819,4.6415,4.6039,4.604,4.5326,4.5254,4.5302,4.4575,4.4717,4.5001,4.4512,4.4891,4.5444,4.5444,4.5358,4.5437,4.573,4.4085,4.2611,4.2921,4.2863,4.2746,4.2378,4.2884,4.3295,4.3026,4.2926,4.2716,4.2327,4.1601,4.1112,4.1246,4.1208,4.1349,4.1863,4.194,4.2217,4.2879,4.294,4.311,4.3541,4.3571,4.3371,4.2925,4.3125,4.2198,4.0037,4.0008,3.9527,3.8627,3.8672,3.8699,3.8759,3.994,3.9631,4.1798,4.3512,4.4949,4.7105,4.6907,4.6344,4.6995,4.7645,4.8411,4.9363,4.9277,4.9102,4.9485,5.084,5.1662,5.0923,5.3766,5.6206,5.6488,5.6438,5.6535,5.6956,5.7724,5.8046,5.7488,5.82,5.8669,5.8679,5.8438,5.8401,5.8679,5.8716,5.8553,5.8257,5.8213,5.8041,5.7757,5.7747,5.7653,5.7473,5.6946,5.6456,5.6146,5.537,5.4461,5.3455,5.274,5.1839,5.0891,5.0891,5.0891,5.0891,5.0509,5.038,5.0307,4.9815,4.9504,4.905,4.7389,4.6811,4.6828,4.6064,4.5936,4.6024,4.531,4.5428,4.5713,4.5238,4.5444,4.5807,4.5807,4.5825,4.5802,4.5809,4.4614,4.3485,4.351,4.3431,4.3342,4.3105,4.3611,4.399,4.3737,4.3706,4.3564,4.3121,4.2391,4.1647,4.1013,4.0867,4.09,4.117,4.1217,4.1494,4.2186,4.2248,4.2525,4.3187,4.3217,4.3325,4.3556,4.3571,4.2985,4.1674,4.0955,4.0408,4.0009,3.9548,3.9353,3.927,4.0524,4.0097,4.288,4.4801,4.6125,4.617,4.6705,4.6957,4.5918,4.7552,4.9163,4.8789,4.9181,4.9562,4.9409,5.0844,5.1537,4.9853,5.2608,5.5255,5.6053,5.555,5.6007,5.8443,5.8758,5.8748,5.8715,5.8646,5.8646,5.8769,5.7996,5.7884,5.8702,5.8739,5.8758,5.8899,5.8799,5.8821,5.8984,5.8921,5.8661,5.819,5.7617,5.7346,5.7297,5.6616,5.5455,5.3991,5.3437,5.2333,5.0891,5.0891,5.0891,5.0891,5.0891,5.0891,5.0819,5.0307,5.0159,4.993,4.8286,4.79,4.7917,4.6388,4.6301,4.6689,4.6064,4.5807,4.5807,4.5807,4.5807,4.5807,4.5807,4.5807,4.5817,4.5794,4.5112,4.4394,4.4399,4.455,4.4527,4.3895,4.4322,4.4559,4.3943,4.3832,4.3816,4.3715,4.3544,4.2902,4.1382,4.1028,4.0777,4.0586,4.0555,4.0801,4.1478,4.154,4.1832,4.2525,4.2556,4.2848,4.3494,4.3525,4.3818,4.4373,4.1798,4.0755,4.1489,3.9696,3.8749,3.8625,4.0451,4.0022,4.4943,4.5815,4.6328,4.6983,4.727,4.7307,4.689,4.7791,4.8482,4.7703,4.6641,4.5418,4.3963,4.6517,4.8658,4.8017,5.3105,5.743,5.8265,5.8985,5.9661,6.0296,6.015,5.9963,5.9936,5.9169,5.8924,5.9536,5.8552,5.8315,5.9251,5.9044,5.8924,5.8964,5.8924,5.8964,5.8984,5.9003,5.8706,5.819,5.8058,5.7767,5.7352,5.6477,5.5314,5.4056,5.3228,5.2166,5.0891,5.0891,5.0891,5.0891,5.0891,5.0891,5.0891,5.0764,5.0692,5.0564,4.947,4.8927,4.8572,4.7803,4.7272,4.6932,4.662,4.6191,4.5807,4.5807,4.5807,4.5807,4.5807,4.5807,4.5792,4.5801,4.5175,4.4638,4.4591,4.4654,4.4654,4.4496,4.5049,4.5476,4.5302,4.527,4.5025,4.433,4.4109,4.3669,4.2708,4.2008,4.1504,4.1324,4.0847,4.0601,4.0786,4.0801,4.1109,4.1817,4.1848,4.2155,4.2833,4.2848,4.2541,4.191,4.1085,4.0342,3.9734,3.9173,3.8927,3.8946,3.9448,3.9412,4.5624,4.6387,4.6797,4.6894,4.7217,4.7166,4.5903,4.6551,4.6948,4.5281,4.3802,4.2459,4.1397,4.4587,4.7088,4.6179,5.2233,5.7244,5.7723,5.9008,6.0054,6.0461,6.0627,6.0558,6.0169,5.9571,5.9511,6.0316,5.9117,5.8759,5.9625,5.9378,5.9234,5.9271,5.9082,5.9042,5.9081,5.912,5.8986,5.8691,5.8669,5.8484,5.8153,5.6987,5.5842,5.4771,5.3628,5.2548,5.1569,5.1297,5.1211,5.1211,5.0981,5.0891,5.0891,5.0891,5.0891,5.0819,5.0363,5.0005,4.9622,4.8522,4.8077,4.79,4.7523,4.7101,4.6652,4.6317,4.6246,4.6246,4.6246,4.5992,4.5864,4.6191,4.5675,4.5191,4.5191,4.5191,4.5191,4.5191,4.5523,4.5807,4.5807,4.6044,4.6034,4.539,4.5462,4.5266,4.4402,4.3061,4.216,4.2048,4.1678,4.1324,4.1032,4.1001,4.1032,4.1124,4.1124,4.1447,4.214,4.2171,4.1989,4.1581,4.0708,3.9934,3.9247,3.8394,3.8254,3.871,3.8727,3.892,4.5841,4.6707,4.7147,4.6566,4.705,4.7015,4.4491,4.5098,4.5405,4.2611,4.1283,4.0559,4.0254,4.3742,4.6214,4.48,5.0904,5.6016,5.6459,5.7791,5.9087,6.0129,6.0768,6.0827,6.0056,5.9978,6.0268,6.0964,5.9772,5.9293,5.996,5.9728,5.9601,5.9635,5.9271,5.914,5.9215,5.9272,5.929,5.929,5.9253,5.9215,5.914,5.7658,5.6557,5.5757,5.418,5.3145,5.2472,5.1928,5.1701,5.1651,5.1245,5.107,5.0981,5.0981,5.0927,5.0891,5.0891,5.0891,5.0637,4.9137,4.8894,4.905,4.8413,4.8127,4.7819,4.7153,4.6949,4.6965,4.7062,4.6641,4.6351,4.6948,4.6715,4.6319,4.6038,4.5871,4.5807,4.5807,4.5807,4.5839,4.5934,4.6408,4.676,4.6614,4.6903,4.692,4.6098,4.4123,4.2833,4.274,4.2663,4.2371,4.1786,4.1648,4.134,4.0709,4.0586,4.0816,4.1432,4.1463,4.1582,4.2004,4.0397,3.9413,3.9139,3.7585,3.7175,3.7886,3.7962,3.853,4.7509,4.7038,4.6327,4.7287,4.804,4.8059,4.6035,4.6443,4.6072,4.1972,4.0984,4.0179,3.7984,4.164,4.5117,4.5422,5.0839,5.6004,5.8911,5.9551,6.0328,6.1934,6.1624,6.1155,6.0905,6.0867,6.0925,6.106,6.0848,6.0644,6.0551,6.0253,5.9985,5.9791,5.9692,5.954,5.9272,5.929,5.929,5.929,5.9309,5.9272,5.9215,5.7548,5.6459,5.5862,5.4059,5.2962,5.2454,5.2271,5.2159,5.2159,5.2065,5.1813,5.1467,5.1467,5.1245,5.0891,5.0891,5.0891,5.0819,5.0345,4.9896,4.947,4.905,4.8555,4.7998,4.7754,4.7688,4.782,4.8464,4.8562,4.8439,4.8556,4.8968,4.8875,4.7018,4.6202,4.5807,4.5807,4.5807,4.5981,4.6534,4.6724,4.6843,4.7028,4.7138,4.7014,4.6513,4.5141,4.4018,4.3464,4.2925,4.2556,4.2448,4.1925,4.1555,4.1432,4.0863,4.0586,4.0709,4.0585,4.0506,4.0416,3.9194,3.8199,3.736,3.662,3.6203,3.6136,3.683,3.7954,4.6829,4.6438,4.5949,4.66,4.7501,4.7372,4.4147,4.4101,4.3537,3.9232,3.8286,3.8,3.7156,4.049,4.3594,4.4381,5.0364,5.5482,5.715,5.9702,6.1542,6.1923,6.2021,6.1841,6.1317,6.1225,6.12,6.12,6.1134,6.1041,6.0922,6.0618,6.03,6.0034,6.0004,5.9849,5.954,5.954,5.9489,5.929,5.929,5.929,5.9234,5.7583,5.6668,5.6369,5.4464,5.3547,5.3289,5.2871,5.274,5.2696,5.2391,5.2159,5.194,5.194,5.1813,5.1583,5.1331,5.1245,5.1193,5.0838,5.0474,5.0085,4.9873,4.9521,4.9084,4.8572,4.8446,4.853,4.8882,4.8709,4.8647,4.9376,4.9271,4.8944,4.8611,4.7684,4.7061,4.7397,4.7477,4.7444,4.7383,4.7656,4.7851,4.7809,4.8074,4.8009,4.7253,4.6557,4.5757,4.4726,4.4341,4.3879,4.3171,4.2817,4.2479,4.214,4.1801,4.1377,4.0938,4.0867,4.0487,3.9854,3.9364,3.8473,3.7334,3.7039,3.69,3.6718,3.6564,3.7695,4.58,4.5796,4.5805,4.5797,4.6688,4.6481,4.2212,4.1741,4.1035,3.6835,3.5916,3.6099,3.6935,3.9609,4.2041,4.3218,4.9158,5.4013,5.5141,5.9103,6.1859,6.1732,6.2325,6.2394,6.149,6.1348,6.1318,6.1318,6.1213,6.1116,6.1099,6.0901,6.0638,6.0326,6.03,6.0161,5.9899,5.9868,5.9739,5.9486,5.9486,5.9376,5.908,5.7667,5.6845,5.653,5.4853,5.4146,5.4055,5.3524,5.3281,5.3222,5.2784,5.2571,5.2481,5.2481,5.2391,5.2253,5.1861,5.1732,5.1701,5.1331,5.0982,5.0602,5.0453,5.0359,5.0114,4.9342,4.9161,4.9195,4.9348,4.895,4.8932,5.0447,4.9476,4.858,5.0008,4.9203,4.8339,4.868,4.9034,4.9053,4.8413,4.8815,4.9075,4.8765,4.9126,4.8918,4.7762,4.775,4.7287,4.5926,4.568,4.5157,4.4095,4.3741,4.3356,4.2848,4.2694,4.2283,4.1515,4.1347,4.0811,3.9907,3.9757,3.903,3.7713,3.7924,3.7968,3.7691,3.7408,3.8248,4.5789,4.5803,4.5812,4.5805,4.6531,4.6319,4.2801,4.2148,4.1086,3.6792,3.5953,3.6208,3.6966,3.8656,4.0682,4.3024,4.6649,5.0839,5.56,5.805,6.0182,6.2496,6.2828,6.2493,6.15,6.1383,6.1403,6.1403,6.1331,6.1213,6.1099,6.108,6.0942,6.0661,6.0661,6.0495,6.0189,6.017,6.0142,6.0113,6.0113,5.9604,5.864,5.7693,5.6719,5.565,5.4699,5.42,5.4091,5.3963,5.3851,5.3717,5.366,5.3404,5.3036,5.3036,5.274,5.2281,5.2253,5.2253,5.2253,5.2206,5.1583,5.0819,5.0526,5.0415,5.0302,4.9976,4.9877,5.0032,5.0703,5.0875,5.1176,5.2716,5.0902,4.9227,5.077,4.9941,4.8709,4.8102,4.9095,4.9944,4.9864,4.9879,4.9989,5.016,4.9732,4.8982,4.7766,4.8199,4.8059,4.6652,4.5957,4.5541,4.5418,4.4279,4.3541,4.3479,4.294,4.2498,4.2187,4.1462,4.0895,4.0586,3.9869,3.8841,3.7682,3.8752,3.872,3.7732,3.9902,4.0263,4.5246,4.5513,4.6047,4.7108,4.609,4.4376,4.2568,4.1388,3.9789,3.6606,3.5976,3.6398,3.7695,3.8541,3.9696,4.1685,4.4504,4.7704,5.1379,5.5153,5.8323,6.042,6.2022,6.2605,6.1678,6.1534,6.149,6.1412,6.1343,6.1274,6.1213,6.1134,6.1041,6.0942,6.0942,6.0795,6.0501,6.0501,6.0399,6.0198,6.0198,5.9722,5.8796,5.7949,5.6918,5.5781,5.4924,5.4386,5.4091,5.4019,5.3907,5.3813,5.3813,5.3678,5.3542,5.3542,5.3385,5.3143,5.2871,5.2784,5.274,5.2391,5.2036,5.1615,5.1052,5.0657,5.0359,5.0051,5.0011,5.008,5.0373,5.0787,5.1269,5.1873,5.0805,5.0028,5.152,5.0684,4.9687,4.9793,5.0326,5.0543,5.0089,4.9998,4.9938,4.9783,4.9532,4.9151,4.8406,4.8541,4.8529,4.7934,4.726,4.6634,4.6234,4.5695,4.5218,4.4803,4.4926,4.4373,4.2936,4.2863,4.2182,4.0988,4.0412,3.9683,3.8733,3.9164,3.9562,3.9978,4.0964,4.1173,4.4901,4.5495,4.6435,4.7717,4.5825,4.3366,4.2382,4.0649,3.8708,3.6742,3.6342,3.6875,3.8574,3.8921,3.942,4.0865,4.352,4.6117,4.8228,5.2744,5.6282,5.7517,5.947,6.0681,6.0586,6.1223,6.1486,6.1105,6.1023,6.0869,6.0545,6.0693,6.0863,6.1099,6.1099,6.1002,6.0817,6.0817,6.0708,6.0457,6.0207,5.9645,5.8745,5.7864,5.6847,5.5721,5.5103,5.4666,5.4397,5.4315,5.4231,5.4106,5.3981,5.3963,5.3926,5.3832,5.3813,5.3756,5.3404,5.3322,5.3263,5.2871,5.2634,5.2454,5.1861,5.1296,5.0803,5.038,5.0149,5.0011,5.0011,5.039,5.0838,5.1063,5.0549,5.0383,5.1597,5.1079,5.0538,5.0997,5.1278,5.1282,5.076,5.0476,5.0191,4.9901,4.978,4.9571,4.9004,4.9255,4.9345,4.9098,4.8828,4.8151,4.7022,4.6711,4.6388,4.5911,4.6263,4.58,4.4159,4.4033,4.3225,4.1746,4.1204,4.0634,4.0025,4.0351,4.0903,4.1609,4.1835,4.204,4.4897,4.5867,4.6942,4.7162,4.58,4.3989,4.2446,4.0185,3.8174,3.7366,3.7198,3.7727,3.9465,3.9785,4.0077,4.0955,4.4011,4.6596,4.7486,5.1313,5.403,5.4056,5.4837,5.605,5.7772,6.0215,6.1305,6.0378,6.0315,5.9845,5.8778,5.9541,6.034,6.1079,6.1099,6.1099,6.1099,6.1099,6.1099,6.1079,6.0286,5.9302,5.8165,5.73,5.628,5.5212,5.5193,5.5141,5.5088,5.5026,5.4943,5.4847,5.4463,5.4296,5.4246,5.3926,5.3813,5.3813,5.3794,5.3794,5.3794,5.3813,5.3444,5.3096,5.2907,5.2463,5.1848,5.1087,5.0457,5.0011,5.0011,5.0011,5.02,5.0942,5.0545,5.0218,5.0959,5.1114,5.1064,5.1078,5.1691,5.218,5.2162,5.1558,5.1003,5.0839,5.0676,5.0224,4.929,5.0336,5.0834,5.0083,5.0617,5.008,4.7796,4.6988,4.6603,4.6588,4.6444,4.6203,4.5946,4.4574,4.3658,4.3314,4.2064,4.1388,4.1374,4.2621,4.2818,4.1978,4.2874,4.3109,4.1014,4.3536,4.5091,4.3222,4.3239,4.3129,4.0956,3.893,3.7443,3.7233,3.7199,3.7728,3.9488,3.9802,4.0272,4.1756,4.2917,4.4348,4.6424,5.0406,5.3338,5.3932,5.6319,5.8354,5.9509,5.9842,5.9862,5.9567,5.9452,5.9265,5.8928,5.904,5.9468,6.0248,6.0809,6.1099,6.1099,6.1099,6.1099,6.1099,6.0286,5.9398,5.8433,5.7564,5.6539,5.5477,5.5477,5.5317,5.5088,5.5026,5.4943,5.4876,5.4716,5.4654,5.4591,5.4281,5.4142,5.4125,5.387,5.3813,5.3813,5.3813,5.3717,5.3582,5.3542,5.282,5.1897,5.1482,5.0999,5.0564,5.0564,5.0246,5.0062,5.0304,5.0183,5.02,5.0942,5.1114,5.1262,5.1741,5.1605,5.1641,5.2101,5.1621,5.1234,5.1543,5.1439,5.1183,5.0841,5.0977,5.1027,5.0785,5.0977,5.079,5.0032,4.9764,4.9199,4.795,4.8292,4.7753,4.6006,4.5755,4.5514,4.5092,4.3504,4.2698,4.2678,4.3064,4.3079,4.2595,4.3263,4.3375,3.8708,4.1513,4.3197,4.153,4.1514,4.1512,4.0032,3.8116,3.6859,3.7539,3.7683,3.8224,3.996,4.0294,4.0643,4.1738,4.2749,4.4181,4.6475,4.9911,5.253,5.3416,5.5963,5.7884,5.8414,5.8924,5.9062,5.873,5.8628,5.8437,5.8089,5.8242,5.8542,5.9013,6.0087,6.0654,6.0654,6.0944,6.1099,6.1099,5.9957,5.9126,5.8546,5.7366,5.6424,5.575,5.575,5.5628,0.0,5.5356,5.5306,5.5275,5.5064,5.5,5.4952,5.4623,5.4495,5.4463,5.4246,5.4177,5.4177,5.4177,5.4089,5.3963,5.3756,5.2993,5.2214,5.1946,5.1518,5.1105,5.1105,5.0857,5.0602,5.0602,5.0602,5.0687,5.095,5.1223,5.1523,5.2063,5.1839,5.177,5.2528,5.2028,5.1623,5.1984,5.209,5.2072,5.1915,5.2024,5.2034,5.2048,5.2013,5.1871,5.1597,5.1019,5.0043,4.872,4.8875,4.8273,4.6827,4.6796,4.6704,4.6431,4.502,4.4117,4.3793,4.3479,4.3304,4.3382,4.3315,4.3289,0.0,3.9642,4.1125,4.1312,4.025,3.9189,3.9388,3.7592,0.0,3.8149,3.85,3.9026,4.0779,4.1106,4.1124,4.1183,4.3281,4.554,4.7341,4.9895,5.1925,5.2878,5.4418,5.5363,5.5304,5.7557,5.8672,5.7871,5.7812,5.7439,5.6552,5.7211,5.7596,5.7524,5.8969,5.9761,5.9802,6.0673,6.1079,6.1002,5.9358,5.8604,5.8526,5.6786,5.6012,5.6012,5.6012,5.6012,5.5975,5.5923,5.5905,5.5865,5.548,5.5339,5.5288,5.4952,5.4836,5.4836,5.4806,5.4806,5.4806,5.4806,5.4591,5.4246,5.3737,5.318,5.2696,5.2527,5.206,5.1669,5.1669,5.1619,5.1601,5.1601,5.1601,5.1485,5.1087,5.1525,5.2004,5.2295,5.2261,5.2434,5.3184,5.2701,5.2157,5.2052,5.2518,5.2823,5.2612,5.316,5.3501,5.3501,5.3501,5.3162,5.23,5.0888,4.975,4.8893,4.8335,4.8105,4.8026,4.7463,4.7171,4.7262,4.6352,4.5475,4.4689,4.3718,4.3528,4.4035,4.3138,4.2922,3.567,0.0,3.693,3.7025,3.6899,3.6731,0.0,3.6331,3.6395,3.8149,3.85,3.9026,4.0779,4.1106,4.1319,4.1984,4.3164,4.4821,4.7185,5.0913,5.3954,5.5497,5.6044,5.6035,5.5363,5.6458,5.7127,5.6914,5.6914,5.6816,5.6599,5.6719,5.6777,5.6762,5.7663,5.8421,5.8993,6.0397,6.0789,6.017,5.9106,5.8604,5.8526,5.6786,5.6012,5.6012,5.6012,5.6012,5.5975,5.5923,5.5905,5.5885,5.5662,5.5596,5.5573,5.5269,5.5164,5.5138,5.4895,5.4806,5.4806,5.4806,5.4746,5.4623,5.4359,5.3814,5.3258,5.3085,5.2608,5.2203,5.2203,5.1915,5.1601,5.1601,5.1601,5.1889,5.2944,5.2838,5.2732,5.3549,5.277,5.2074,5.2417,5.2217,5.2052,5.1974,5.2853,5.3307,5.2697,5.316,5.3501,5.3501,5.3501,5.2959,5.1589,5.1614,5.104,4.936,4.8609,4.7804,4.6916,4.6146,4.6211,4.7232,4.5798,4.478,4.4362,4.3498,4.3085,4.3035,4.3128,4.3113,3.5254,3.574,3.6156,3.6195,3.6347,3.6508,3.6507,3.6181,3.6279,3.7623,3.8227,3.8909,4.0253,4.146,4.229,4.238,4.4442,4.6931,4.9511,5.1929,5.4047,5.581,5.5654,5.5544,5.5851,5.6321,5.6598,5.6601,5.6601,5.6601,5.6601,5.6577,5.6551,5.6551,5.7646,5.8189,5.8104,5.9355,5.9758,5.9281,5.841,5.8004,5.7965,5.6611,5.6012,5.6012,5.6012,5.6012,5.5975,5.5923,5.5905,5.5885,5.5745,5.5703,5.5662,5.5551,5.5485,5.5461,5.5295,5.5224,5.5198,5.5064,5.5028,5.4952,5.4597,5.4156,5.368,5.3502,5.3091,5.2761,5.2761,5.2563,5.2315,5.2315,5.2315,5.2593,5.354,5.3401,5.3202,5.3605,5.3015,5.2368,5.2192,5.2389,5.2489,5.2364,5.3164,5.3498,5.3058,5.3314,5.3365,5.2993,5.2959,5.235,5.0828,5.1017,5.0591,4.9194,4.8588,4.7821,4.6731,4.6134,4.604,4.641,4.517,4.446,4.4317,4.3403,4.3078,4.316,4.2972,4.2898,3.5739,3.6635,3.7411,3.7024,3.7156,3.737,3.7233,0.0,0.0,0.0,0.0,3.885,3.998,4.1948,4.3266,4.2841,4.6279,4.9915,5.2519,5.3119,5.3731,5.4955,5.4685,5.4867,5.6085,5.644,5.66,5.6601,5.6601,5.6601,5.6601,5.6601,5.6601,5.6601,5.7918,5.8188,5.7266,5.8357,5.8814,5.8632,5.776,5.7337,5.7318,5.643,5.6026,5.6026,5.5993,5.6012,5.5995,5.5943,5.5885,5.5885,5.5745,5.5703,5.5703,5.5703,5.5703,5.5703,5.5703,5.5703,5.5662,5.5437,5.5364,5.5269,5.4779,5.4406,5.4086,5.3925,5.3524,5.3206,5.3206,5.3206,5.3206,5.3206,5.3206,5.328,5.3672,5.3588,5.3412,5.3211,5.2954,5.2604,5.2018,5.2458,5.2803,5.2494,5.3034,5.3364,5.3162,5.3162,5.2892,5.2198,5.2131,5.1572,5.0202,5.0008,4.9577,4.882,4.8348,4.7599,4.6592,4.6315,4.5844,4.514,4.4601,4.4317,4.4236,4.3403,4.3131,4.346,4.2737,4.2519,3.6477,3.8471,3.9761,3.7538,3.7642,3.811,3.737,3.7097,3.7038,0.0,3.7896,3.9201,4.15,4.2241,4.2935,4.4304,4.7543,5.0781,5.3368,5.4995,5.5488,5.4333,5.5375,5.5736,5.4523,5.5734,5.6598,5.6601,5.6601,5.6601,5.6601,5.6601,5.6601,5.6601,5.6835,5.6864,5.664,5.8791,5.9542,5.8831,5.7975,5.7546,5.7516,5.6589,5.6168,5.6154,5.6059,5.5996,5.598,5.5924,5.5885,5.5826,5.5724,5.5703,5.5703,5.5703,5.5703,5.5703,5.5703,5.5703,5.5684,5.564,5.5596,5.5527,5.5369,5.5072,5.4739,5.4666,5.3944,5.3206,5.3206,5.3206,5.3206,5.3206,5.3206,5.3384,5.4129,5.3719,5.3314,5.3508,5.2605,5.1598,5.0864,5.1407,5.1674,5.0873,5.1753,5.2249,5.1657,5.1572,5.1522,5.1403,5.1386,5.1031,5.0168,5.0008,4.9513,4.8597,4.7754,4.6538,4.4951,4.4716,4.4614,4.4466,4.4362,4.4236,4.4005,4.3175,4.2666,4.262,4.2301,4.2136,3.6106,3.7595,3.8948,3.9169,4.0611,4.1851,4.1442,4.0994,4.0409,3.9493,3.998,4.0916,4.2085,4.3838,4.63,4.9887,5.0614,5.1494,5.3596,5.382,5.3808,5.3983,5.4713,5.5254,5.5382,5.6126,5.6599,5.6601,5.6601,5.6601,5.6601,5.7051,5.709,5.6601,5.7519,5.7988,5.7962,5.9058,5.8903,5.7496,5.7087,5.6884,5.6823,5.6425,5.6181,5.6087,5.6067,5.6026,5.5981,5.5885,5.5826,5.5787,5.5724,5.5703,5.5703,5.5703,5.5703,5.5703,5.5703,5.5703,5.5703,5.5703,5.5682,5.5618,5.5527,5.525,5.4933,5.4836,5.4174,5.3462,5.3462,5.3336,5.3206,5.3206,5.3206,5.3427,5.4234,5.3775,5.3298,5.3533,5.2678,5.1732,5.1105,5.1532,5.1778,5.139,5.2079,5.2467,5.1771,5.1674,5.1412,5.0706,5.0608,5.0257,4.9451,4.9274,4.8932,4.8373,4.7101,4.5969,4.5184,4.4215,4.3778,4.3778,4.3778,4.3617,4.3456,4.2917,4.2622,4.2392,4.2175,4.21,3.5671,3.686,3.833,4.0544,4.2253,4.3721,4.4929,4.4208,4.3117,4.2435,4.2942,4.3526,4.3526,4.602,4.9508,5.3892,5.3084,5.2584,5.4515,5.352,5.3086,5.4433,5.4603,5.5121,5.6476,5.6597,5.66,5.6601,5.6797,5.6894,5.6894,5.7734,5.789,5.7226,5.8496,5.9199,5.9199,5.9199,5.8448,5.6972,5.6777,5.6527,5.6281,5.6336,5.6241,5.6083,5.6088,5.6036,5.5962,5.5846,5.5787,5.5766,5.5724,5.5703,5.5703,5.5703,5.5703,5.5703,5.5703,5.5703,5.5703,5.5703,5.5703,5.564,5.5527,5.532,5.5072,5.4971,5.4476,5.3925,5.3739,5.3524,5.3314,5.3206,5.3206,5.3427,5.4234,5.3775,5.3298,5.3736,5.2933,5.2042,5.1601,5.1847,5.2109,5.2054,5.2576,5.2695,5.195,5.2028,5.1545,4.9994,4.9999,4.9687,4.8774,4.85,4.8356,4.8163,4.662,4.5697,4.5697,4.4143,4.3329,4.3329,4.325,4.317,4.2915,4.2769,4.2614,4.2529,4.2378,4.2476,3.5747,3.7766,3.9842,4.0855,4.0031,4.0214,4.5007,4.4189,4.3059,4.5358,4.6527,4.7131,4.7131,4.8592,5.0463,5.2469,5.3307,5.4582,5.7076,5.6675,5.6185,5.6302,5.6384,5.6468,5.6593,5.6597,5.66,5.6601,5.7344,5.7812,5.7812,5.8633,5.9082,5.9004,5.9121,5.9199,5.9199,5.9199,5.9121,5.8984,5.8163,5.7362,5.656,5.6501,5.6413,5.6261,5.6149,5.602,5.5905,5.5826,5.5766,5.5703,5.5703,5.5703,5.5703,5.5703,5.5703,5.5703,5.5703,5.5703,5.5703,5.5703,5.566,5.5596,5.5527,5.5456,5.5358,5.5358,5.5038,5.4572,5.3888,5.3682,5.3584,5.3272,5.3206,5.3427,5.4234,5.3775,5.3445,5.4191,5.3181,5.2155,5.1994,5.2056,5.2054,5.1926,5.2558,5.2542,5.126,5.1718,5.1399,4.9283,4.9603,4.9449,4.8358,4.8227,4.8163,4.8001,4.6566,4.5697,4.5697,4.4143,4.3329,4.3329,4.3155,4.2915,4.2688,4.2541,4.2602,4.2919,4.2919,4.3282,3.4952,3.7449,3.9869,4.0212,4.0201,0.0,0.0,4.7053,4.6624,4.7618,4.8904,4.9703,4.9157,5.1339,5.3268,5.3385,5.4593,5.584,5.6814,5.6694,5.6493,5.651,5.6562,5.6591,5.6597,5.66,5.6601,5.6601,5.7402,5.789,5.789,5.9199,5.9726,5.9219,5.9687,5.9941,5.9941,5.9941,5.9941,5.9922,5.8555,5.7674,5.7271,5.6786,5.646,5.6281,5.6197,5.6129,5.6063,5.5827,5.5768,5.5808,5.5728,5.5703,5.5703,5.5703,5.5703,5.5703,5.5703,5.5703,5.5703,5.5703,5.564,5.5689,5.618,5.6261,5.6212,5.6155,5.603,5.5693,5.4673,5.405,5.3682,5.3563,5.3359,5.3298,5.3592,5.3427,5.3256,5.3488,5.3006,5.2545,5.2408,5.2378,5.235,5.2301,5.2964,5.3135,5.2217,5.2463,5.2073,5.048,4.9571,4.8802,4.8261,4.8115,4.8049,4.8001,4.655,4.5697,4.5697,4.4143,4.3329,4.3329,4.3076,4.3123,4.3322,4.2664,4.285,4.3602,4.3181,4.3372,3.4952,3.7196,3.9597,4.0407,0.0,0.0,4.756,4.8378,4.8514,5.0424,5.1515,5.1943,5.1339,5.319,5.4691,5.4359,5.5548,5.6589,5.6866,5.666,5.6495,5.6495,5.6562,5.6712,5.699,5.6757,5.6719,5.6992,5.7812,5.8301,5.8301,5.9902,6.0566,6.0019,6.0527,6.0801,6.0801,6.0801,6.0801,6.0781,5.9375,5.8357,5.7754,5.7239,5.677,5.6327,5.6281,5.6239,5.6173,5.5932,5.588,5.5962,5.5808,5.5768,5.5768,5.5705,5.5703,5.5703,5.5703,5.5703,5.5742,5.6011,5.6063,5.6149,5.6961,5.7161,5.7111,5.7034,5.7008,5.6828,5.5998,5.5126,5.4371,5.4129,5.3912,5.3778,5.3946,5.3573,5.3237,5.3346,5.3076,5.2761,5.2635,5.2771,5.2878,5.2878,5.3604,5.376,5.2677,5.3036,5.2889,5.1456,4.9974,4.8957,4.8545,4.8414,4.8349,4.8349,4.6695,4.5697,4.5697,4.4342,4.3643,4.3643,4.35,4.3678,4.3985,4.3226,4.3394,4.4255,4.3805,4.3994,3.6005,3.7245,3.9146,4.1738,4.1103,4.1442,4.7423,4.7462,4.793,5.395,5.4496,5.3892,5.3892,5.3911,5.4184,5.5041,5.5937,5.682,5.7687,5.7063,5.6518,5.6523,5.6579,5.6966,5.783,5.7128,5.6973,5.7812,5.8691,5.9199,5.9199,6.0781,6.1699,6.1699,6.1699,6.1699,6.1699,6.1699,6.1699,6.1699,6.082,5.9531,5.7908,5.7908,5.7347,5.6407,5.6406,5.6309,5.6205,5.6129,5.6097,5.6084,5.5943,5.5896,5.588,5.5748,5.5703,5.5703,5.5703,5.5703,5.5838,5.6722,5.6947,5.7052,5.7887,5.8062,5.7985,5.7932,5.7905,5.7905,5.7905,5.7025,5.592,5.5119,5.4984,5.5108,5.5521,5.4344,5.3402,5.4041,5.346,5.2779,5.2654,5.3225,5.3711,5.3711,5.4481,5.4331,5.2195,5.3383,5.3717,5.1984,5.0977,5.0059,4.9177,4.9127,4.911,4.911,4.6969,4.5713,4.5713,4.48,4.4317,4.4332,4.4462,4.4619,4.4619,4.4237,4.4298,4.4893,4.4879,4.5242,3.6523,3.914,4.1078,4.0668,4.2909,4.567,4.7482,4.7949,4.9216,5.3424,5.3093,5.208,5.208,5.358,5.4496,5.3541,5.5606,5.7427,5.7697,5.8085,5.8331,5.8331,5.8359,5.8235,5.7927,5.7675,5.7363,5.7012,5.8359,5.9199,5.9199,6.0781,6.1699,6.1699,6.1699,6.1699,6.1699,6.1699,6.1699,6.1699,6.1445,6.0449,5.8789,5.818,5.7391,5.6536,5.64,5.6398,5.6478,5.6318,5.62,5.6097,5.6063,5.5975,5.5898,5.5864,5.5769,5.5703,5.5703,5.6088,5.6646,5.687,5.7301,5.7881,5.8655,5.8827,5.8773,5.8746,5.8746,5.8612,5.8058,5.8061,5.787,5.6474,5.6014,5.5646,5.489,5.4294,5.3767,5.3288,5.3381,5.3463,5.3406,5.4001,5.4544,5.4544,5.5212,5.5346,5.4296,5.374,5.2942,5.173,5.0859,5.0275,4.9906,4.9889,4.9436,4.8311,4.7133,4.6645,4.7103,4.5273,4.446,4.4757,4.4699,4.4755,4.5053,4.437,4.4545,4.5576,4.5111,4.5242,3.5427,3.885,4.1903,4.2253,4.4676,4.7345,4.8709,4.9683,5.0891,5.2957,5.282,5.2391,5.2606,5.3755,5.4574,5.4203,5.5879,5.7541,5.8442,5.8879,5.8979,5.8612,5.8884,5.8782,5.7986,5.8202,5.8203,5.7676,5.8808,5.9512,5.9512,6.0488,6.123,6.1699,6.1367,6.1348,6.1699,6.1699,6.1699,6.1699,6.1699,6.0996,5.9648,5.8766,5.7723,5.6588,5.6464,5.6497,5.6582,5.6472,5.6371,5.6291,5.6211,5.6122,5.6063,5.5946,5.5864,5.5769,5.5726,5.603,5.6588,5.7213,5.7738,5.8297,5.9396,5.966,5.9625,5.9625,5.9625,5.9491,5.9014,5.914,5.9,5.7535,5.7024,5.6644,5.5576,5.4752,5.4016,5.3389,5.3572,5.378,5.3693,5.4617,5.5341,5.5341,5.5317,5.5076,5.4413,5.3293,5.2384,5.1994,5.1489,5.1054,5.0667,5.0323,4.9758,4.8771,4.7442,4.712,4.7981,4.5875,4.4937,4.5372,4.5368,4.5419,4.5639,4.5011,4.514,4.588,4.5474,4.5503,3.3628,3.728,4.1877,4.5149,4.6325,4.7474,5.0599,5.1904,5.2489,5.2489,5.3112,5.3814,5.4301,5.3989,5.4192,5.5762,5.6277,5.7304,5.9576,5.9505,5.8945,5.8248,5.8856,5.8997,5.8102,5.8788,5.9199,5.8984,5.9551,5.9863,5.9707,5.9785,6.0371,6.1504,6.0801,6.082,6.1699,6.1699,6.1699,6.1699,6.1699,6.123,6.0371,5.9508,5.8192,5.6598,5.6591,5.6606,5.6606,5.6606,5.6606,5.6582,5.6406,5.6316,5.627,5.602,5.5913,5.588,5.5748,5.5799,5.6203,5.7689,5.8256,5.8585,6.0066,6.0444,6.0389,6.0389,6.0389,6.0389,6.0389,6.0099,5.9484,5.8292,5.7958,5.7716,5.6853,5.5393,5.4162,5.4036,5.3954,5.3907,5.3892,5.5124,5.6102,5.6052,5.4971,5.3949,5.3331,5.2437,5.2081,5.2557,5.2428,5.2108,5.1359,5.0529,5.0025,4.9812,4.7808,4.7108,4.8352,4.6426,4.5639,4.6085,4.6387,4.6491,4.6121,4.5866,4.5776,4.5776,4.5685,4.5595,3.5365,3.817,4.1584,4.3649,4.7202,5.0404,5.1125,5.1456,5.1573,5.1573,5.1729,5.1885,5.2002,5.1941,5.1973,5.2353,5.4702,5.7297,5.9573,6.0034,6.0292,6.0797,6.1028,6.0538,5.8995,5.9432,5.9082,5.7285,5.8535,5.8769,5.7402,5.8183,5.9199,6.0332,6.039,6.082,6.1699,6.1699,6.1699,6.1699,6.1699,6.123,6.0371,5.9508,5.8189,5.661,5.6606,5.6606,5.6606,5.6606,5.6606,5.6606,5.6553,5.6439,5.6279,5.611,5.599,5.588,5.5748,5.6607,5.7777,5.8026,5.8993,6.0118,6.033,6.0417,6.0389,6.0389,6.0389,6.0389,6.0389,6.0099,5.9635,5.9044,5.8221,5.7212,5.6091,5.4883,5.4036,5.4027,5.4371,5.4864,5.5395,5.6301,5.6765,5.6331,5.501,5.3994,5.3764,5.301,5.2457,5.2428,5.2445,5.2076,5.1206,5.0967,5.0089,4.8214,4.7645,4.7155,4.684,4.6331,4.6241,4.6476,4.6535,4.6417,4.597,4.5095,4.4606,4.4606,4.3843,4.3355,3.9922,4.2163,4.4143,4.6656,4.9313,5.13,5.13,5.13,5.13,5.13,5.13,5.1308,5.1297,5.1302,5.1854,5.3527,5.4869,5.6471,5.8765,5.949,5.9957,6.0398,6.0828,6.0557,5.9229,6.0135,5.998,5.7988,5.8691,5.8808,5.789,5.7617,5.8144,5.957,6.0,6.0683,6.1699,6.1699,6.1699,6.1699,6.1699,6.1015,5.9744,5.8899,5.8033,5.7141,5.6762,5.6606,5.6606,5.6606,5.6606,5.6606,5.6606,5.6533,5.6413,5.6189,5.6063,5.5959,5.5769,5.6547,5.7674,5.8002,5.893,5.9989,6.0283,6.0389,6.0389,6.0389,6.0389,6.0389,6.0389,5.9956,5.9467,5.9252,5.8236,5.7154,5.6775,5.5505,5.4592,5.4992,5.5268,5.554,5.5921,5.6443,5.6582,5.5961,5.4852,5.3943,5.3466,5.2956,5.257,5.2373,5.2069,5.1582,5.1118,5.04,4.9377,4.8147,4.7653,4.7166,4.6599,4.6599,4.659,4.6594,4.6016,4.5551,4.5095,4.4125,4.3545,4.3545,4.3081,4.2682,4.287,4.5715,4.7762,5.0579,5.13,5.13,5.13,5.13,5.13,5.13,5.13,5.1296,5.1302,5.1313,5.2255,5.5151,5.5326,5.5753,5.7645,5.8475,5.8923,5.9068,5.9854,6.0055,5.9176,6.0663,6.0957,5.918,5.8867,5.875,5.875,5.7383,5.7265,5.8711,5.9551,6.0547,6.1699,6.1699,6.1699,6.1699,6.1699,6.0937,5.9526,5.8704,5.8131,5.777,5.7254,5.6957,5.6801,5.6801,5.6723,5.6606,5.6606,5.6606,5.6553,5.6251,5.6122,5.6096,5.6001,5.6472,5.7267,5.8059,5.8809,5.9561,6.0207,6.0389,6.0389,6.0389,6.0389,6.0389,6.0313,5.9758,5.9159,5.9122,5.8058,5.7143,5.7519,5.6234,5.5243,5.6043,5.62,5.621,5.621,5.6257,5.609,5.5502,5.4624,5.3747,5.3025,5.2694,5.2499,5.2373,5.1598,5.1043,5.0876,4.9439,4.8573,4.8423,4.7694,4.7121,4.6916,4.6829,4.6653,4.6314,4.5264,4.4499,4.4031,4.2971,4.2488,4.2488,4.2306,4.2097,3.7027,4.3806,5.0738,5.1191,5.13,5.13,5.13,5.13,5.13,5.13,5.13,5.13,5.1289,5.1349,5.1542,5.2017,5.4431,5.6373,5.668,5.7444,5.8235,5.8931,5.9821,6.0038,5.9092,6.0643,6.0781,5.8594,5.7519,5.6953,5.6953,5.6738,5.6719,5.6933,5.8926,6.0547,6.1699,6.1699,6.1699,6.1699,6.1699,6.1582,6.1328,6.0463,5.9244,5.784,5.848,5.8343,5.7641,5.7641,5.7231,5.6606,5.6606,5.6606,5.6577,5.6352,5.6191,5.6187,5.68,5.7486,5.8216,5.8922,5.9716,6.0399,6.0406,6.0389,6.0389,6.0389,6.0389,6.0313,5.9988,5.9537,5.9122,5.8732,5.7592,5.6538,5.6731,5.5851,5.5262,5.6061,5.6672,5.7043,5.7043,5.6634,5.609,5.5502,5.4579,5.3649,5.2972,5.264,5.2445,5.2373,5.1598,5.0783,5.0057,4.9116,4.8256,4.7538,4.7106,4.6931,4.6916,4.6476,4.5822,4.4975,4.4791,4.4125,4.2985,4.19,4.1419,4.1419,4.0567,3.9762,3.7338,4.302,4.8899,5.0821,5.13,5.13,5.13,5.13,5.13,5.13,5.13,5.1289,5.1304,5.1327,5.1333,5.1343,5.4157,5.6356,5.6374,5.6758,5.7317,5.8114,5.8601,5.9074,5.9572,6.0405,6.0496,5.95,5.8846,5.7949,5.668,5.6601,5.7051,5.8027,5.9941,6.1191,6.1699,6.1699,6.1699,6.1699,6.1699,6.1445,6.0976,6.1088,6.0437,5.926,5.9148,5.889,5.8499,5.7992,5.7582,5.7231,5.6782,5.6606,5.6582,5.6359,5.6222,5.6207,5.6933,5.764,5.8318,5.9051,5.9843,6.0472,6.0417,6.0389,6.0389,6.0389,6.0389,6.0313,5.9906,5.9502,5.9084,5.8609,5.7765,5.7072,5.7072,5.6243,5.5819,5.6617,5.7021,5.7188,5.7188,5.6706,5.6146,5.5751,5.4641,5.3715,5.3264,5.2694,5.2373,5.2373,5.1177,5.0229,4.9805,4.8641,4.7694,4.7309,4.7019,4.6844,4.6756,4.6388,4.5355,4.364,4.364,4.3067,4.19,4.0844,4.0364,4.0364,3.9878,3.9399,3.7747,4.1377,4.5553,5.0158,5.1308,5.13,5.13,5.13,5.13,5.13,5.13,5.1296,5.1297,5.1302,5.1302,5.1297,5.4098,5.6263,5.6227,5.6296,5.6576,5.7154,5.7498,5.8219,5.96,6.0074,6.0274,6.0255,6.0112,5.9131,5.7081,5.6749,5.72,5.8494,6.0173,6.1053,6.1055,6.1484,6.1699,6.1699,6.1699,6.1367,6.0759,6.1399,6.1358,6.0691,6.003,5.9631,5.9358,5.8499,5.8128,5.8031,5.6996,5.6723,5.6855,5.6517,5.6407,5.655,5.7311,5.7949,5.8558,5.9377,5.9989,6.0417,6.0417,6.0389,6.0389,6.0389,6.0389,6.0313,5.9906,5.9502,5.9084,5.8549,5.7996,5.7553,5.7406,5.6817,5.6482,5.708,5.7188,5.7188,5.7188,5.6635,5.6111,5.5733,5.4641,5.3632,5.3264,5.2764,5.2302,5.2053,5.0691,4.9742,4.9503,4.8172,4.7309,4.7309,4.7033,4.6756,4.6594,4.6314,4.5081,4.2889,4.2792,4.2177,4.1051,4.0146,3.9823,3.9957,3.9794,3.9506,3.5805,3.7831,4.1539,4.9347,5.1296,5.1296,5.13,5.1292,5.13,5.13,5.13,5.13,5.13,5.1308,5.13,5.1292,5.4231,5.6366,5.6057,5.6124,5.6197,5.6185,5.7009,5.7904,5.8707,5.9629,6.0174,6.0126,6.0097,5.9492,5.8089,5.7115,5.6647,5.6723,5.8426,5.9322,5.9336,6.0918,6.1699,6.1699,6.1699,6.1679,6.1638,6.1672,6.1687,6.1639,6.1588,6.1095,6.0256,5.9397,5.9026,5.887,5.725,5.7074,5.7641,5.6875,5.6901,5.7463,5.8304,5.8934,5.9451,6.0284,6.0514,6.0472,6.0417,6.0389,6.0389,6.0389,6.0389,6.0313,5.9906,5.9502,5.9084,5.871,5.8086,5.7553,5.7257,5.7152,5.7152,5.7188,5.7188,5.7188,5.7188,5.6528,5.5833,5.5231,5.4293,5.3348,5.2747,5.2499,5.2069,5.1268,5.0384,4.9503,4.8723,4.7864,4.7309,4.7309,4.6858,4.6594,4.6594,4.615,4.4911,4.2889,4.2792,4.2094,4.0581,3.9948,4.0057,4.0719,4.0016,3.9709,3.5519,3.6507,3.8156,4.2513,4.9152,5.4059,5.1803,5.1308,5.1292,5.1297,5.1297,5.1307,5.1288,5.1297,5.1304,5.1307,5.4226,5.6411,5.6162,5.611,5.6068,5.604,5.6388,5.6936,5.7718,5.8214,5.8671,5.9165,5.928,5.8927,5.8011,5.694,5.6344,5.6335,5.6985,5.7681,5.8362,5.9995,6.0806,6.0806,6.1406,6.1698,6.1697,6.1709,6.1701,6.1697,6.1705,6.1525,6.1174,6.0295,5.9592,5.8987,5.7816,5.7231,5.6996,5.6704,5.6985,5.7642,5.8435,5.9043,5.9598,6.0348,6.0525,6.0417,6.0417,6.0389,6.0389,6.0389,6.0389,6.0313,5.9906,5.9502,5.9008,5.8176,5.766,5.7307,5.7188,5.7188,5.7188,5.7188,5.7188,5.7188,5.7188,5.6811,5.6276,5.5525,5.4668,5.3813,5.306,5.2624,5.2069,5.1194,5.0306,4.9503,4.8641,4.7779,4.7309,4.7309,4.6858,4.6594,4.6594,4.615,4.4911,4.2889,4.3158,4.2391,4.0513,4.0325,4.0483,4.1146,4.0814,4.0687,3.4311,3.5046,3.5994,3.8176,4.4196,4.99,5.1043,5.1308,5.1292,5.1298,5.123,5.1171,5.1175,5.1161,5.1191,5.1286,5.4121,5.6278,5.6156,5.6063,5.5994,5.5993,5.6043,5.6388,5.7211,5.7385,5.7776,5.859,5.8746,5.8359,5.7328,5.6189,5.5578,5.5619,5.6046,5.6764,5.7797,5.9455,6.03,6.0319,6.1249,6.1698,6.1695,6.1707,6.1697,6.1694,6.1705,6.1701,6.1622,6.0764,6.0061,5.9417,5.8246,5.7465,5.6977,5.6704,5.7213,5.8101,5.8532,5.9215,6.001,6.0424,6.0499,6.0389,6.0389,6.0389,6.0389,6.0389,6.0389,6.0361,6.0049,5.9571,5.8872,5.7784,5.7406,5.7239,5.7206,5.7188,5.7188,5.7188,5.7188,5.7188,5.7188,5.6617,5.5925,5.5391,5.4419,5.3499,5.2922,5.2553,5.198,5.0783,5.0135,4.9343,4.8256,4.7624,4.7309,4.7309,4.6946,4.6771,4.6904,4.6561,4.5417,4.3473,4.3769,4.2973,4.1065,4.0877,4.1166,4.1882,4.151,4.1246,0.0,0.0,0.0,3.6982,3.6722,3.8592,4.8643,5.1211,5.1417,5.1308,5.1084,5.0888,5.0891,5.0906,5.1011,5.1392,5.3987,5.5993,5.5986,5.6005,5.6013,5.5993,5.6012,5.6341,5.7192,5.7269,5.7617,5.8449,5.8507,5.7753,5.6031,5.4854,5.4301,5.4433,5.5551,5.658,5.7496,5.9274,6.0217,6.0295,6.1245,6.1698,6.1692,6.169,6.1701,6.1701,6.1701,6.1701,6.1622,6.0783,6.0412,6.0198,5.8499,5.7816,5.766,5.6899,5.7584,5.888,5.8681,5.9585,6.0762,6.0572,6.0472,6.0389,6.0389,6.0389,6.0389,6.0389,6.0389,6.0389,6.0361,5.9687,5.8716,5.7624,5.7406,5.7338,5.7257,5.7188,5.7188,5.7188,5.7188,5.7188,5.7188,5.5872,5.48,5.4783,5.3465,5.2445,5.2373,5.2373,5.1729,4.9962,4.9805,4.9116,4.7467,4.7309,4.7309,4.7309,4.7019,4.7037,4.7508,4.7296,4.6324,4.4615,4.4569,4.3753,4.2158,4.1618,4.1919,4.2961,4.1853,4.125,3.1505,0.0,0.0,0.0,0.0,0.0,4.1396,4.8799,5.4353,5.1822,5.1086,5.0895,5.0903,5.0913,5.1745,5.4274,5.5438,5.6001,5.6004,5.6007,5.599,5.5993,5.6012,5.6089,5.6341,5.636,5.6457,5.6708,5.6728,5.5973,5.4271,5.3285,5.2798,5.284,5.4144,5.4953,5.5206,5.6535,5.8081,5.9813,6.0983,6.1559,6.1561,6.1619,6.1659,6.169,6.169,6.1701,6.1681,6.1447,6.0607,5.9417,5.8929,5.7992,5.6918,5.6684,5.7631,5.9027,5.881,5.9711,6.0904,6.0712,6.052,6.0389,6.0389,6.0389,6.0389,6.0389,6.0389,6.0237,5.9568,5.9103,5.8617,5.7624,5.7356,5.7257,5.7206,5.7188,5.7188,5.7188,5.7188,5.7188,5.7188,5.6203,5.5255,5.4861,5.3713,5.28,5.2445,5.1818,5.1027,4.9884,4.9262,4.849,4.7381,4.7309,4.7309,4.7309,4.6946,4.6756,4.6845,4.6181,4.5147,4.3918,4.397,4.3345,4.2158,4.1995,4.2283,4.2974,4.2625,4.2,3.1271,3.2401,3.4077,3.3921,0.0,0.0,3.8325,4.3378,4.8516,5.0678,5.1005,5.0898,5.0902,5.0893,5.2015,5.5426,5.6001,5.6001,5.5993,5.6012,5.6012,5.6012,5.6012,5.6012,5.6012,5.6012,5.6012,5.6012,5.6012,5.5277,5.3594,5.2337,5.1815,5.2182,5.2995,5.371,5.4274,5.5486,5.677,5.813,6.0361,6.1451,6.1509,6.1538,6.1594,6.166,6.1692,6.1701,6.1701,6.1705,6.09,5.9631,5.9631,5.8597,5.7094,5.7094,5.7719,5.8582,5.8714,5.9521,6.053,6.0622,6.0546,6.0389,6.0389,6.0389,6.0389,6.0389,6.0389,6.0159,5.9177,5.8855,5.8576,5.7528,5.7257,5.7188,5.7188,5.7188,5.7188,5.7188,5.7188,5.7138,5.7036,5.6037,5.5137,5.4713,5.3598,5.2677,5.2445,5.198,5.1177,4.9962,4.9593,4.9072,4.7785,4.7967,4.8012,4.7728,4.7614,4.7495,4.7405,4.6561,4.5636,4.4773,4.4348,4.3553,4.2497,4.2497,4.266,4.2986,4.2875,4.1781,3.1831,3.2577,3.3979,3.47,3.5402,0.0,3.7627,3.7447,3.9548,4.8495,5.0332,5.0583,5.1334,5.1157,5.1896,5.4939,5.5736,5.599,5.5993,5.6012,5.6051,5.6128,5.6147,5.6147,5.6147,5.6147,5.6109,5.6012,5.5915,5.5219,5.371,5.1989,5.1409,5.2182,5.2105,5.2666,5.3906,5.5428,5.6123,5.6032,5.9199,6.0904,6.1296,6.1296,6.1364,6.1453,6.1523,6.16,6.1697,6.1697,6.1198,6.0393,6.0393,5.9397,5.7933,5.7836,5.7855,5.8016,5.8442,5.9055,5.9736,6.0198,6.0259,6.0102,6.0102,6.0179,6.0274,6.037,6.0389,6.014,5.9084,5.8798,5.8516,5.7449,5.7188,5.7188,5.7188,5.7188,5.7188,5.7188,5.7206,5.7105,5.6847,5.5663,5.4695,5.4454,5.3264,5.2373,5.2373,5.2214,5.1492,4.9978,5.0198,4.977,4.8338,4.8716,4.8835,4.8312,4.8566,4.865,4.8525,4.7634,4.6904,4.6225,4.5061,4.4042,4.2974,4.2974,4.2974,4.2974,4.2499,4.0865,3.5352,3.5675,3.6493,3.6649,3.6298,0.0,3.4633,3.931,4.4431,4.6396,4.679,4.8477,5.3993,5.2748,5.1126,5.179,5.42,5.6007,5.5993,5.6012,5.6263,5.696,5.7056,5.7056,5.7056,5.7056,5.6766,5.6051,5.5393,5.489,5.4561,5.2879,5.2008,5.2182,5.1509,5.1296,5.1567,5.4549,5.6036,5.6004,5.6711,5.8062,5.9962,6.0039,6.0247,6.0564,6.0613,6.1054,6.1697,6.1695,6.1196,6.0393,6.0393,5.9768,5.8753,5.805,5.8246,5.8768,5.8187,5.832,5.8745,5.8799,5.8623,5.8383,5.8383,5.8842,5.951,6.0198,6.0389,6.014,5.9084,5.8798,5.8516,5.7449,5.7188,5.7188,5.7188,5.7188,5.7188,5.7188,5.7054,5.6847,5.6794,5.5525,5.4437,5.4391,5.3264,5.2373,5.2373,5.1177,5.0213,4.9805,4.8666,4.7804,4.7489,4.7623,4.7863,4.8252,4.7955,4.798,4.8496,4.6729,4.5697,4.5614,4.411,4.3184,4.2974,4.2974,4.2974,4.2974,4.1822,4.0571,3.6596,3.6547,3.7206,3.72,3.7377,0.0,0.0,3.8488,4.1354,4.31,4.3458,4.4473,4.7811,4.5606,4.4428,4.7801,4.6955,4.7352,5.1606,5.4407,5.6321,5.7211,5.7308,5.7482,5.7907,5.7559,5.694,5.607,5.5258,5.4793,5.4793,5.3556,5.284,5.284,5.2434,5.178,5.0913,5.2592,5.3459,5.3464,5.52,5.6633,5.7839,5.853,5.9309,6.0106,6.029,6.0838,6.1651,6.1699,6.144,6.106,6.1046,6.0529,5.971,5.9261,5.9104,5.91,5.9065,5.886,5.8644,5.8913,5.8556,5.7979,5.7913,5.8459,5.9281,6.0141,6.0389,6.014,5.9084,5.8798,5.8516,5.7449,5.7188,5.7188,5.7188,5.7188,5.7188,5.7188,5.6899,5.6528,5.6257,5.5172,5.4264,5.3813,5.3008,5.2373,5.2373,5.1252,5.029,4.9805,4.8934,4.8263,4.7788,4.8102,4.8416,4.876,4.8623,4.8365,4.8188,4.6679,4.5364,4.4225,4.3365,4.2974,4.2974,4.2388,4.2037,4.2037,4.1227,3.9849,3.7783,3.7419,3.7959,3.7951,3.8764,3.9474,0.0,0.0,0.0,4.0455,4.1036,4.099,4.0829,3.8535,3.8469,4.3954,4.0236,3.9307,4.683,5.1621,5.4735,5.5722,5.6553,5.7211,5.7579,5.6824,5.6225,5.6031,5.4948,5.4503,5.5006,5.4213,5.3749,5.3749,5.3594,5.2824,5.1415,5.107,5.0897,5.0935,5.371,5.5258,5.578,5.712,5.8457,5.9756,6.0086,6.0756,6.1607,6.1656,6.1698,6.1695,6.1694,6.1271,6.0627,6.0451,5.9944,5.9427,5.9888,5.9376,5.8538,5.8992,5.8421,5.7613,5.7825,5.8345,5.909,6.0102,6.0389,6.0129,5.9177,5.8816,5.8512,5.7546,5.7257,5.7188,5.7188,5.7188,5.7188,5.7188,5.6742,5.6255,5.5848,5.4931,5.4072,5.3365,5.2747,5.2373,5.2142,5.1417,5.0538,4.9662,4.9269,4.8809,4.8175,4.8701,4.9134,4.9269,4.9408,4.9026,4.794,4.6696,4.5074,4.3085,4.2974,4.2974,4.2974,4.1684,4.11,4.11,4.028,3.8851,4.1238,4.0578,4.0656,4.0654,4.0769,4.0879,4.0827,0.0,4.0429,4.0761,0.0,4.0834,4.0807,0.0,0.0,4.1246,4.072,4.1602,4.5544,4.7458,4.8995,5.0403,5.3865,5.5606,5.4213,5.3285,5.3672,5.5838,5.3826,5.3478,5.5741,5.5084,5.4658,5.4658,5.3904,5.3401,5.3207,5.1664,5.0893,5.0897,5.128,5.2627,5.4796,5.609,5.7562,5.9133,5.9687,6.0566,6.1607,6.1606,6.1659,6.1695,6.1694,6.1642,6.1466,6.0686,6.0334,6.0154,5.9476,5.8539,5.7619,5.7511,5.6669,5.5983,5.7447,5.7963,5.8364,5.995,6.0285,5.9988,5.9395,5.8932,5.8461,5.7849,5.7455,5.7188,5.7188,5.7188,5.7188,5.7188,5.6742,5.6383,5.6328,5.5026,5.3912,5.3847,5.3025,5.2142,5.1359,5.0461,4.9662,4.8805,4.7995,4.7486,4.7414,4.8012,4.8566,4.8877,4.9316,4.9135,4.8354,4.6083,4.4248,4.2974,4.2974,4.2974,4.2974,4.1684,4.11,4.1088,3.8721,3.7407,4.1659,4.1464,4.1737,4.1226,4.157,4.1869,4.1234,4.0979,4.083,4.0818,0.0,0.0,0.0,0.0,0.0,0.0,3.7841,3.8331,3.9734,4.206,4.5133,4.9223,5.1679,5.3169,5.3459,5.4058,5.4851,5.5915,5.4581,5.4387,5.5915,5.5683,5.5509,5.5509,5.5142,5.4735,5.4252,5.3081,5.1993,5.1029,5.0932,5.1457,5.255,5.526,5.6892,5.7594,5.8314,5.9462,6.0859,6.0851,6.1157,6.1659,6.1674,6.1697,6.1661,6.1291,6.1125,6.1049,6.0637,5.9543,5.811,5.682,5.6258,5.632,5.7523,5.823,5.8861,6.0045,6.0256,5.9988,5.943,5.895,5.8461,5.7914,5.7486,5.7188,5.7188,5.7188,5.7138,5.7003,5.6438,5.5865,5.5694,5.4641,5.3715,5.3145,5.264,5.2069,5.1194,5.0306,4.9644,4.918,4.8354,4.8027,4.8416,4.8701,4.9044,4.9441,4.847,4.7712,4.7238,4.4967,4.3517,4.2974,4.2974,4.2974,4.2974,4.1684,4.0743,3.9919,3.8138,3.6824,4.2049,4.1911,4.2265,4.1738,4.193,4.206,4.1275,4.0984,4.0881,4.0905,4.0908,0.0,0.0,0.0,3.9685,3.6267,0.0,3.5693,3.5697,3.8375,4.1963,4.638,4.8256,4.9939,5.1912,5.2995,5.3942,5.489,5.4194,5.4407,5.5915,5.6012,5.6012,5.6012,5.6012,5.5722,5.5122,5.4336,5.3305,5.2104,5.133,5.1218,5.1763,5.4521,5.6044,5.6541,5.7438,5.8763,6.0311,6.0295,6.0807,6.1614,6.1679,6.1707,6.1701,6.1701,6.1666,6.1588,6.1528,6.0308,5.8425,5.646,5.6156,5.6759,5.7638,5.8459,5.9281,6.0141,6.0226,5.9944,5.959,5.9046,5.8521,5.8051,5.7631,5.7338,5.7239,5.7188,5.7138,5.6951,5.6311,5.5676,5.529,5.4374,5.3449,5.2694,5.2516,5.2135,5.1453,5.0655,5.0037,4.9828,4.9035,4.8745,4.9224,4.9434,4.9533,4.961,4.7726,4.6319,4.5913,4.4029,4.2974,4.2974,4.2974,4.2974,4.2974,4.1329,4.0152,3.9216,3.7899,3.6592,4.329,4.2388,4.2466,4.2773,4.1992,4.114,4.1113,4.1108,4.1119,4.1169,4.1181,4.1188,4.1182,4.0976,3.9673,3.6267,3.5688,0.0,0.0,3.7696,3.9313,3.9777,4.2763,4.58,4.8314,4.785,4.8759,5.2066,5.1525,5.2492,5.5818,5.6012,5.6012,5.6012,5.6012,5.5993,5.5973,5.5161,5.4735,5.4639,5.224,5.1969,5.3623,5.3876,5.4897,5.6561,5.7691,5.8977,6.0311,6.0295,6.0807,6.1614,6.1679,6.1707,6.1701,6.1701,6.1666,6.1588,6.1528,6.0157,5.8124,5.6368,5.6156,5.6759,5.7638,5.8459,5.9281,6.0141,6.0167,5.9885,5.9885,5.9345,5.8706,5.8344,5.8006,5.7697,5.7289,5.7188,5.7206,5.7206,5.6742,5.6199,5.5658,5.423,5.3111,5.3111,5.2677,5.2317,5.2194,5.1374,5.0743,5.0607,4.9804,4.9239,4.9269,4.9853,4.9799,4.8921,4.7238,4.5807,4.4778,4.3615,4.2974,4.2974,4.2974,4.2974,4.2974,4.0512,3.9216,3.9216,3.7899,3.6592,4.4173,4.3997,4.386,4.2837,4.2702,4.2529,4.1359,4.1108,4.1112,4.1191,4.1208,4.1201,4.1199,4.1124,4.0635,3.9282,3.719,3.5951,0.0,3.7309,3.7677,3.7773,4.1313,4.4078,4.4949,4.7134,4.9266,5.1199,5.2144,5.3614,5.5877,5.6012,5.6012,5.6012,5.6012,5.5959,5.5866,5.5073,5.4684,5.4665,5.3823,5.2937,5.2103,5.3689,5.4753,5.5333,5.5957,5.7107,5.8607,5.9198,5.9982,6.085,6.1422,6.1658,6.1701,6.1701,6.1666,6.1432,6.0205,5.9244,5.8236,5.6387,5.7014,5.8489,5.8639,5.9663,6.0828,6.1115,6.0555,5.9885,5.9885,5.9345,5.8706,5.8388,5.8051,5.7697,5.7307,5.7188,5.7105,5.6742,5.6629,5.6276,5.5191,5.4388,5.37,5.3179,5.2677,5.2154,5.1405,5.1009,5.0715,5.0364,5.0065,5.0092,5.0526,5.05,4.9919,4.8894,4.7252,4.5807,4.4778,4.3615,4.2974,4.2974,4.2974,4.2974,4.2974,4.1329,3.9919,3.8851,3.7528,3.6348,4.5319,4.4998,4.4481,4.3188,4.283,4.2487,4.1354,4.0157,3.9632,4.0896,4.1162,4.1913,4.4371,4.2839,4.0945,4.015,3.8123,3.6689,0.0,3.6596,3.6477,3.6477,3.9437,4.197,4.3189,4.5432,4.7966,5.0697,5.2511,5.423,5.5896,5.5993,5.6012,5.6012,5.594,5.5885,5.5787,5.5209,5.494,5.4959,5.4721,5.3703,5.2069,5.3661,5.4392,5.4437,5.4963,5.6327,5.8198,5.8769,5.9709,6.0869,6.1422,6.1658,6.1701,6.1701,6.1634,6.1311,5.9491,5.8944,5.8734,5.6869,5.7882,5.9791,5.9603,6.0523,6.1593,6.1554,6.0734,5.9885,5.982,5.94,5.8868,5.8388,5.8142,5.7821,5.7289,5.7188,5.7054,5.6653,5.6573,5.6346,5.5697,5.4965,5.4245,5.3617,5.3061,5.2704,5.2536,5.1916,5.1534,5.1585,5.0924,5.0657,5.1075,5.0662,4.9752,4.8167,4.6943,4.5595,4.4152,4.3406,4.2974,4.2974,4.2974,4.2737,4.2275,4.11,3.9557,3.8007,3.6571,3.55]}]]